<?xml version="1.0" encoding="UTF-8" standalone="no" ?>
<gpx xmlns="http://www.topografix.com/GPX/1/1" xmlns:xsi="http://www.w3.org/2001/XMLSchema-instance" xsi:schemaLocation="http://www.topografix.com/GPX/1/1 http://www.topografix.com/GPX/1/1/gpx.xsd" version="1.1" creator="VisuGPX - https://www.visugpx.com">
  <metadata>
    <name>Plogastel-St-Germain/Hent Meur</name>
    <desc><![CDATA[Départ Parking de la Poste à Plogastel-St-Germain, en sortant du parking face à la boulangerie, monter la rue du Kastel, puis prendre la première ruelle à droite, balisage jaune. Le sentier est bien balisé. Une agréable balade dans la campagne et les chemins creux du Haut pays Bigouden ]]></desc>
  </metadata>
  <trk>
    <name><![CDATA[Plogastel-St-Germain/Hent Meur]]></name>
    <trkseg>
      <trkpt lat="47.98284" lon="-4.27055">
        <ele>103.95971679688</ele>
        <time>2014-01-11T12:46:17Z</time>
      </trkpt>
      <trkpt lat="47.98284" lon="-4.27054">
        <ele>104.4404296875</ele>
        <time>2014-01-11T12:46:18Z</time>
      </trkpt>
      <trkpt lat="47.98284" lon="-4.27053">
        <ele>103.95971679688</ele>
        <time>2014-01-11T12:46:19Z</time>
      </trkpt>
      <trkpt lat="47.98283" lon="-4.27046">
        <ele>104.4404296875</ele>
        <time>2014-01-11T12:46:26Z</time>
      </trkpt>
      <trkpt lat="47.98288" lon="-4.27048">
        <ele>105.40173339844</ele>
        <time>2014-01-11T12:46:35Z</time>
      </trkpt>
      <trkpt lat="47.98294" lon="-4.2705">
        <ele>106.36303710938</ele>
        <time>2014-01-11T12:46:40Z</time>
      </trkpt>
      <trkpt lat="47.98298" lon="-4.2705">
        <ele>105.40173339844</ele>
        <time>2014-01-11T12:46:44Z</time>
      </trkpt>
      <trkpt lat="47.98309" lon="-4.27055">
        <ele>105.40173339844</ele>
        <time>2014-01-11T12:46:52Z</time>
      </trkpt>
      <trkpt lat="47.98318" lon="-4.27058">
        <ele>104.92102050781</ele>
        <time>2014-01-11T12:47:00Z</time>
      </trkpt>
      <trkpt lat="47.98326" lon="-4.27054">
        <ele>103.95971679688</ele>
        <time>2014-01-11T12:47:06Z</time>
      </trkpt>
      <trkpt lat="47.98334" lon="-4.27054">
        <ele>109.72766113281</ele>
        <time>2014-01-11T12:47:10Z</time>
      </trkpt>
      <trkpt lat="47.98341" lon="-4.27054">
        <ele>120.30212402344</ele>
        <time>2014-01-11T12:47:15Z</time>
      </trkpt>
      <trkpt lat="47.98342" lon="-4.27054">
        <ele>121.744140625</ele>
        <time>2014-01-11T12:47:20Z</time>
      </trkpt>
      <trkpt lat="47.98354" lon="-4.2706">
        <ele>119.82141113281</ele>
        <time>2014-01-11T12:47:26Z</time>
      </trkpt>
      <trkpt lat="47.98362" lon="-4.27071">
        <ele>120.78283691406</ele>
        <time>2014-01-11T12:47:33Z</time>
      </trkpt>
      <trkpt lat="47.98364" lon="-4.27076">
        <ele>116.9375</ele>
        <time>2014-01-11T12:47:36Z</time>
      </trkpt>
      <trkpt lat="47.98371" lon="-4.27082">
        <ele>115.49560546875</ele>
        <time>2014-01-11T12:47:42Z</time>
      </trkpt>
      <trkpt lat="47.98376" lon="-4.27088">
        <ele>121.26354980469</ele>
        <time>2014-01-11T12:47:47Z</time>
      </trkpt>
      <trkpt lat="47.9838" lon="-4.27094">
        <ele>125.58935546875</ele>
        <time>2014-01-11T12:47:51Z</time>
      </trkpt>
      <trkpt lat="47.98387" lon="-4.27091">
        <ele>120.78283691406</ele>
        <time>2014-01-11T12:47:57Z</time>
      </trkpt>
      <trkpt lat="47.98393" lon="-4.27096">
        <ele>121.744140625</ele>
        <time>2014-01-11T12:48:03Z</time>
      </trkpt>
      <trkpt lat="47.98401" lon="-4.27099">
        <ele>126.06994628906</ele>
        <time>2014-01-11T12:48:08Z</time>
      </trkpt>
      <trkpt lat="47.98409" lon="-4.27102">
        <ele>121.744140625</ele>
        <time>2014-01-11T12:48:14Z</time>
      </trkpt>
      <trkpt lat="47.98417" lon="-4.27103">
        <ele>118.86010742188</ele>
        <time>2014-01-11T12:48:21Z</time>
      </trkpt>
      <trkpt lat="47.98425" lon="-4.27105">
        <ele>118.86010742188</ele>
        <time>2014-01-11T12:48:26Z</time>
      </trkpt>
      <trkpt lat="47.98432" lon="-4.27108">
        <ele>117.89880371094</ele>
        <time>2014-01-11T12:48:32Z</time>
      </trkpt>
      <trkpt lat="47.98438" lon="-4.27111">
        <ele>115.01489257812</ele>
        <time>2014-01-11T12:48:37Z</time>
      </trkpt>
      <trkpt lat="47.98445" lon="-4.27114">
        <ele>111.65026855469</ele>
        <time>2014-01-11T12:48:43Z</time>
      </trkpt>
      <trkpt lat="47.98451" lon="-4.27117">
        <ele>110.20825195312</ele>
        <time>2014-01-11T12:48:49Z</time>
      </trkpt>
      <trkpt lat="47.98458" lon="-4.27121">
        <ele>108.76623535156</ele>
        <time>2014-01-11T12:48:54Z</time>
      </trkpt>
      <trkpt lat="47.98466" lon="-4.27125">
        <ele>107.80505371094</ele>
        <time>2014-01-11T12:49:00Z</time>
      </trkpt>
      <trkpt lat="47.9847" lon="-4.27127">
        <ele>105.40173339844</ele>
        <time>2014-01-11T12:49:04Z</time>
      </trkpt>
      <trkpt lat="47.98471" lon="-4.27128">
        <ele>105.40173339844</ele>
        <time>2014-01-11T12:49:05Z</time>
      </trkpt>
      <trkpt lat="47.98477" lon="-4.27131">
        <ele>103.95971679688</ele>
        <time>2014-01-11T12:49:09Z</time>
      </trkpt>
      <trkpt lat="47.98483" lon="-4.27132">
        <ele>103.95971679688</ele>
        <time>2014-01-11T12:49:14Z</time>
      </trkpt>
      <trkpt lat="47.98491" lon="-4.27135">
        <ele>103.47900390625</ele>
        <time>2014-01-11T12:49:20Z</time>
      </trkpt>
      <trkpt lat="47.98497" lon="-4.27135">
        <ele>104.4404296875</ele>
        <time>2014-01-11T12:49:24Z</time>
      </trkpt>
      <trkpt lat="47.98501" lon="-4.27138">
        <ele>107.32434082031</ele>
        <time>2014-01-11T12:49:28Z</time>
      </trkpt>
      <trkpt lat="47.98506" lon="-4.27143">
        <ele>108.76623535156</ele>
        <time>2014-01-11T12:49:32Z</time>
      </trkpt>
      <trkpt lat="47.98516" lon="-4.27146">
        <ele>110.20825195312</ele>
        <time>2014-01-11T12:49:39Z</time>
      </trkpt>
      <trkpt lat="47.98521" lon="-4.27151">
        <ele>108.76623535156</ele>
        <time>2014-01-11T12:49:44Z</time>
      </trkpt>
      <trkpt lat="47.98524" lon="-4.27155">
        <ele>110.20825195312</ele>
        <time>2014-01-11T12:49:49Z</time>
      </trkpt>
      <trkpt lat="47.98529" lon="-4.27157">
        <ele>110.68884277344</ele>
        <time>2014-01-11T12:49:53Z</time>
      </trkpt>
      <trkpt lat="47.98532" lon="-4.27157">
        <ele>124.14733886719</ele>
        <time>2014-01-11T12:49:59Z</time>
      </trkpt>
      <trkpt lat="47.98537" lon="-4.2715">
        <ele>115.97619628906</ele>
        <time>2014-01-11T12:50:07Z</time>
      </trkpt>
      <trkpt lat="47.98542" lon="-4.27146">
        <ele>108.28564453125</ele>
        <time>2014-01-11T12:50:11Z</time>
      </trkpt>
      <trkpt lat="47.98547" lon="-4.27142">
        <ele>101.55639648438</ele>
        <time>2014-01-11T12:50:15Z</time>
      </trkpt>
      <trkpt lat="47.98547" lon="-4.27139">
        <ele>99.6337890625</ele>
        <time>2014-01-11T12:50:17Z</time>
      </trkpt>
      <trkpt lat="47.98552" lon="-4.27134">
        <ele>91.943237304688</ele>
        <time>2014-01-11T12:50:22Z</time>
      </trkpt>
      <trkpt lat="47.98557" lon="-4.27125">
        <ele>92.423950195312</ele>
        <time>2014-01-11T12:50:29Z</time>
      </trkpt>
      <trkpt lat="47.98558" lon="-4.27124">
        <ele>93.385131835938</ele>
        <time>2014-01-11T12:50:30Z</time>
      </trkpt>
      <trkpt lat="47.98559" lon="-4.27121">
        <ele>94.346557617188</ele>
        <time>2014-01-11T12:50:32Z</time>
      </trkpt>
      <trkpt lat="47.98567" lon="-4.27112">
        <ele>95.307739257812</ele>
        <time>2014-01-11T12:50:38Z</time>
      </trkpt>
      <trkpt lat="47.98573" lon="-4.27106">
        <ele>96.269287109375</ele>
        <time>2014-01-11T12:50:42Z</time>
      </trkpt>
      <trkpt lat="47.98576" lon="-4.27101">
        <ele>102.99829101562</ele>
        <time>2014-01-11T12:50:47Z</time>
      </trkpt>
      <trkpt lat="47.98579" lon="-4.2709">
        <ele>115.49560546875</ele>
        <time>2014-01-11T12:50:56Z</time>
      </trkpt>
      <trkpt lat="47.9858" lon="-4.27084">
        <ele>115.49560546875</ele>
        <time>2014-01-11T12:51:00Z</time>
      </trkpt>
      <trkpt lat="47.98581" lon="-4.27068">
        <ele>101.07568359375</ele>
        <time>2014-01-11T12:51:04Z</time>
      </trkpt>
      <trkpt lat="47.98582" lon="-4.27053">
        <ele>91.462524414062</ele>
        <time>2014-01-11T12:51:10Z</time>
      </trkpt>
      <trkpt lat="47.98585" lon="-4.27041">
        <ele>87.6171875</ele>
        <time>2014-01-11T12:51:17Z</time>
      </trkpt>
      <trkpt lat="47.98587" lon="-4.27034">
        <ele>87.136596679688</ele>
        <time>2014-01-11T12:51:22Z</time>
      </trkpt>
      <trkpt lat="47.98589" lon="-4.27029">
        <ele>85.213989257812</ele>
        <time>2014-01-11T12:51:27Z</time>
      </trkpt>
      <trkpt lat="47.98595" lon="-4.27022">
        <ele>86.656005859375</ele>
        <time>2014-01-11T12:51:32Z</time>
      </trkpt>
      <trkpt lat="47.98603" lon="-4.27015">
        <ele>90.020629882812</ele>
        <time>2014-01-11T12:51:38Z</time>
      </trkpt>
      <trkpt lat="47.98607" lon="-4.27009">
        <ele>92.423950195312</ele>
        <time>2014-01-11T12:51:42Z</time>
      </trkpt>
      <trkpt lat="47.9861" lon="-4.27004">
        <ele>95.307739257812</ele>
        <time>2014-01-11T12:51:46Z</time>
      </trkpt>
      <trkpt lat="47.9861" lon="-4.26998">
        <ele>93.865844726562</ele>
        <time>2014-01-11T12:51:49Z</time>
      </trkpt>
      <trkpt lat="47.98613" lon="-4.26993">
        <ele>89.539916992188</ele>
        <time>2014-01-11T12:51:55Z</time>
      </trkpt>
      <trkpt lat="47.98614" lon="-4.26987">
        <ele>88.098022460938</ele>
        <time>2014-01-11T12:52:00Z</time>
      </trkpt>
      <trkpt lat="47.98614" lon="-4.26978">
        <ele>86.17529296875</ele>
        <time>2014-01-11T12:52:07Z</time>
      </trkpt>
      <trkpt lat="47.98621" lon="-4.2697">
        <ele>93.385131835938</ele>
        <time>2014-01-11T12:52:12Z</time>
      </trkpt>
      <trkpt lat="47.98624" lon="-4.26963">
        <ele>93.865844726562</ele>
        <time>2014-01-11T12:52:17Z</time>
      </trkpt>
      <trkpt lat="47.98631" lon="-4.26956">
        <ele>98.19189453125</ele>
        <time>2014-01-11T12:52:23Z</time>
      </trkpt>
      <trkpt lat="47.98631" lon="-4.26954">
        <ele>98.672485351562</ele>
        <time>2014-01-11T12:52:24Z</time>
      </trkpt>
      <trkpt lat="47.98635" lon="-4.26946">
        <ele>99.6337890625</ele>
        <time>2014-01-11T12:52:30Z</time>
      </trkpt>
      <trkpt lat="47.98635" lon="-4.26942">
        <ele>99.153076171875</ele>
        <time>2014-01-11T12:52:33Z</time>
      </trkpt>
      <trkpt lat="47.98638" lon="-4.26936">
        <ele>98.672485351562</ele>
        <time>2014-01-11T12:52:38Z</time>
      </trkpt>
      <trkpt lat="47.98638" lon="-4.26934">
        <ele>98.19189453125</ele>
        <time>2014-01-11T12:52:39Z</time>
      </trkpt>
      <trkpt lat="47.98639" lon="-4.26931">
        <ele>98.672485351562</ele>
        <time>2014-01-11T12:52:41Z</time>
      </trkpt>
      <trkpt lat="47.98644" lon="-4.26925">
        <ele>99.6337890625</ele>
        <time>2014-01-11T12:52:46Z</time>
      </trkpt>
      <trkpt lat="47.9865" lon="-4.26919">
        <ele>104.92102050781</ele>
        <time>2014-01-11T12:52:51Z</time>
      </trkpt>
      <trkpt lat="47.98656" lon="-4.26915">
        <ele>102.51770019531</ele>
        <time>2014-01-11T12:52:56Z</time>
      </trkpt>
      <trkpt lat="47.9866" lon="-4.26909">
        <ele>102.51770019531</ele>
        <time>2014-01-11T12:53:01Z</time>
      </trkpt>
      <trkpt lat="47.98662" lon="-4.26905">
        <ele>102.51770019531</ele>
        <time>2014-01-11T12:53:05Z</time>
      </trkpt>
      <trkpt lat="47.98665" lon="-4.26902">
        <ele>100.59509277344</ele>
        <time>2014-01-11T12:53:08Z</time>
      </trkpt>
      <trkpt lat="47.98672" lon="-4.26894">
        <ele>99.6337890625</ele>
        <time>2014-01-11T12:53:15Z</time>
      </trkpt>
      <trkpt lat="47.98678" lon="-4.26888">
        <ele>94.346557617188</ele>
        <time>2014-01-11T12:53:21Z</time>
      </trkpt>
      <trkpt lat="47.9868" lon="-4.26885">
        <ele>94.346557617188</ele>
        <time>2014-01-11T12:53:23Z</time>
      </trkpt>
      <trkpt lat="47.98685" lon="-4.26878">
        <ele>93.385131835938</ele>
        <time>2014-01-11T12:53:29Z</time>
      </trkpt>
      <trkpt lat="47.9869" lon="-4.2687">
        <ele>94.346557617188</ele>
        <time>2014-01-11T12:53:35Z</time>
      </trkpt>
      <trkpt lat="47.98696" lon="-4.26862">
        <ele>94.8271484375</ele>
        <time>2014-01-11T12:53:41Z</time>
      </trkpt>
      <trkpt lat="47.98699" lon="-4.26857">
        <ele>99.6337890625</ele>
        <time>2014-01-11T12:53:46Z</time>
      </trkpt>
      <trkpt lat="47.98702" lon="-4.26853">
        <ele>104.92102050781</ele>
        <time>2014-01-11T12:53:54Z</time>
      </trkpt>
      <trkpt lat="47.98707" lon="-4.26843">
        <ele>103.95971679688</ele>
        <time>2014-01-11T12:54:01Z</time>
      </trkpt>
      <trkpt lat="47.98711" lon="-4.26839">
        <ele>102.99829101562</ele>
        <time>2014-01-11T12:54:07Z</time>
      </trkpt>
      <trkpt lat="47.98711" lon="-4.26838">
        <ele>103.95971679688</ele>
        <time>2014-01-11T12:54:08Z</time>
      </trkpt>
      <trkpt lat="47.98716" lon="-4.26837">
        <ele>104.92102050781</ele>
        <time>2014-01-11T12:54:13Z</time>
      </trkpt>
      <trkpt lat="47.9872" lon="-4.26839">
        <ele>106.84362792969</ele>
        <time>2014-01-11T12:54:16Z</time>
      </trkpt>
      <trkpt lat="47.98722" lon="-4.26843">
        <ele>105.88244628906</ele>
        <time>2014-01-11T12:54:19Z</time>
      </trkpt>
      <trkpt lat="47.98729" lon="-4.26846">
        <ele>100.59509277344</ele>
        <time>2014-01-11T12:54:25Z</time>
      </trkpt>
      <trkpt lat="47.98736" lon="-4.26847">
        <ele>101.07568359375</ele>
        <time>2014-01-11T12:54:31Z</time>
      </trkpt>
      <trkpt lat="47.98737" lon="-4.26847">
        <ele>102.037109375</ele>
        <time>2014-01-11T12:54:33Z</time>
      </trkpt>
      <trkpt lat="47.98747" lon="-4.26851">
        <ele>104.4404296875</ele>
        <time>2014-01-11T12:54:39Z</time>
      </trkpt>
      <trkpt lat="47.98754" lon="-4.26857">
        <ele>105.40173339844</ele>
        <time>2014-01-11T12:54:45Z</time>
      </trkpt>
      <trkpt lat="47.98757" lon="-4.26859">
        <ele>107.80505371094</ele>
        <time>2014-01-11T12:54:47Z</time>
      </trkpt>
      <trkpt lat="47.98762" lon="-4.26864">
        <ele>108.28564453125</ele>
        <time>2014-01-11T12:54:52Z</time>
      </trkpt>
      <trkpt lat="47.98767" lon="-4.26865">
        <ele>109.24694824219</ele>
        <time>2014-01-11T12:54:56Z</time>
      </trkpt>
      <trkpt lat="47.98776" lon="-4.26868">
        <ele>105.88244628906</ele>
        <time>2014-01-11T12:55:02Z</time>
      </trkpt>
      <trkpt lat="47.98781" lon="-4.26872">
        <ele>105.40173339844</ele>
        <time>2014-01-11T12:55:06Z</time>
      </trkpt>
      <trkpt lat="47.98786" lon="-4.26875">
        <ele>108.28564453125</ele>
        <time>2014-01-11T12:55:11Z</time>
      </trkpt>
      <trkpt lat="47.98788" lon="-4.26877">
        <ele>108.76623535156</ele>
        <time>2014-01-11T12:55:13Z</time>
      </trkpt>
      <trkpt lat="47.98797" lon="-4.26879">
        <ele>106.36303710938</ele>
        <time>2014-01-11T12:55:19Z</time>
      </trkpt>
      <trkpt lat="47.98803" lon="-4.2688">
        <ele>105.40173339844</ele>
        <time>2014-01-11T12:55:24Z</time>
      </trkpt>
      <trkpt lat="47.98806" lon="-4.26878">
        <ele>102.51770019531</ele>
        <time>2014-01-11T12:55:29Z</time>
      </trkpt>
      <trkpt lat="47.9881" lon="-4.26878">
        <ele>100.11450195312</ele>
        <time>2014-01-11T12:55:34Z</time>
      </trkpt>
      <trkpt lat="47.98815" lon="-4.26882">
        <ele>109.72766113281</ele>
        <time>2014-01-11T12:55:47Z</time>
      </trkpt>
      <trkpt lat="47.98823" lon="-4.26885">
        <ele>109.72766113281</ele>
        <time>2014-01-11T12:55:54Z</time>
      </trkpt>
      <trkpt lat="47.98828" lon="-4.26887">
        <ele>110.68884277344</ele>
        <time>2014-01-11T12:56:00Z</time>
      </trkpt>
      <trkpt lat="47.98836" lon="-4.26888">
        <ele>110.20825195312</ele>
        <time>2014-01-11T12:56:05Z</time>
      </trkpt>
      <trkpt lat="47.98844" lon="-4.26891">
        <ele>112.61157226562</ele>
        <time>2014-01-11T12:56:12Z</time>
      </trkpt>
      <trkpt lat="47.98849" lon="-4.26892">
        <ele>112.13098144531</ele>
        <time>2014-01-11T12:56:17Z</time>
      </trkpt>
      <trkpt lat="47.98855" lon="-4.26896">
        <ele>114.05358886719</ele>
        <time>2014-01-11T12:56:23Z</time>
      </trkpt>
      <trkpt lat="47.98861" lon="-4.26898">
        <ele>110.68884277344</ele>
        <time>2014-01-11T12:56:27Z</time>
      </trkpt>
      <trkpt lat="47.98865" lon="-4.26902">
        <ele>111.16955566406</ele>
        <time>2014-01-11T12:56:32Z</time>
      </trkpt>
      <trkpt lat="47.98869" lon="-4.26905">
        <ele>110.68884277344</ele>
        <time>2014-01-11T12:56:35Z</time>
      </trkpt>
      <trkpt lat="47.98877" lon="-4.26908">
        <ele>109.24694824219</ele>
        <time>2014-01-11T12:56:42Z</time>
      </trkpt>
      <trkpt lat="47.98885" lon="-4.26916">
        <ele>113.57299804688</ele>
        <time>2014-01-11T12:56:48Z</time>
      </trkpt>
      <trkpt lat="47.98891" lon="-4.2692">
        <ele>113.09228515625</ele>
        <time>2014-01-11T12:56:53Z</time>
      </trkpt>
      <trkpt lat="47.98899" lon="-4.26922">
        <ele>111.16955566406</ele>
        <time>2014-01-11T12:56:58Z</time>
      </trkpt>
      <trkpt lat="47.98903" lon="-4.26922">
        <ele>108.76623535156</ele>
        <time>2014-01-11T12:57:03Z</time>
      </trkpt>
      <trkpt lat="47.98908" lon="-4.26931">
        <ele>119.82141113281</ele>
        <time>2014-01-11T12:57:23Z</time>
      </trkpt>
      <trkpt lat="47.98903" lon="-4.2693">
        <ele>117.89880371094</ele>
        <time>2014-01-11T12:57:31Z</time>
      </trkpt>
      <trkpt lat="47.98902" lon="-4.26929">
        <ele>115.97619628906</ele>
        <time>2014-01-11T12:57:35Z</time>
      </trkpt>
      <trkpt lat="47.98909" lon="-4.26929">
        <ele>111.16955566406</ele>
        <time>2014-01-11T12:57:42Z</time>
      </trkpt>
      <trkpt lat="47.98915" lon="-4.26931">
        <ele>107.32434082031</ele>
        <time>2014-01-11T12:57:47Z</time>
      </trkpt>
      <trkpt lat="47.98916" lon="-4.26931">
        <ele>106.36303710938</ele>
        <time>2014-01-11T12:57:48Z</time>
      </trkpt>
      <trkpt lat="47.98922" lon="-4.26926">
        <ele>105.88244628906</ele>
        <time>2014-01-11T12:57:53Z</time>
      </trkpt>
      <trkpt lat="47.98926" lon="-4.26925">
        <ele>109.72766113281</ele>
        <time>2014-01-11T12:57:56Z</time>
      </trkpt>
      <trkpt lat="47.98929" lon="-4.26917">
        <ele>106.36303710938</ele>
        <time>2014-01-11T12:58:01Z</time>
      </trkpt>
      <trkpt lat="47.98928" lon="-4.26908">
        <ele>105.88244628906</ele>
        <time>2014-01-11T12:58:06Z</time>
      </trkpt>
      <trkpt lat="47.9893" lon="-4.26896">
        <ele>102.037109375</ele>
        <time>2014-01-11T12:58:12Z</time>
      </trkpt>
      <trkpt lat="47.98931" lon="-4.26884">
        <ele>102.99829101562</ele>
        <time>2014-01-11T12:58:19Z</time>
      </trkpt>
      <trkpt lat="47.9893" lon="-4.26876">
        <ele>101.55639648438</ele>
        <time>2014-01-11T12:58:23Z</time>
      </trkpt>
      <trkpt lat="47.98932" lon="-4.2687">
        <ele>103.47900390625</ele>
        <time>2014-01-11T12:58:27Z</time>
      </trkpt>
      <trkpt lat="47.98935" lon="-4.26859">
        <ele>105.88244628906</ele>
        <time>2014-01-11T12:58:33Z</time>
      </trkpt>
      <trkpt lat="47.98936" lon="-4.26852">
        <ele>110.20825195312</ele>
        <time>2014-01-11T12:58:38Z</time>
      </trkpt>
      <trkpt lat="47.98937" lon="-4.26847">
        <ele>110.68884277344</ele>
        <time>2014-01-11T12:58:41Z</time>
      </trkpt>
      <trkpt lat="47.98935" lon="-4.26842">
        <ele>110.68884277344</ele>
        <time>2014-01-11T12:58:44Z</time>
      </trkpt>
      <trkpt lat="47.98934" lon="-4.26836">
        <ele>112.61157226562</ele>
        <time>2014-01-11T12:58:47Z</time>
      </trkpt>
      <trkpt lat="47.98931" lon="-4.26824">
        <ele>113.09228515625</ele>
        <time>2014-01-11T12:58:53Z</time>
      </trkpt>
      <trkpt lat="47.98931" lon="-4.26817">
        <ele>117.89880371094</ele>
        <time>2014-01-11T12:58:58Z</time>
      </trkpt>
      <trkpt lat="47.98932" lon="-4.26814">
        <ele>117.41821289062</ele>
        <time>2014-01-11T12:59:00Z</time>
      </trkpt>
      <trkpt lat="47.98932" lon="-4.26806">
        <ele>118.37939453125</ele>
        <time>2014-01-11T12:59:04Z</time>
      </trkpt>
      <trkpt lat="47.9893" lon="-4.26795">
        <ele>117.89880371094</ele>
        <time>2014-01-11T12:59:10Z</time>
      </trkpt>
      <trkpt lat="47.9893" lon="-4.26794">
        <ele>117.41821289062</ele>
        <time>2014-01-11T12:59:11Z</time>
      </trkpt>
      <trkpt lat="47.98931" lon="-4.26787">
        <ele>113.57299804688</ele>
        <time>2014-01-11T12:59:15Z</time>
      </trkpt>
      <trkpt lat="47.98931" lon="-4.26778">
        <ele>114.05358886719</ele>
        <time>2014-01-11T12:59:21Z</time>
      </trkpt>
      <trkpt lat="47.9893" lon="-4.26771">
        <ele>114.05358886719</ele>
        <time>2014-01-11T12:59:24Z</time>
      </trkpt>
      <trkpt lat="47.98931" lon="-4.26767">
        <ele>110.68884277344</ele>
        <time>2014-01-11T12:59:27Z</time>
      </trkpt>
      <trkpt lat="47.98931" lon="-4.26757">
        <ele>110.20825195312</ele>
        <time>2014-01-11T12:59:33Z</time>
      </trkpt>
      <trkpt lat="47.98931" lon="-4.26749">
        <ele>111.16955566406</ele>
        <time>2014-01-11T12:59:38Z</time>
      </trkpt>
      <trkpt lat="47.98932" lon="-4.26742">
        <ele>108.76623535156</ele>
        <time>2014-01-11T12:59:43Z</time>
      </trkpt>
      <trkpt lat="47.98933" lon="-4.26734">
        <ele>110.20825195312</ele>
        <time>2014-01-11T12:59:47Z</time>
      </trkpt>
      <trkpt lat="47.98935" lon="-4.26732">
        <ele>109.72766113281</ele>
        <time>2014-01-11T12:59:49Z</time>
      </trkpt>
      <trkpt lat="47.98935" lon="-4.26723">
        <ele>112.13098144531</ele>
        <time>2014-01-11T12:59:53Z</time>
      </trkpt>
      <trkpt lat="47.98935" lon="-4.26717">
        <ele>113.57299804688</ele>
        <time>2014-01-11T12:59:56Z</time>
      </trkpt>
      <trkpt lat="47.98939" lon="-4.26704">
        <ele>114.5341796875</ele>
        <time>2014-01-11T13:00:03Z</time>
      </trkpt>
      <trkpt lat="47.9894" lon="-4.26699">
        <ele>115.49560546875</ele>
        <time>2014-01-11T13:00:07Z</time>
      </trkpt>
      <trkpt lat="47.98942" lon="-4.26691">
        <ele>114.5341796875</ele>
        <time>2014-01-11T13:00:11Z</time>
      </trkpt>
      <trkpt lat="47.98943" lon="-4.26684">
        <ele>116.9375</ele>
        <time>2014-01-11T13:00:15Z</time>
      </trkpt>
      <trkpt lat="47.98944" lon="-4.26681">
        <ele>118.37939453125</ele>
        <time>2014-01-11T13:00:16Z</time>
      </trkpt>
      <trkpt lat="47.98945" lon="-4.26677">
        <ele>121.744140625</ele>
        <time>2014-01-11T13:00:18Z</time>
      </trkpt>
      <trkpt lat="47.98945" lon="-4.26667">
        <ele>123.18615722656</ele>
        <time>2014-01-11T13:00:23Z</time>
      </trkpt>
      <trkpt lat="47.98947" lon="-4.26657">
        <ele>122.70544433594</ele>
        <time>2014-01-11T13:00:29Z</time>
      </trkpt>
      <trkpt lat="47.98947" lon="-4.26648">
        <ele>120.30212402344</ele>
        <time>2014-01-11T13:00:34Z</time>
      </trkpt>
      <trkpt lat="47.98948" lon="-4.26637">
        <ele>117.41821289062</ele>
        <time>2014-01-11T13:00:41Z</time>
      </trkpt>
      <trkpt lat="47.9895" lon="-4.26629">
        <ele>115.97619628906</ele>
        <time>2014-01-11T13:00:46Z</time>
      </trkpt>
      <trkpt lat="47.98949" lon="-4.26621">
        <ele>116.45678710938</ele>
        <time>2014-01-11T13:00:51Z</time>
      </trkpt>
      <trkpt lat="47.9895" lon="-4.26618">
        <ele>115.97619628906</ele>
        <time>2014-01-11T13:00:53Z</time>
      </trkpt>
      <trkpt lat="47.98952" lon="-4.2661">
        <ele>121.26354980469</ele>
        <time>2014-01-11T13:01:00Z</time>
      </trkpt>
      <trkpt lat="47.98955" lon="-4.26606">
        <ele>124.14733886719</ele>
        <time>2014-01-11T13:01:06Z</time>
      </trkpt>
      <trkpt lat="47.98957" lon="-4.26599">
        <ele>124.62805175781</ele>
        <time>2014-01-11T13:01:11Z</time>
      </trkpt>
      <trkpt lat="47.98961" lon="-4.26588">
        <ele>126.55065917969</ele>
        <time>2014-01-11T13:01:18Z</time>
      </trkpt>
      <trkpt lat="47.98966" lon="-4.26579">
        <ele>127.51196289062</ele>
        <time>2014-01-11T13:01:24Z</time>
      </trkpt>
      <trkpt lat="47.98971" lon="-4.26571">
        <ele>126.55065917969</ele>
        <time>2014-01-11T13:01:30Z</time>
      </trkpt>
      <trkpt lat="47.98974" lon="-4.26561">
        <ele>126.55065917969</ele>
        <time>2014-01-11T13:01:36Z</time>
      </trkpt>
      <trkpt lat="47.98977" lon="-4.26554">
        <ele>127.03137207031</ele>
        <time>2014-01-11T13:01:40Z</time>
      </trkpt>
      <trkpt lat="47.98979" lon="-4.26549">
        <ele>128.9541015625</ele>
        <time>2014-01-11T13:01:43Z</time>
      </trkpt>
      <trkpt lat="47.98982" lon="-4.26546">
        <ele>129.91528320312</ele>
        <time>2014-01-11T13:01:46Z</time>
      </trkpt>
      <trkpt lat="47.98985" lon="-4.2654">
        <ele>129.91528320312</ele>
        <time>2014-01-11T13:01:49Z</time>
      </trkpt>
      <trkpt lat="47.98988" lon="-4.26533">
        <ele>128.9541015625</ele>
        <time>2014-01-11T13:01:54Z</time>
      </trkpt>
      <trkpt lat="47.98993" lon="-4.26522">
        <ele>129.43469238281</ele>
        <time>2014-01-11T13:02:02Z</time>
      </trkpt>
      <trkpt lat="47.98998" lon="-4.26517">
        <ele>130.39599609375</ele>
        <time>2014-01-11T13:02:07Z</time>
      </trkpt>
      <trkpt lat="47.99002" lon="-4.26511">
        <ele>130.39599609375</ele>
        <time>2014-01-11T13:02:11Z</time>
      </trkpt>
      <trkpt lat="47.99007" lon="-4.26508">
        <ele>130.39599609375</ele>
        <time>2014-01-11T13:02:16Z</time>
      </trkpt>
      <trkpt lat="47.99008" lon="-4.26507">
        <ele>130.87670898438</ele>
        <time>2014-01-11T13:02:17Z</time>
      </trkpt>
      <trkpt lat="47.9901" lon="-4.26506">
        <ele>131.35729980469</ele>
        <time>2014-01-11T13:02:19Z</time>
      </trkpt>
      <trkpt lat="47.99016" lon="-4.26495">
        <ele>131.837890625</ele>
        <time>2014-01-11T13:02:26Z</time>
      </trkpt>
      <trkpt lat="47.99017" lon="-4.26492">
        <ele>131.35729980469</ele>
        <time>2014-01-11T13:02:28Z</time>
      </trkpt>
      <trkpt lat="47.99022" lon="-4.26487">
        <ele>132.79931640625</ele>
        <time>2014-01-11T13:02:33Z</time>
      </trkpt>
      <trkpt lat="47.99024" lon="-4.2648">
        <ele>131.837890625</ele>
        <time>2014-01-11T13:02:38Z</time>
      </trkpt>
      <trkpt lat="47.99026" lon="-4.26477">
        <ele>130.39599609375</ele>
        <time>2014-01-11T13:02:40Z</time>
      </trkpt>
      <trkpt lat="47.99029" lon="-4.26473">
        <ele>129.43469238281</ele>
        <time>2014-01-11T13:02:44Z</time>
      </trkpt>
      <trkpt lat="47.99038" lon="-4.2647">
        <ele>130.39599609375</ele>
        <time>2014-01-11T13:02:52Z</time>
      </trkpt>
      <trkpt lat="47.99046" lon="-4.26474">
        <ele>131.837890625</ele>
        <time>2014-01-11T13:02:59Z</time>
      </trkpt>
      <trkpt lat="47.99052" lon="-4.26479">
        <ele>131.35729980469</ele>
        <time>2014-01-11T13:03:04Z</time>
      </trkpt>
      <trkpt lat="47.99057" lon="-4.26485">
        <ele>132.31860351562</ele>
        <time>2014-01-11T13:03:09Z</time>
      </trkpt>
      <trkpt lat="47.9906" lon="-4.26487">
        <ele>131.837890625</ele>
        <time>2014-01-11T13:03:12Z</time>
      </trkpt>
      <trkpt lat="47.99069" lon="-4.26492">
        <ele>128.9541015625</ele>
        <time>2014-01-11T13:03:19Z</time>
      </trkpt>
      <trkpt lat="47.99071" lon="-4.26493">
        <ele>128.47338867188</ele>
        <time>2014-01-11T13:03:20Z</time>
      </trkpt>
      <trkpt lat="47.99074" lon="-4.26495">
        <ele>126.55065917969</ele>
        <time>2014-01-11T13:03:22Z</time>
      </trkpt>
      <trkpt lat="47.99079" lon="-4.26503">
        <ele>125.10876464844</ele>
        <time>2014-01-11T13:03:28Z</time>
      </trkpt>
      <trkpt lat="47.99082" lon="-4.26506">
        <ele>124.62805175781</ele>
        <time>2014-01-11T13:03:31Z</time>
      </trkpt>
      <trkpt lat="47.99089" lon="-4.26514">
        <ele>121.26354980469</ele>
        <time>2014-01-11T13:03:38Z</time>
      </trkpt>
      <trkpt lat="47.99094" lon="-4.2652">
        <ele>120.30212402344</ele>
        <time>2014-01-11T13:03:43Z</time>
      </trkpt>
      <trkpt lat="47.99098" lon="-4.26521">
        <ele>120.78283691406</ele>
        <time>2014-01-11T13:03:45Z</time>
      </trkpt>
      <trkpt lat="47.99108" lon="-4.2653">
        <ele>120.30212402344</ele>
        <time>2014-01-11T13:03:53Z</time>
      </trkpt>
      <trkpt lat="47.99121" lon="-4.26539">
        <ele>121.26354980469</ele>
        <time>2014-01-11T13:04:03Z</time>
      </trkpt>
      <trkpt lat="47.9913" lon="-4.26546">
        <ele>121.26354980469</ele>
        <time>2014-01-11T13:04:11Z</time>
      </trkpt>
      <trkpt lat="47.99139" lon="-4.26553">
        <ele>120.78283691406</ele>
        <time>2014-01-11T13:04:18Z</time>
      </trkpt>
      <trkpt lat="47.99148" lon="-4.26558">
        <ele>118.37939453125</ele>
        <time>2014-01-11T13:04:24Z</time>
      </trkpt>
      <trkpt lat="47.99156" lon="-4.26563">
        <ele>117.41821289062</ele>
        <time>2014-01-11T13:04:31Z</time>
      </trkpt>
      <trkpt lat="47.99164" lon="-4.26564">
        <ele>117.41821289062</ele>
        <time>2014-01-11T13:04:38Z</time>
      </trkpt>
      <trkpt lat="47.99167" lon="-4.26559">
        <ele>117.89880371094</ele>
        <time>2014-01-11T13:04:43Z</time>
      </trkpt>
      <trkpt lat="47.9917" lon="-4.26548">
        <ele>119.82141113281</ele>
        <time>2014-01-11T13:04:50Z</time>
      </trkpt>
      <trkpt lat="47.99174" lon="-4.26537">
        <ele>121.26354980469</ele>
        <time>2014-01-11T13:04:56Z</time>
      </trkpt>
      <trkpt lat="47.99177" lon="-4.26526">
        <ele>121.744140625</ele>
        <time>2014-01-11T13:05:02Z</time>
      </trkpt>
      <trkpt lat="47.99178" lon="-4.26524">
        <ele>122.70544433594</ele>
        <time>2014-01-11T13:05:03Z</time>
      </trkpt>
      <trkpt lat="47.99178" lon="-4.26511">
        <ele>122.22473144531</ele>
        <time>2014-01-11T13:05:10Z</time>
      </trkpt>
      <trkpt lat="47.9918" lon="-4.26503">
        <ele>122.22473144531</ele>
        <time>2014-01-11T13:05:15Z</time>
      </trkpt>
      <trkpt lat="47.99183" lon="-4.26492">
        <ele>123.18615722656</ele>
        <time>2014-01-11T13:05:22Z</time>
      </trkpt>
      <trkpt lat="47.99183" lon="-4.2649">
        <ele>123.18615722656</ele>
        <time>2014-01-11T13:05:23Z</time>
      </trkpt>
      <trkpt lat="47.99185" lon="-4.2648">
        <ele>122.22473144531</ele>
        <time>2014-01-11T13:05:29Z</time>
      </trkpt>
      <trkpt lat="47.99189" lon="-4.2647">
        <ele>121.26354980469</ele>
        <time>2014-01-11T13:05:35Z</time>
      </trkpt>
      <trkpt lat="47.99189" lon="-4.26456">
        <ele>116.45678710938</ele>
        <time>2014-01-11T13:05:42Z</time>
      </trkpt>
      <trkpt lat="47.9919" lon="-4.26448">
        <ele>116.9375</ele>
        <time>2014-01-11T13:05:46Z</time>
      </trkpt>
      <trkpt lat="47.99196" lon="-4.26434">
        <ele>118.86010742188</ele>
        <time>2014-01-11T13:05:54Z</time>
      </trkpt>
      <trkpt lat="47.99197" lon="-4.26433">
        <ele>119.3408203125</ele>
        <time>2014-01-11T13:05:55Z</time>
      </trkpt>
      <trkpt lat="47.99203" lon="-4.26422">
        <ele>122.70544433594</ele>
        <time>2014-01-11T13:06:02Z</time>
      </trkpt>
      <trkpt lat="47.99211" lon="-4.26408">
        <ele>125.58935546875</ele>
        <time>2014-01-11T13:06:10Z</time>
      </trkpt>
      <trkpt lat="47.99214" lon="-4.26396">
        <ele>124.14733886719</ele>
        <time>2014-01-11T13:06:16Z</time>
      </trkpt>
      <trkpt lat="47.99215" lon="-4.26388">
        <ele>123.66674804688</ele>
        <time>2014-01-11T13:06:20Z</time>
      </trkpt>
      <trkpt lat="47.99218" lon="-4.26382">
        <ele>124.62805175781</ele>
        <time>2014-01-11T13:06:24Z</time>
      </trkpt>
      <trkpt lat="47.99223" lon="-4.26367">
        <ele>125.10876464844</ele>
        <time>2014-01-11T13:06:32Z</time>
      </trkpt>
      <trkpt lat="47.99227" lon="-4.26357">
        <ele>124.62805175781</ele>
        <time>2014-01-11T13:06:38Z</time>
      </trkpt>
      <trkpt lat="47.99229" lon="-4.26351">
        <ele>124.14733886719</ele>
        <time>2014-01-11T13:06:42Z</time>
      </trkpt>
      <trkpt lat="47.99236" lon="-4.26334">
        <ele>125.10876464844</ele>
        <time>2014-01-11T13:06:52Z</time>
      </trkpt>
      <trkpt lat="47.9924" lon="-4.26326">
        <ele>124.14733886719</ele>
        <time>2014-01-11T13:06:57Z</time>
      </trkpt>
      <trkpt lat="47.99247" lon="-4.26315">
        <ele>124.62805175781</ele>
        <time>2014-01-11T13:07:04Z</time>
      </trkpt>
      <trkpt lat="47.99251" lon="-4.26301">
        <ele>124.14733886719</ele>
        <time>2014-01-11T13:07:12Z</time>
      </trkpt>
      <trkpt lat="47.99258" lon="-4.26289">
        <ele>125.10876464844</ele>
        <time>2014-01-11T13:07:19Z</time>
      </trkpt>
      <trkpt lat="47.99263" lon="-4.26276">
        <ele>127.99255371094</ele>
        <time>2014-01-11T13:07:27Z</time>
      </trkpt>
      <trkpt lat="47.99269" lon="-4.26263">
        <ele>130.39599609375</ele>
        <time>2014-01-11T13:07:35Z</time>
      </trkpt>
      <trkpt lat="47.99272" lon="-4.26257">
        <ele>131.837890625</ele>
        <time>2014-01-11T13:07:39Z</time>
      </trkpt>
      <trkpt lat="47.99276" lon="-4.26247">
        <ele>132.31860351562</ele>
        <time>2014-01-11T13:07:45Z</time>
      </trkpt>
      <trkpt lat="47.99282" lon="-4.26237">
        <ele>134.2412109375</ele>
        <time>2014-01-11T13:07:52Z</time>
      </trkpt>
      <trkpt lat="47.99287" lon="-4.26226">
        <ele>136.16394042969</ele>
        <time>2014-01-11T13:07:58Z</time>
      </trkpt>
      <trkpt lat="47.99289" lon="-4.26208">
        <ele>127.51196289062</ele>
        <time>2014-01-11T13:08:08Z</time>
      </trkpt>
      <trkpt lat="47.99294" lon="-4.26197">
        <ele>126.06994628906</ele>
        <time>2014-01-11T13:08:15Z</time>
      </trkpt>
      <trkpt lat="47.99298" lon="-4.26187">
        <ele>125.10876464844</ele>
        <time>2014-01-11T13:08:21Z</time>
      </trkpt>
      <trkpt lat="47.99302" lon="-4.26174">
        <ele>126.55065917969</ele>
        <time>2014-01-11T13:08:28Z</time>
      </trkpt>
      <trkpt lat="47.99305" lon="-4.26168">
        <ele>127.99255371094</ele>
        <time>2014-01-11T13:08:32Z</time>
      </trkpt>
      <trkpt lat="47.99311" lon="-4.26155">
        <ele>130.87670898438</ele>
        <time>2014-01-11T13:08:40Z</time>
      </trkpt>
      <trkpt lat="47.99315" lon="-4.26144">
        <ele>132.31860351562</ele>
        <time>2014-01-11T13:08:46Z</time>
      </trkpt>
      <trkpt lat="47.99321" lon="-4.26133">
        <ele>135.68310546875</ele>
        <time>2014-01-11T13:08:53Z</time>
      </trkpt>
      <trkpt lat="47.99329" lon="-4.26121">
        <ele>136.16394042969</ele>
        <time>2014-01-11T13:09:00Z</time>
      </trkpt>
      <trkpt lat="47.99334" lon="-4.26108">
        <ele>136.64465332031</ele>
        <time>2014-01-11T13:09:07Z</time>
      </trkpt>
      <trkpt lat="47.99338" lon="-4.26097">
        <ele>135.68310546875</ele>
        <time>2014-01-11T13:09:13Z</time>
      </trkpt>
      <trkpt lat="47.99342" lon="-4.26085">
        <ele>135.68310546875</ele>
        <time>2014-01-11T13:09:20Z</time>
      </trkpt>
      <trkpt lat="47.99345" lon="-4.26078">
        <ele>135.68310546875</ele>
        <time>2014-01-11T13:09:24Z</time>
      </trkpt>
      <trkpt lat="47.99348" lon="-4.26068">
        <ele>134.2412109375</ele>
        <time>2014-01-11T13:09:30Z</time>
      </trkpt>
      <trkpt lat="47.99348" lon="-4.26056">
        <ele>132.31860351562</ele>
        <time>2014-01-11T13:09:36Z</time>
      </trkpt>
      <trkpt lat="47.99347" lon="-4.26047">
        <ele>130.87670898438</ele>
        <time>2014-01-11T13:09:41Z</time>
      </trkpt>
      <trkpt lat="47.99347" lon="-4.26046">
        <ele>129.91528320312</ele>
        <time>2014-01-11T13:09:42Z</time>
      </trkpt>
      <trkpt lat="47.99346" lon="-4.26038">
        <ele>127.03137207031</ele>
        <time>2014-01-11T13:09:47Z</time>
      </trkpt>
      <trkpt lat="47.99346" lon="-4.26036">
        <ele>126.55065917969</ele>
        <time>2014-01-11T13:09:48Z</time>
      </trkpt>
      <trkpt lat="47.99345" lon="-4.26033">
        <ele>126.06994628906</ele>
        <time>2014-01-11T13:09:50Z</time>
      </trkpt>
      <trkpt lat="47.99345" lon="-4.26032">
        <ele>124.62805175781</ele>
        <time>2014-01-11T13:09:55Z</time>
      </trkpt>
      <trkpt lat="47.99345" lon="-4.26033">
        <ele>124.62805175781</ele>
        <time>2014-01-11T13:10:04Z</time>
      </trkpt>
      <trkpt lat="47.99344" lon="-4.26033">
        <ele>124.14733886719</ele>
        <time>2014-01-11T13:10:09Z</time>
      </trkpt>
      <trkpt lat="47.99344" lon="-4.2603">
        <ele>124.62805175781</ele>
        <time>2014-01-11T13:10:14Z</time>
      </trkpt>
      <trkpt lat="47.99344" lon="-4.26026">
        <ele>124.14733886719</ele>
        <time>2014-01-11T13:10:16Z</time>
      </trkpt>
      <trkpt lat="47.99344" lon="-4.26015">
        <ele>124.14733886719</ele>
        <time>2014-01-11T13:10:21Z</time>
      </trkpt>
      <trkpt lat="47.99346" lon="-4.26002">
        <ele>122.70544433594</ele>
        <time>2014-01-11T13:10:28Z</time>
      </trkpt>
      <trkpt lat="47.99347" lon="-4.25999">
        <ele>123.18615722656</ele>
        <time>2014-01-11T13:10:30Z</time>
      </trkpt>
      <trkpt lat="47.99349" lon="-4.2599">
        <ele>123.66674804688</ele>
        <time>2014-01-11T13:10:35Z</time>
      </trkpt>
      <trkpt lat="47.99348" lon="-4.25986">
        <ele>122.70544433594</ele>
        <time>2014-01-11T13:10:37Z</time>
      </trkpt>
      <trkpt lat="47.99349" lon="-4.25978">
        <ele>123.66674804688</ele>
        <time>2014-01-11T13:10:42Z</time>
      </trkpt>
      <trkpt lat="47.99348" lon="-4.25965">
        <ele>123.18615722656</ele>
        <time>2014-01-11T13:10:48Z</time>
      </trkpt>
      <trkpt lat="47.9935" lon="-4.25959">
        <ele>122.70544433594</ele>
        <time>2014-01-11T13:10:51Z</time>
      </trkpt>
      <trkpt lat="47.9935" lon="-4.2595">
        <ele>122.70544433594</ele>
        <time>2014-01-11T13:10:56Z</time>
      </trkpt>
      <trkpt lat="47.9935" lon="-4.25937">
        <ele>124.62805175781</ele>
        <time>2014-01-11T13:11:02Z</time>
      </trkpt>
      <trkpt lat="47.99351" lon="-4.25931">
        <ele>126.55065917969</ele>
        <time>2014-01-11T13:11:05Z</time>
      </trkpt>
      <trkpt lat="47.99351" lon="-4.25927">
        <ele>126.55065917969</ele>
        <time>2014-01-11T13:11:07Z</time>
      </trkpt>
      <trkpt lat="47.9935" lon="-4.25915">
        <ele>129.43469238281</ele>
        <time>2014-01-11T13:11:13Z</time>
      </trkpt>
      <trkpt lat="47.99352" lon="-4.25904">
        <ele>129.43469238281</ele>
        <time>2014-01-11T13:11:18Z</time>
      </trkpt>
      <trkpt lat="47.99353" lon="-4.25888">
        <ele>128.47338867188</ele>
        <time>2014-01-11T13:11:26Z</time>
      </trkpt>
      <trkpt lat="47.99354" lon="-4.25883">
        <ele>128.9541015625</ele>
        <time>2014-01-11T13:11:29Z</time>
      </trkpt>
      <trkpt lat="47.99355" lon="-4.25875">
        <ele>129.43469238281</ele>
        <time>2014-01-11T13:11:33Z</time>
      </trkpt>
      <trkpt lat="47.99353" lon="-4.25861">
        <ele>127.03137207031</ele>
        <time>2014-01-11T13:11:41Z</time>
      </trkpt>
      <trkpt lat="47.99352" lon="-4.25858">
        <ele>125.58935546875</ele>
        <time>2014-01-11T13:11:43Z</time>
      </trkpt>
      <trkpt lat="47.99349" lon="-4.25846">
        <ele>126.06994628906</ele>
        <time>2014-01-11T13:11:49Z</time>
      </trkpt>
      <trkpt lat="47.99347" lon="-4.25843">
        <ele>127.03137207031</ele>
        <time>2014-01-11T13:11:51Z</time>
      </trkpt>
      <trkpt lat="47.99348" lon="-4.25833">
        <ele>127.51196289062</ele>
        <time>2014-01-11T13:11:56Z</time>
      </trkpt>
      <trkpt lat="47.99346" lon="-4.25824">
        <ele>127.03137207031</ele>
        <time>2014-01-11T13:12:01Z</time>
      </trkpt>
      <trkpt lat="47.99345" lon="-4.2582">
        <ele>127.51196289062</ele>
        <time>2014-01-11T13:12:03Z</time>
      </trkpt>
      <trkpt lat="47.99343" lon="-4.25813">
        <ele>128.47338867188</ele>
        <time>2014-01-11T13:12:08Z</time>
      </trkpt>
      <trkpt lat="47.99343" lon="-4.25797">
        <ele>126.06994628906</ele>
        <time>2014-01-11T13:12:15Z</time>
      </trkpt>
      <trkpt lat="47.99341" lon="-4.25791">
        <ele>127.51196289062</ele>
        <time>2014-01-11T13:12:19Z</time>
      </trkpt>
      <trkpt lat="47.99339" lon="-4.2578">
        <ele>127.51196289062</ele>
        <time>2014-01-11T13:12:24Z</time>
      </trkpt>
      <trkpt lat="47.99341" lon="-4.2577">
        <ele>125.10876464844</ele>
        <time>2014-01-11T13:12:29Z</time>
      </trkpt>
      <trkpt lat="47.99337" lon="-4.25759">
        <ele>121.744140625</ele>
        <time>2014-01-11T13:12:35Z</time>
      </trkpt>
      <trkpt lat="47.99337" lon="-4.25754">
        <ele>123.66674804688</ele>
        <time>2014-01-11T13:12:38Z</time>
      </trkpt>
      <trkpt lat="47.99339" lon="-4.2575">
        <ele>124.14733886719</ele>
        <time>2014-01-11T13:12:40Z</time>
      </trkpt>
      <trkpt lat="47.99339" lon="-4.2574">
        <ele>122.22473144531</ele>
        <time>2014-01-11T13:12:45Z</time>
      </trkpt>
      <trkpt lat="47.99339" lon="-4.25738">
        <ele>122.22473144531</ele>
        <time>2014-01-11T13:12:46Z</time>
      </trkpt>
      <trkpt lat="47.9934" lon="-4.25731">
        <ele>126.06994628906</ele>
        <time>2014-01-11T13:12:51Z</time>
      </trkpt>
      <trkpt lat="47.99339" lon="-4.25723">
        <ele>127.51196289062</ele>
        <time>2014-01-11T13:12:56Z</time>
      </trkpt>
      <trkpt lat="47.99336" lon="-4.25714">
        <ele>127.51196289062</ele>
        <time>2014-01-11T13:13:01Z</time>
      </trkpt>
      <trkpt lat="47.99336" lon="-4.25711">
        <ele>127.99255371094</ele>
        <time>2014-01-11T13:13:03Z</time>
      </trkpt>
      <trkpt lat="47.99337" lon="-4.25702">
        <ele>132.79931640625</ele>
        <time>2014-01-11T13:13:08Z</time>
      </trkpt>
      <trkpt lat="47.99337" lon="-4.25696">
        <ele>131.837890625</ele>
        <time>2014-01-11T13:13:12Z</time>
      </trkpt>
      <trkpt lat="47.99336" lon="-4.25684">
        <ele>130.87670898438</ele>
        <time>2014-01-11T13:13:19Z</time>
      </trkpt>
      <trkpt lat="47.99337" lon="-4.25675">
        <ele>130.87670898438</ele>
        <time>2014-01-11T13:13:24Z</time>
      </trkpt>
      <trkpt lat="47.99337" lon="-4.25671">
        <ele>131.35729980469</ele>
        <time>2014-01-11T13:13:27Z</time>
      </trkpt>
      <trkpt lat="47.99336" lon="-4.2566">
        <ele>130.87670898438</ele>
        <time>2014-01-11T13:13:33Z</time>
      </trkpt>
      <trkpt lat="47.99335" lon="-4.25652">
        <ele>131.35729980469</ele>
        <time>2014-01-11T13:13:38Z</time>
      </trkpt>
      <trkpt lat="47.99335" lon="-4.25645">
        <ele>132.79931640625</ele>
        <time>2014-01-11T13:13:42Z</time>
      </trkpt>
      <trkpt lat="47.99336" lon="-4.25635">
        <ele>134.2412109375</ele>
        <time>2014-01-11T13:13:48Z</time>
      </trkpt>
      <trkpt lat="47.99337" lon="-4.2563">
        <ele>134.72192382812</ele>
        <time>2014-01-11T13:13:50Z</time>
      </trkpt>
      <trkpt lat="47.99336" lon="-4.25626">
        <ele>135.68310546875</ele>
        <time>2014-01-11T13:13:52Z</time>
      </trkpt>
      <trkpt lat="47.99336" lon="-4.25615">
        <ele>135.68310546875</ele>
        <time>2014-01-11T13:13:59Z</time>
      </trkpt>
      <trkpt lat="47.99336" lon="-4.25607">
        <ele>135.68310546875</ele>
        <time>2014-01-11T13:14:04Z</time>
      </trkpt>
      <trkpt lat="47.99336" lon="-4.25597">
        <ele>134.72192382812</ele>
        <time>2014-01-11T13:14:09Z</time>
      </trkpt>
      <trkpt lat="47.99337" lon="-4.25594">
        <ele>135.20251464844</ele>
        <time>2014-01-11T13:14:12Z</time>
      </trkpt>
      <trkpt lat="47.99342" lon="-4.25585">
        <ele>138.08654785156</ele>
        <time>2014-01-11T13:14:17Z</time>
      </trkpt>
      <trkpt lat="47.99341" lon="-4.25577">
        <ele>137.60583496094</ele>
        <time>2014-01-11T13:14:21Z</time>
      </trkpt>
      <trkpt lat="47.99341" lon="-4.25564">
        <ele>135.68310546875</ele>
        <time>2014-01-11T13:14:28Z</time>
      </trkpt>
      <trkpt lat="47.99341" lon="-4.25561">
        <ele>136.16394042969</ele>
        <time>2014-01-11T13:14:30Z</time>
      </trkpt>
      <trkpt lat="47.99342" lon="-4.25548">
        <ele>136.16394042969</ele>
        <time>2014-01-11T13:14:37Z</time>
      </trkpt>
      <trkpt lat="47.99342" lon="-4.25535">
        <ele>136.16394042969</ele>
        <time>2014-01-11T13:14:43Z</time>
      </trkpt>
      <trkpt lat="47.99342" lon="-4.25523">
        <ele>137.12524414062</ele>
        <time>2014-01-11T13:14:49Z</time>
      </trkpt>
      <trkpt lat="47.99342" lon="-4.25519">
        <ele>137.12524414062</ele>
        <time>2014-01-11T13:14:51Z</time>
      </trkpt>
      <trkpt lat="47.99343" lon="-4.25511">
        <ele>137.60583496094</ele>
        <time>2014-01-11T13:14:56Z</time>
      </trkpt>
      <trkpt lat="47.99344" lon="-4.25502">
        <ele>138.08654785156</ele>
        <time>2014-01-11T13:15:01Z</time>
      </trkpt>
      <trkpt lat="47.99344" lon="-4.25491">
        <ele>138.56726074219</ele>
        <time>2014-01-11T13:15:07Z</time>
      </trkpt>
      <trkpt lat="47.99345" lon="-4.25482">
        <ele>138.08654785156</ele>
        <time>2014-01-11T13:15:12Z</time>
      </trkpt>
      <trkpt lat="47.99346" lon="-4.25472">
        <ele>140.00915527344</ele>
        <time>2014-01-11T13:15:17Z</time>
      </trkpt>
      <trkpt lat="47.99345" lon="-4.25462">
        <ele>140.97045898438</ele>
        <time>2014-01-11T13:15:22Z</time>
      </trkpt>
      <trkpt lat="47.99343" lon="-4.25452">
        <ele>142.41247558594</ele>
        <time>2014-01-11T13:15:27Z</time>
      </trkpt>
      <trkpt lat="47.99344" lon="-4.25438">
        <ele>142.41247558594</ele>
        <time>2014-01-11T13:15:34Z</time>
      </trkpt>
      <trkpt lat="47.99347" lon="-4.25428">
        <ele>140.00915527344</ele>
        <time>2014-01-11T13:15:40Z</time>
      </trkpt>
      <trkpt lat="47.99347" lon="-4.25419">
        <ele>138.08654785156</ele>
        <time>2014-01-11T13:15:45Z</time>
      </trkpt>
      <trkpt lat="47.99348" lon="-4.25409">
        <ele>137.60583496094</ele>
        <time>2014-01-11T13:15:50Z</time>
      </trkpt>
      <trkpt lat="47.99349" lon="-4.25404">
        <ele>136.64465332031</ele>
        <time>2014-01-11T13:15:53Z</time>
      </trkpt>
      <trkpt lat="47.99353" lon="-4.25395">
        <ele>137.12524414062</ele>
        <time>2014-01-11T13:15:58Z</time>
      </trkpt>
      <trkpt lat="47.99352" lon="-4.25388">
        <ele>136.64465332031</ele>
        <time>2014-01-11T13:16:02Z</time>
      </trkpt>
      <trkpt lat="47.99356" lon="-4.25376">
        <ele>141.45104980469</ele>
        <time>2014-01-11T13:16:09Z</time>
      </trkpt>
      <trkpt lat="47.99355" lon="-4.25373">
        <ele>142.89306640625</ele>
        <time>2014-01-11T13:16:11Z</time>
      </trkpt>
      <trkpt lat="47.99359" lon="-4.25356">
        <ele>139.0478515625</ele>
        <time>2014-01-11T13:16:19Z</time>
      </trkpt>
      <trkpt lat="47.99359" lon="-4.25354">
        <ele>138.56726074219</ele>
        <time>2014-01-11T13:16:20Z</time>
      </trkpt>
      <trkpt lat="47.99361" lon="-4.25351">
        <ele>139.52844238281</ele>
        <time>2014-01-11T13:16:23Z</time>
      </trkpt>
      <trkpt lat="47.99363" lon="-4.25341">
        <ele>138.08654785156</ele>
        <time>2014-01-11T13:16:27Z</time>
      </trkpt>
      <trkpt lat="47.99363" lon="-4.25335">
        <ele>138.08654785156</ele>
        <time>2014-01-11T13:16:30Z</time>
      </trkpt>
      <trkpt lat="47.99365" lon="-4.25325">
        <ele>137.12524414062</ele>
        <time>2014-01-11T13:16:35Z</time>
      </trkpt>
      <trkpt lat="47.99365" lon="-4.25321">
        <ele>137.12524414062</ele>
        <time>2014-01-11T13:16:37Z</time>
      </trkpt>
      <trkpt lat="47.99368" lon="-4.25308">
        <ele>137.60583496094</ele>
        <time>2014-01-11T13:16:44Z</time>
      </trkpt>
      <trkpt lat="47.99369" lon="-4.25302">
        <ele>137.60583496094</ele>
        <time>2014-01-11T13:16:47Z</time>
      </trkpt>
      <trkpt lat="47.99373" lon="-4.2529">
        <ele>140.48986816406</ele>
        <time>2014-01-11T13:16:53Z</time>
      </trkpt>
      <trkpt lat="47.99374" lon="-4.25287">
        <ele>141.45104980469</ele>
        <time>2014-01-11T13:16:54Z</time>
      </trkpt>
      <trkpt lat="47.99374" lon="-4.25284">
        <ele>142.89306640625</ele>
        <time>2014-01-11T13:16:56Z</time>
      </trkpt>
      <trkpt lat="47.99377" lon="-4.25274">
        <ele>142.41247558594</ele>
        <time>2014-01-11T13:17:01Z</time>
      </trkpt>
      <trkpt lat="47.9938" lon="-4.25263">
        <ele>141.93176269531</ele>
        <time>2014-01-11T13:17:07Z</time>
      </trkpt>
      <trkpt lat="47.99379" lon="-4.25259">
        <ele>140.97045898438</ele>
        <time>2014-01-11T13:17:09Z</time>
      </trkpt>
      <trkpt lat="47.99385" lon="-4.25247">
        <ele>141.45104980469</ele>
        <time>2014-01-11T13:17:16Z</time>
      </trkpt>
      <trkpt lat="47.99387" lon="-4.2524">
        <ele>141.45104980469</ele>
        <time>2014-01-11T13:17:20Z</time>
      </trkpt>
      <trkpt lat="47.99388" lon="-4.25238">
        <ele>141.45104980469</ele>
        <time>2014-01-11T13:17:22Z</time>
      </trkpt>
      <trkpt lat="47.99389" lon="-4.25228">
        <ele>141.45104980469</ele>
        <time>2014-01-11T13:17:27Z</time>
      </trkpt>
      <trkpt lat="47.99395" lon="-4.25217">
        <ele>141.45104980469</ele>
        <time>2014-01-11T13:17:34Z</time>
      </trkpt>
      <trkpt lat="47.99399" lon="-4.25205">
        <ele>142.41247558594</ele>
        <time>2014-01-11T13:17:41Z</time>
      </trkpt>
      <trkpt lat="47.99402" lon="-4.25198">
        <ele>140.97045898438</ele>
        <time>2014-01-11T13:17:45Z</time>
      </trkpt>
      <trkpt lat="47.99405" lon="-4.25187">
        <ele>140.00915527344</ele>
        <time>2014-01-11T13:17:52Z</time>
      </trkpt>
      <trkpt lat="47.99406" lon="-4.25185">
        <ele>140.48986816406</ele>
        <time>2014-01-11T13:17:53Z</time>
      </trkpt>
      <trkpt lat="47.99409" lon="-4.25173">
        <ele>141.45104980469</ele>
        <time>2014-01-11T13:18:00Z</time>
      </trkpt>
      <trkpt lat="47.99413" lon="-4.25163">
        <ele>141.93176269531</ele>
        <time>2014-01-11T13:18:06Z</time>
      </trkpt>
      <trkpt lat="47.99415" lon="-4.2516">
        <ele>141.93176269531</ele>
        <time>2014-01-11T13:18:08Z</time>
      </trkpt>
      <trkpt lat="47.99418" lon="-4.25147">
        <ele>141.45104980469</ele>
        <time>2014-01-11T13:18:16Z</time>
      </trkpt>
      <trkpt lat="47.99419" lon="-4.25141">
        <ele>140.97045898438</ele>
        <time>2014-01-11T13:18:19Z</time>
      </trkpt>
      <trkpt lat="47.99421" lon="-4.25134">
        <ele>140.97045898438</ele>
        <time>2014-01-11T13:18:23Z</time>
      </trkpt>
      <trkpt lat="47.99422" lon="-4.25126">
        <ele>140.97045898438</ele>
        <time>2014-01-11T13:18:27Z</time>
      </trkpt>
      <trkpt lat="47.99423" lon="-4.25122">
        <ele>140.97045898438</ele>
        <time>2014-01-11T13:18:29Z</time>
      </trkpt>
      <trkpt lat="47.99426" lon="-4.25112">
        <ele>141.93176269531</ele>
        <time>2014-01-11T13:18:35Z</time>
      </trkpt>
      <trkpt lat="47.99429" lon="-4.25108">
        <ele>142.89306640625</ele>
        <time>2014-01-11T13:18:38Z</time>
      </trkpt>
      <trkpt lat="47.99434" lon="-4.25095">
        <ele>143.37365722656</ele>
        <time>2014-01-11T13:18:45Z</time>
      </trkpt>
      <trkpt lat="47.99436" lon="-4.25086">
        <ele>143.37365722656</ele>
        <time>2014-01-11T13:18:50Z</time>
      </trkpt>
      <trkpt lat="47.99441" lon="-4.25073">
        <ele>141.93176269531</ele>
        <time>2014-01-11T13:18:57Z</time>
      </trkpt>
      <trkpt lat="47.99442" lon="-4.25064">
        <ele>141.93176269531</ele>
        <time>2014-01-11T13:19:02Z</time>
      </trkpt>
      <trkpt lat="47.99442" lon="-4.2505">
        <ele>141.45104980469</ele>
        <time>2014-01-11T13:19:09Z</time>
      </trkpt>
      <trkpt lat="47.99442" lon="-4.25048">
        <ele>140.97045898438</ele>
        <time>2014-01-11T13:19:10Z</time>
      </trkpt>
      <trkpt lat="47.99443" lon="-4.2504">
        <ele>140.48986816406</ele>
        <time>2014-01-11T13:19:14Z</time>
      </trkpt>
      <trkpt lat="47.99446" lon="-4.25028">
        <ele>140.97045898438</ele>
        <time>2014-01-11T13:19:21Z</time>
      </trkpt>
      <trkpt lat="47.99448" lon="-4.25018">
        <ele>139.52844238281</ele>
        <time>2014-01-11T13:19:26Z</time>
      </trkpt>
      <trkpt lat="47.99451" lon="-4.25011">
        <ele>138.08654785156</ele>
        <time>2014-01-11T13:19:31Z</time>
      </trkpt>
      <trkpt lat="47.99451" lon="-4.25009">
        <ele>137.60583496094</ele>
        <time>2014-01-11T13:19:32Z</time>
      </trkpt>
      <trkpt lat="47.99453" lon="-4.25005">
        <ele>137.60583496094</ele>
        <time>2014-01-11T13:19:34Z</time>
      </trkpt>
      <trkpt lat="47.99456" lon="-4.24994">
        <ele>137.12524414062</ele>
        <time>2014-01-11T13:19:40Z</time>
      </trkpt>
      <trkpt lat="47.99459" lon="-4.24985">
        <ele>137.12524414062</ele>
        <time>2014-01-11T13:19:45Z</time>
      </trkpt>
      <trkpt lat="47.99463" lon="-4.24979">
        <ele>138.08654785156</ele>
        <time>2014-01-11T13:19:49Z</time>
      </trkpt>
      <trkpt lat="47.99471" lon="-4.24979">
        <ele>138.08654785156</ele>
        <time>2014-01-11T13:19:55Z</time>
      </trkpt>
      <trkpt lat="47.99484" lon="-4.24983">
        <ele>140.97045898438</ele>
        <time>2014-01-11T13:20:03Z</time>
      </trkpt>
      <trkpt lat="47.99496" lon="-4.24987">
        <ele>142.41247558594</ele>
        <time>2014-01-11T13:20:12Z</time>
      </trkpt>
      <trkpt lat="47.99506" lon="-4.24991">
        <ele>142.89306640625</ele>
        <time>2014-01-11T13:20:20Z</time>
      </trkpt>
      <trkpt lat="47.99511" lon="-4.24993">
        <ele>143.37365722656</ele>
        <time>2014-01-11T13:20:24Z</time>
      </trkpt>
      <trkpt lat="47.99519" lon="-4.25011">
        <ele>143.37365722656</ele>
        <time>2014-01-11T13:20:35Z</time>
      </trkpt>
      <trkpt lat="47.99521" lon="-4.25022">
        <ele>143.85437011719</ele>
        <time>2014-01-11T13:20:41Z</time>
      </trkpt>
      <trkpt lat="47.9952" lon="-4.25032">
        <ele>144.33520507812</ele>
        <time>2014-01-11T13:20:45Z</time>
      </trkpt>
      <trkpt lat="47.9952" lon="-4.25034">
        <ele>145.29638671875</ele>
        <time>2014-01-11T13:20:46Z</time>
      </trkpt>
      <trkpt lat="47.99521" lon="-4.25041">
        <ele>146.2578125</ele>
        <time>2014-01-11T13:20:50Z</time>
      </trkpt>
      <trkpt lat="47.9952" lon="-4.25055">
        <ele>147.21899414062</ele>
        <time>2014-01-11T13:20:56Z</time>
      </trkpt>
      <trkpt lat="47.99521" lon="-4.25064">
        <ele>148.66101074219</ele>
        <time>2014-01-11T13:21:01Z</time>
      </trkpt>
      <trkpt lat="47.99523" lon="-4.25075">
        <ele>149.1416015625</ele>
        <time>2014-01-11T13:21:06Z</time>
      </trkpt>
      <trkpt lat="47.99525" lon="-4.25085">
        <ele>149.62231445312</ele>
        <time>2014-01-11T13:21:11Z</time>
      </trkpt>
      <trkpt lat="47.99527" lon="-4.25094">
        <ele>149.62231445312</ele>
        <time>2014-01-11T13:21:16Z</time>
      </trkpt>
      <trkpt lat="47.9953" lon="-4.25101">
        <ele>149.62231445312</ele>
        <time>2014-01-11T13:21:20Z</time>
      </trkpt>
      <trkpt lat="47.99534" lon="-4.25111">
        <ele>149.1416015625</ele>
        <time>2014-01-11T13:21:26Z</time>
      </trkpt>
      <trkpt lat="47.99542" lon="-4.25131">
        <ele>146.73840332031</ele>
        <time>2014-01-11T13:21:38Z</time>
      </trkpt>
      <trkpt lat="47.99547" lon="-4.25143">
        <ele>146.2578125</ele>
        <time>2014-01-11T13:21:45Z</time>
      </trkpt>
      <trkpt lat="47.99547" lon="-4.25145">
        <ele>146.2578125</ele>
        <time>2014-01-11T13:21:46Z</time>
      </trkpt>
      <trkpt lat="47.99551" lon="-4.25155">
        <ele>146.73840332031</ele>
        <time>2014-01-11T13:21:52Z</time>
      </trkpt>
      <trkpt lat="47.99555" lon="-4.25164">
        <ele>146.73840332031</ele>
        <time>2014-01-11T13:21:57Z</time>
      </trkpt>
      <trkpt lat="47.99559" lon="-4.25172">
        <ele>146.73840332031</ele>
        <time>2014-01-11T13:22:03Z</time>
      </trkpt>
      <trkpt lat="47.99562" lon="-4.25177">
        <ele>146.73840332031</ele>
        <time>2014-01-11T13:22:07Z</time>
      </trkpt>
      <trkpt lat="47.99569" lon="-4.25168">
        <ele>145.29638671875</ele>
        <time>2014-01-11T13:22:14Z</time>
      </trkpt>
      <trkpt lat="47.99571" lon="-4.25155">
        <ele>144.81579589844</ele>
        <time>2014-01-11T13:22:21Z</time>
      </trkpt>
      <trkpt lat="47.99575" lon="-4.2515">
        <ele>144.81579589844</ele>
        <time>2014-01-11T13:22:25Z</time>
      </trkpt>
      <trkpt lat="47.99586" lon="-4.25138">
        <ele>147.21899414062</ele>
        <time>2014-01-11T13:22:34Z</time>
      </trkpt>
      <trkpt lat="47.99594" lon="-4.25129">
        <ele>146.73840332031</ele>
        <time>2014-01-11T13:22:41Z</time>
      </trkpt>
      <trkpt lat="47.99602" lon="-4.25116">
        <ele>146.2578125</ele>
        <time>2014-01-11T13:22:50Z</time>
      </trkpt>
      <trkpt lat="47.99609" lon="-4.25104">
        <ele>146.2578125</ele>
        <time>2014-01-11T13:22:58Z</time>
      </trkpt>
      <trkpt lat="47.99616" lon="-4.25094">
        <ele>144.81579589844</ele>
        <time>2014-01-11T13:23:05Z</time>
      </trkpt>
      <trkpt lat="47.99623" lon="-4.25082">
        <ele>144.33520507812</ele>
        <time>2014-01-11T13:23:14Z</time>
      </trkpt>
      <trkpt lat="47.99629" lon="-4.25075">
        <ele>143.37365722656</ele>
        <time>2014-01-11T13:23:19Z</time>
      </trkpt>
      <trkpt lat="47.99639" lon="-4.25064">
        <ele>146.2578125</ele>
        <time>2014-01-11T13:23:28Z</time>
      </trkpt>
      <trkpt lat="47.99646" lon="-4.25054">
        <ele>146.73840332031</ele>
        <time>2014-01-11T13:23:35Z</time>
      </trkpt>
      <trkpt lat="47.99655" lon="-4.25042">
        <ele>147.69970703125</ele>
        <time>2014-01-11T13:23:44Z</time>
      </trkpt>
      <trkpt lat="47.99664" lon="-4.2503">
        <ele>149.1416015625</ele>
        <time>2014-01-11T13:23:53Z</time>
      </trkpt>
      <trkpt lat="47.99665" lon="-4.25029">
        <ele>148.66101074219</ele>
        <time>2014-01-11T13:23:54Z</time>
      </trkpt>
      <trkpt lat="47.99669" lon="-4.25023">
        <ele>149.62231445312</ele>
        <time>2014-01-11T13:23:58Z</time>
      </trkpt>
      <trkpt lat="47.99678" lon="-4.25014">
        <ele>148.66101074219</ele>
        <time>2014-01-11T13:24:07Z</time>
      </trkpt>
      <trkpt lat="47.99685" lon="-4.2501">
        <ele>146.73840332031</ele>
        <time>2014-01-11T13:24:14Z</time>
      </trkpt>
      <trkpt lat="47.99689" lon="-4.2501">
        <ele>144.33520507812</ele>
        <time>2014-01-11T13:24:20Z</time>
      </trkpt>
      <trkpt lat="47.99694" lon="-4.25008">
        <ele>143.37365722656</ele>
        <time>2014-01-11T13:24:25Z</time>
      </trkpt>
      <trkpt lat="47.99698" lon="-4.25006">
        <ele>142.89306640625</ele>
        <time>2014-01-11T13:24:29Z</time>
      </trkpt>
      <trkpt lat="47.99701" lon="-4.25006">
        <ele>141.93176269531</ele>
        <time>2014-01-11T13:24:32Z</time>
      </trkpt>
      <trkpt lat="47.99705" lon="-4.25003">
        <ele>142.41247558594</ele>
        <time>2014-01-11T13:24:36Z</time>
      </trkpt>
      <trkpt lat="47.99712" lon="-4.25">
        <ele>142.89306640625</ele>
        <time>2014-01-11T13:24:41Z</time>
      </trkpt>
      <trkpt lat="47.99717" lon="-4.24995">
        <ele>141.93176269531</ele>
        <time>2014-01-11T13:24:46Z</time>
      </trkpt>
      <trkpt lat="47.99718" lon="-4.24994">
        <ele>141.93176269531</ele>
        <time>2014-01-11T13:24:47Z</time>
      </trkpt>
      <trkpt lat="47.99724" lon="-4.24988">
        <ele>140.97045898438</ele>
        <time>2014-01-11T13:24:54Z</time>
      </trkpt>
      <trkpt lat="47.99728" lon="-4.24985">
        <ele>140.48986816406</ele>
        <time>2014-01-11T13:24:58Z</time>
      </trkpt>
      <trkpt lat="47.99733" lon="-4.24982">
        <ele>139.0478515625</ele>
        <time>2014-01-11T13:25:02Z</time>
      </trkpt>
      <trkpt lat="47.99743" lon="-4.24976">
        <ele>139.52844238281</ele>
        <time>2014-01-11T13:25:10Z</time>
      </trkpt>
      <trkpt lat="47.99745" lon="-4.24971">
        <ele>139.0478515625</ele>
        <time>2014-01-11T13:25:13Z</time>
      </trkpt>
      <trkpt lat="47.99757" lon="-4.24966">
        <ele>138.08654785156</ele>
        <time>2014-01-11T13:25:21Z</time>
      </trkpt>
      <trkpt lat="47.99764" lon="-4.24961">
        <ele>137.60583496094</ele>
        <time>2014-01-11T13:25:27Z</time>
      </trkpt>
      <trkpt lat="47.99773" lon="-4.24957">
        <ele>138.56726074219</ele>
        <time>2014-01-11T13:25:34Z</time>
      </trkpt>
      <trkpt lat="47.99782" lon="-4.24953">
        <ele>138.08654785156</ele>
        <time>2014-01-11T13:25:41Z</time>
      </trkpt>
      <trkpt lat="47.99786" lon="-4.24952">
        <ele>137.60583496094</ele>
        <time>2014-01-11T13:25:46Z</time>
      </trkpt>
      <trkpt lat="47.99792" lon="-4.24947">
        <ele>137.60583496094</ele>
        <time>2014-01-11T13:25:51Z</time>
      </trkpt>
      <trkpt lat="47.99795" lon="-4.24942">
        <ele>137.60583496094</ele>
        <time>2014-01-11T13:25:57Z</time>
      </trkpt>
      <trkpt lat="47.99799" lon="-4.24939">
        <ele>139.0478515625</ele>
        <time>2014-01-11T13:26:00Z</time>
      </trkpt>
      <trkpt lat="47.99808" lon="-4.24934">
        <ele>142.41247558594</ele>
        <time>2014-01-11T13:26:05Z</time>
      </trkpt>
      <trkpt lat="47.99815" lon="-4.24932">
        <ele>141.45104980469</ele>
        <time>2014-01-11T13:26:10Z</time>
      </trkpt>
      <trkpt lat="47.99824" lon="-4.24931">
        <ele>142.89306640625</ele>
        <time>2014-01-11T13:26:15Z</time>
      </trkpt>
      <trkpt lat="47.99831" lon="-4.24931">
        <ele>141.45104980469</ele>
        <time>2014-01-11T13:26:21Z</time>
      </trkpt>
      <trkpt lat="47.99835" lon="-4.2493">
        <ele>140.00915527344</ele>
        <time>2014-01-11T13:26:25Z</time>
      </trkpt>
      <trkpt lat="47.99841" lon="-4.24928">
        <ele>139.52844238281</ele>
        <time>2014-01-11T13:26:29Z</time>
      </trkpt>
      <trkpt lat="47.99845" lon="-4.24923">
        <ele>134.72192382812</ele>
        <time>2014-01-11T13:26:34Z</time>
      </trkpt>
      <trkpt lat="47.99847" lon="-4.2492">
        <ele>134.72192382812</ele>
        <time>2014-01-11T13:26:37Z</time>
      </trkpt>
      <trkpt lat="47.99851" lon="-4.24916">
        <ele>132.31860351562</ele>
        <time>2014-01-11T13:26:42Z</time>
      </trkpt>
      <trkpt lat="47.99853" lon="-4.24914">
        <ele>131.837890625</ele>
        <time>2014-01-11T13:26:44Z</time>
      </trkpt>
      <trkpt lat="47.99857" lon="-4.24908">
        <ele>128.9541015625</ele>
        <time>2014-01-11T13:26:50Z</time>
      </trkpt>
      <trkpt lat="47.99859" lon="-4.24907">
        <ele>128.9541015625</ele>
        <time>2014-01-11T13:26:52Z</time>
      </trkpt>
      <trkpt lat="47.99863" lon="-4.24904">
        <ele>126.06994628906</ele>
        <time>2014-01-11T13:26:57Z</time>
      </trkpt>
      <trkpt lat="47.9987" lon="-4.24902">
        <ele>127.51196289062</ele>
        <time>2014-01-11T13:27:03Z</time>
      </trkpt>
      <trkpt lat="47.99876" lon="-4.24899">
        <ele>124.14733886719</ele>
        <time>2014-01-11T13:27:09Z</time>
      </trkpt>
      <trkpt lat="47.99883" lon="-4.24898">
        <ele>125.58935546875</ele>
        <time>2014-01-11T13:27:16Z</time>
      </trkpt>
      <trkpt lat="47.99889" lon="-4.24898">
        <ele>123.66674804688</ele>
        <time>2014-01-11T13:27:20Z</time>
      </trkpt>
      <trkpt lat="47.99895" lon="-4.24901">
        <ele>124.14733886719</ele>
        <time>2014-01-11T13:27:25Z</time>
      </trkpt>
      <trkpt lat="47.99904" lon="-4.24901">
        <ele>125.10876464844</ele>
        <time>2014-01-11T13:27:30Z</time>
      </trkpt>
      <trkpt lat="47.99909" lon="-4.24902">
        <ele>127.03137207031</ele>
        <time>2014-01-11T13:27:34Z</time>
      </trkpt>
      <trkpt lat="47.99912" lon="-4.24901">
        <ele>124.14733886719</ele>
        <time>2014-01-11T13:27:38Z</time>
      </trkpt>
      <trkpt lat="47.99914" lon="-4.24902">
        <ele>123.66674804688</ele>
        <time>2014-01-11T13:27:40Z</time>
      </trkpt>
      <trkpt lat="47.99924" lon="-4.24905">
        <ele>124.14733886719</ele>
        <time>2014-01-11T13:27:48Z</time>
      </trkpt>
      <trkpt lat="47.99934" lon="-4.2491">
        <ele>125.58935546875</ele>
        <time>2014-01-11T13:27:53Z</time>
      </trkpt>
      <trkpt lat="47.99936" lon="-4.24921">
        <ele>120.78283691406</ele>
        <time>2014-01-11T13:27:59Z</time>
      </trkpt>
      <trkpt lat="47.99936" lon="-4.24924">
        <ele>117.89880371094</ele>
        <time>2014-01-11T13:28:02Z</time>
      </trkpt>
      <trkpt lat="47.99942" lon="-4.24929">
        <ele>121.26354980469</ele>
        <time>2014-01-11T13:28:06Z</time>
      </trkpt>
      <trkpt lat="47.99948" lon="-4.24942">
        <ele>121.744140625</ele>
        <time>2014-01-11T13:28:13Z</time>
      </trkpt>
      <trkpt lat="47.9995" lon="-4.24945">
        <ele>122.22473144531</ele>
        <time>2014-01-11T13:28:15Z</time>
      </trkpt>
      <trkpt lat="47.9995" lon="-4.24955">
        <ele>121.26354980469</ele>
        <time>2014-01-11T13:28:21Z</time>
      </trkpt>
      <trkpt lat="47.99951" lon="-4.24957">
        <ele>121.744140625</ele>
        <time>2014-01-11T13:28:22Z</time>
      </trkpt>
      <trkpt lat="47.99955" lon="-4.24962">
        <ele>122.70544433594</ele>
        <time>2014-01-11T13:28:26Z</time>
      </trkpt>
      <trkpt lat="47.99959" lon="-4.24972">
        <ele>126.55065917969</ele>
        <time>2014-01-11T13:28:31Z</time>
      </trkpt>
      <trkpt lat="47.99962" lon="-4.2498">
        <ele>124.62805175781</ele>
        <time>2014-01-11T13:28:36Z</time>
      </trkpt>
      <trkpt lat="47.99965" lon="-4.24986">
        <ele>127.03137207031</ele>
        <time>2014-01-11T13:28:39Z</time>
      </trkpt>
      <trkpt lat="47.99969" lon="-4.24996">
        <ele>125.58935546875</ele>
        <time>2014-01-11T13:28:46Z</time>
      </trkpt>
      <trkpt lat="47.99972" lon="-4.25004">
        <ele>122.22473144531</ele>
        <time>2014-01-11T13:28:52Z</time>
      </trkpt>
      <trkpt lat="47.99976" lon="-4.25008">
        <ele>120.78283691406</ele>
        <time>2014-01-11T13:28:55Z</time>
      </trkpt>
      <trkpt lat="47.99977" lon="-4.25012">
        <ele>119.3408203125</ele>
        <time>2014-01-11T13:28:57Z</time>
      </trkpt>
      <trkpt lat="47.9998" lon="-4.2502">
        <ele>117.89880371094</ele>
        <time>2014-01-11T13:29:02Z</time>
      </trkpt>
      <trkpt lat="47.99983" lon="-4.25031">
        <ele>121.744140625</ele>
        <time>2014-01-11T13:29:09Z</time>
      </trkpt>
      <trkpt lat="47.99983" lon="-4.25035">
        <ele>122.22473144531</ele>
        <time>2014-01-11T13:29:11Z</time>
      </trkpt>
      <trkpt lat="47.99984" lon="-4.25045">
        <ele>129.43469238281</ele>
        <time>2014-01-11T13:29:14Z</time>
      </trkpt>
      <trkpt lat="47.99988" lon="-4.25055">
        <ele>130.87670898438</ele>
        <time>2014-01-11T13:29:19Z</time>
      </trkpt>
      <trkpt lat="47.99989" lon="-4.2507">
        <ele>129.43469238281</ele>
        <time>2014-01-11T13:29:25Z</time>
      </trkpt>
      <trkpt lat="47.99988" lon="-4.25073">
        <ele>129.91528320312</ele>
        <time>2014-01-11T13:29:26Z</time>
      </trkpt>
      <trkpt lat="47.99987" lon="-4.25079">
        <ele>128.47338867188</ele>
        <time>2014-01-11T13:29:29Z</time>
      </trkpt>
      <trkpt lat="47.99987" lon="-4.25083">
        <ele>125.58935546875</ele>
        <time>2014-01-11T13:29:32Z</time>
      </trkpt>
      <trkpt lat="47.99989" lon="-4.25094">
        <ele>124.14733886719</ele>
        <time>2014-01-11T13:29:38Z</time>
      </trkpt>
      <trkpt lat="47.9999" lon="-4.25099">
        <ele>123.18615722656</ele>
        <time>2014-01-11T13:29:41Z</time>
      </trkpt>
      <trkpt lat="47.99995" lon="-4.2511">
        <ele>120.30212402344</ele>
        <time>2014-01-11T13:29:48Z</time>
      </trkpt>
      <trkpt lat="47.99997" lon="-4.25115">
        <ele>120.78283691406</ele>
        <time>2014-01-11T13:29:51Z</time>
      </trkpt>
      <trkpt lat="47.99999" lon="-4.25124">
        <ele>119.82141113281</ele>
        <time>2014-01-11T13:29:56Z</time>
      </trkpt>
      <trkpt lat="48.00002" lon="-4.25134">
        <ele>119.82141113281</ele>
        <time>2014-01-11T13:30:02Z</time>
      </trkpt>
      <trkpt lat="48.00012" lon="-4.25153">
        <ele>120.30212402344</ele>
        <time>2014-01-11T13:30:14Z</time>
      </trkpt>
      <trkpt lat="48.00018" lon="-4.25162">
        <ele>120.30212402344</ele>
        <time>2014-01-11T13:30:21Z</time>
      </trkpt>
      <trkpt lat="48.00025" lon="-4.25173">
        <ele>120.30212402344</ele>
        <time>2014-01-11T13:30:29Z</time>
      </trkpt>
      <trkpt lat="48.00032" lon="-4.25185">
        <ele>120.78283691406</ele>
        <time>2014-01-11T13:30:37Z</time>
      </trkpt>
      <trkpt lat="48.0004" lon="-4.25197">
        <ele>120.78283691406</ele>
        <time>2014-01-11T13:30:46Z</time>
      </trkpt>
      <trkpt lat="48.00046" lon="-4.25208">
        <ele>121.744140625</ele>
        <time>2014-01-11T13:30:54Z</time>
      </trkpt>
      <trkpt lat="48.00047" lon="-4.25208">
        <ele>121.744140625</ele>
        <time>2014-01-11T13:30:58Z</time>
      </trkpt>
      <trkpt lat="48.00047" lon="-4.25208">
        <ele>122.22473144531</ele>
        <time>2014-01-11T13:31:04Z</time>
      </trkpt>
      <trkpt lat="48.00047" lon="-4.25209">
        <ele>121.26354980469</ele>
        <time>2014-01-11T13:31:15Z</time>
      </trkpt>
      <trkpt lat="48.00048" lon="-4.25209">
        <ele>122.70544433594</ele>
        <time>2014-01-11T13:31:23Z</time>
      </trkpt>
      <trkpt lat="48.00047" lon="-4.25209">
        <ele>124.14733886719</ele>
        <time>2014-01-11T13:31:34Z</time>
      </trkpt>
      <trkpt lat="48.00046" lon="-4.2521">
        <ele>122.22473144531</ele>
        <time>2014-01-11T13:31:44Z</time>
      </trkpt>
      <trkpt lat="48.00047" lon="-4.25211">
        <ele>120.78283691406</ele>
        <time>2014-01-11T13:31:55Z</time>
      </trkpt>
      <trkpt lat="48.00052" lon="-4.2522">
        <ele>120.30212402344</ele>
        <time>2014-01-11T13:32:01Z</time>
      </trkpt>
      <trkpt lat="48.00057" lon="-4.25229">
        <ele>119.82141113281</ele>
        <time>2014-01-11T13:32:07Z</time>
      </trkpt>
      <trkpt lat="48.00062" lon="-4.2524">
        <ele>121.744140625</ele>
        <time>2014-01-11T13:32:14Z</time>
      </trkpt>
      <trkpt lat="48.0007" lon="-4.25252">
        <ele>121.744140625</ele>
        <time>2014-01-11T13:32:22Z</time>
      </trkpt>
      <trkpt lat="48.00071" lon="-4.25255">
        <ele>121.744140625</ele>
        <time>2014-01-11T13:32:24Z</time>
      </trkpt>
      <trkpt lat="48.00079" lon="-4.25266">
        <ele>120.78283691406</ele>
        <time>2014-01-11T13:32:33Z</time>
      </trkpt>
      <trkpt lat="48.00085" lon="-4.25277">
        <ele>121.26354980469</ele>
        <time>2014-01-11T13:32:40Z</time>
      </trkpt>
      <trkpt lat="48.0009" lon="-4.25286">
        <ele>122.22473144531</ele>
        <time>2014-01-11T13:32:46Z</time>
      </trkpt>
      <trkpt lat="48.00094" lon="-4.25299">
        <ele>126.06994628906</ele>
        <time>2014-01-11T13:32:53Z</time>
      </trkpt>
      <trkpt lat="48.00097" lon="-4.25313">
        <ele>126.55065917969</ele>
        <time>2014-01-11T13:33:01Z</time>
      </trkpt>
      <trkpt lat="48.001" lon="-4.25322">
        <ele>126.06994628906</ele>
        <time>2014-01-11T13:33:06Z</time>
      </trkpt>
      <trkpt lat="48.00105" lon="-4.25337">
        <ele>126.06994628906</ele>
        <time>2014-01-11T13:33:14Z</time>
      </trkpt>
      <trkpt lat="48.00106" lon="-4.25343">
        <ele>127.99255371094</ele>
        <time>2014-01-11T13:33:18Z</time>
      </trkpt>
      <trkpt lat="48.0011" lon="-4.25357">
        <ele>127.03137207031</ele>
        <time>2014-01-11T13:33:25Z</time>
      </trkpt>
      <trkpt lat="48.0011" lon="-4.25361">
        <ele>127.51196289062</ele>
        <time>2014-01-11T13:33:27Z</time>
      </trkpt>
      <trkpt lat="48.00113" lon="-4.25373">
        <ele>127.51196289062</ele>
        <time>2014-01-11T13:33:33Z</time>
      </trkpt>
      <trkpt lat="48.00117" lon="-4.25387">
        <ele>127.99255371094</ele>
        <time>2014-01-11T13:33:41Z</time>
      </trkpt>
      <trkpt lat="48.00119" lon="-4.25403">
        <ele>129.91528320312</ele>
        <time>2014-01-11T13:33:49Z</time>
      </trkpt>
      <trkpt lat="48.0012" lon="-4.25405">
        <ele>130.39599609375</ele>
        <time>2014-01-11T13:33:50Z</time>
      </trkpt>
      <trkpt lat="48.00118" lon="-4.25413">
        <ele>133.27990722656</ele>
        <time>2014-01-11T13:33:56Z</time>
      </trkpt>
      <trkpt lat="48.00116" lon="-4.25418">
        <ele>133.76049804688</ele>
        <time>2014-01-11T13:34:00Z</time>
      </trkpt>
      <trkpt lat="48.00113" lon="-4.25425">
        <ele>133.76049804688</ele>
        <time>2014-01-11T13:34:07Z</time>
      </trkpt>
      <trkpt lat="48.0011" lon="-4.25428">
        <ele>134.2412109375</ele>
        <time>2014-01-11T13:34:10Z</time>
      </trkpt>
      <trkpt lat="48.00107" lon="-4.25438">
        <ele>133.27990722656</ele>
        <time>2014-01-11T13:34:16Z</time>
      </trkpt>
      <trkpt lat="48.00107" lon="-4.25446">
        <ele>133.76049804688</ele>
        <time>2014-01-11T13:34:21Z</time>
      </trkpt>
      <trkpt lat="48.00109" lon="-4.25457">
        <ele>133.27990722656</ele>
        <time>2014-01-11T13:34:26Z</time>
      </trkpt>
      <trkpt lat="48.00111" lon="-4.25463">
        <ele>132.79931640625</ele>
        <time>2014-01-11T13:34:30Z</time>
      </trkpt>
      <trkpt lat="48.00112" lon="-4.25473">
        <ele>133.27990722656</ele>
        <time>2014-01-11T13:34:36Z</time>
      </trkpt>
      <trkpt lat="48.00115" lon="-4.25482">
        <ele>133.27990722656</ele>
        <time>2014-01-11T13:34:41Z</time>
      </trkpt>
      <trkpt lat="48.00116" lon="-4.25486">
        <ele>132.79931640625</ele>
        <time>2014-01-11T13:34:44Z</time>
      </trkpt>
      <trkpt lat="48.00115" lon="-4.25491">
        <ele>133.27990722656</ele>
        <time>2014-01-11T13:34:47Z</time>
      </trkpt>
      <trkpt lat="48.00117" lon="-4.25507">
        <ele>133.76049804688</ele>
        <time>2014-01-11T13:34:55Z</time>
      </trkpt>
      <trkpt lat="48.00118" lon="-4.25516">
        <ele>133.76049804688</ele>
        <time>2014-01-11T13:35:01Z</time>
      </trkpt>
      <trkpt lat="48.00119" lon="-4.2552">
        <ele>133.76049804688</ele>
        <time>2014-01-11T13:35:03Z</time>
      </trkpt>
      <trkpt lat="48.00118" lon="-4.25527">
        <ele>134.2412109375</ele>
        <time>2014-01-11T13:35:07Z</time>
      </trkpt>
      <trkpt lat="48.00118" lon="-4.25532">
        <ele>134.72192382812</ele>
        <time>2014-01-11T13:35:09Z</time>
      </trkpt>
      <trkpt lat="48.00118" lon="-4.25542">
        <ele>136.64465332031</ele>
        <time>2014-01-11T13:35:14Z</time>
      </trkpt>
      <trkpt lat="48.00117" lon="-4.25549">
        <ele>137.12524414062</ele>
        <time>2014-01-11T13:35:17Z</time>
      </trkpt>
      <trkpt lat="48.00117" lon="-4.25559">
        <ele>138.08654785156</ele>
        <time>2014-01-11T13:35:23Z</time>
      </trkpt>
      <trkpt lat="48.00118" lon="-4.2557">
        <ele>138.56726074219</ele>
        <time>2014-01-11T13:35:29Z</time>
      </trkpt>
      <trkpt lat="48.00118" lon="-4.25572">
        <ele>138.56726074219</ele>
        <time>2014-01-11T13:35:30Z</time>
      </trkpt>
      <trkpt lat="48.00119" lon="-4.25578">
        <ele>139.52844238281</ele>
        <time>2014-01-11T13:35:33Z</time>
      </trkpt>
      <trkpt lat="48.00118" lon="-4.25587">
        <ele>141.45104980469</ele>
        <time>2014-01-11T13:35:38Z</time>
      </trkpt>
      <trkpt lat="48.00118" lon="-4.25592">
        <ele>142.89306640625</ele>
        <time>2014-01-11T13:35:41Z</time>
      </trkpt>
      <trkpt lat="48.0012" lon="-4.25607">
        <ele>142.89306640625</ele>
        <time>2014-01-11T13:35:48Z</time>
      </trkpt>
      <trkpt lat="48.00121" lon="-4.25618">
        <ele>143.37365722656</ele>
        <time>2014-01-11T13:35:54Z</time>
      </trkpt>
      <trkpt lat="48.00121" lon="-4.25624">
        <ele>143.85437011719</ele>
        <time>2014-01-11T13:35:58Z</time>
      </trkpt>
      <trkpt lat="48.00121" lon="-4.25629">
        <ele>144.33520507812</ele>
        <time>2014-01-11T13:36:01Z</time>
      </trkpt>
      <trkpt lat="48.00122" lon="-4.25633">
        <ele>143.85437011719</ele>
        <time>2014-01-11T13:36:04Z</time>
      </trkpt>
      <trkpt lat="48.00123" lon="-4.25648">
        <ele>146.73840332031</ele>
        <time>2014-01-11T13:36:12Z</time>
      </trkpt>
      <trkpt lat="48.00123" lon="-4.25657">
        <ele>147.69970703125</ele>
        <time>2014-01-11T13:36:17Z</time>
      </trkpt>
      <trkpt lat="48.00123" lon="-4.25658">
        <ele>147.21899414062</ele>
        <time>2014-01-11T13:36:18Z</time>
      </trkpt>
      <trkpt lat="48.00126" lon="-4.25672">
        <ele>145.77709960938</ele>
        <time>2014-01-11T13:36:25Z</time>
      </trkpt>
      <trkpt lat="48.00125" lon="-4.25681">
        <ele>145.29638671875</ele>
        <time>2014-01-11T13:36:30Z</time>
      </trkpt>
      <trkpt lat="48.00123" lon="-4.25687">
        <ele>144.81579589844</ele>
        <time>2014-01-11T13:36:34Z</time>
      </trkpt>
      <trkpt lat="48.00121" lon="-4.25692">
        <ele>145.29638671875</ele>
        <time>2014-01-11T13:36:37Z</time>
      </trkpt>
      <trkpt lat="48.00118" lon="-4.25701">
        <ele>144.33520507812</ele>
        <time>2014-01-11T13:36:43Z</time>
      </trkpt>
      <trkpt lat="48.00117" lon="-4.25703">
        <ele>143.85437011719</ele>
        <time>2014-01-11T13:36:44Z</time>
      </trkpt>
      <trkpt lat="48.00116" lon="-4.25715">
        <ele>142.41247558594</ele>
        <time>2014-01-11T13:36:51Z</time>
      </trkpt>
      <trkpt lat="48.00118" lon="-4.25722">
        <ele>142.41247558594</ele>
        <time>2014-01-11T13:36:55Z</time>
      </trkpt>
      <trkpt lat="48.00113" lon="-4.25729">
        <ele>144.33520507812</ele>
        <time>2014-01-11T13:37:00Z</time>
      </trkpt>
      <trkpt lat="48.0011" lon="-4.25736">
        <ele>145.77709960938</ele>
        <time>2014-01-11T13:37:06Z</time>
      </trkpt>
      <trkpt lat="48.00107" lon="-4.25744">
        <ele>146.2578125</ele>
        <time>2014-01-11T13:37:12Z</time>
      </trkpt>
      <trkpt lat="48.00102" lon="-4.25752">
        <ele>148.18041992188</ele>
        <time>2014-01-11T13:37:18Z</time>
      </trkpt>
      <trkpt lat="48.001" lon="-4.25756">
        <ele>148.18041992188</ele>
        <time>2014-01-11T13:37:21Z</time>
      </trkpt>
      <trkpt lat="48.00099" lon="-4.25759">
        <ele>147.69970703125</ele>
        <time>2014-01-11T13:37:23Z</time>
      </trkpt>
      <trkpt lat="48.00096" lon="-4.25769">
        <ele>148.18041992188</ele>
        <time>2014-01-11T13:37:29Z</time>
      </trkpt>
      <trkpt lat="48.00095" lon="-4.25777">
        <ele>149.62231445312</ele>
        <time>2014-01-11T13:37:33Z</time>
      </trkpt>
      <trkpt lat="48.00094" lon="-4.25781">
        <ele>149.62231445312</ele>
        <time>2014-01-11T13:37:35Z</time>
      </trkpt>
      <trkpt lat="48.00091" lon="-4.25791">
        <ele>148.18041992188</ele>
        <time>2014-01-11T13:37:41Z</time>
      </trkpt>
      <trkpt lat="48.00087" lon="-4.25802">
        <ele>148.18041992188</ele>
        <time>2014-01-11T13:37:47Z</time>
      </trkpt>
      <trkpt lat="48.00086" lon="-4.25812">
        <ele>148.66101074219</ele>
        <time>2014-01-11T13:37:52Z</time>
      </trkpt>
      <trkpt lat="48.00084" lon="-4.25816">
        <ele>148.18041992188</ele>
        <time>2014-01-11T13:37:55Z</time>
      </trkpt>
      <trkpt lat="48.0008" lon="-4.25823">
        <ele>149.1416015625</ele>
        <time>2014-01-11T13:38:00Z</time>
      </trkpt>
      <trkpt lat="48.00078" lon="-4.25826">
        <ele>148.66101074219</ele>
        <time>2014-01-11T13:38:03Z</time>
      </trkpt>
      <trkpt lat="48.00076" lon="-4.25834">
        <ele>149.62231445312</ele>
        <time>2014-01-11T13:38:08Z</time>
      </trkpt>
      <trkpt lat="48.00073" lon="-4.25842">
        <ele>148.66101074219</ele>
        <time>2014-01-11T13:38:13Z</time>
      </trkpt>
      <trkpt lat="48.00073" lon="-4.25844">
        <ele>147.69970703125</ele>
        <time>2014-01-11T13:38:15Z</time>
      </trkpt>
      <trkpt lat="48.00068" lon="-4.25852">
        <ele>148.18041992188</ele>
        <time>2014-01-11T13:38:20Z</time>
      </trkpt>
      <trkpt lat="48.00067" lon="-4.25856">
        <ele>148.66101074219</ele>
        <time>2014-01-11T13:38:24Z</time>
      </trkpt>
      <trkpt lat="48.00062" lon="-4.25862">
        <ele>149.62231445312</ele>
        <time>2014-01-11T13:38:28Z</time>
      </trkpt>
      <trkpt lat="48.00061" lon="-4.25871">
        <ele>150.10302734375</ele>
        <time>2014-01-11T13:38:33Z</time>
      </trkpt>
      <trkpt lat="48.00058" lon="-4.25874">
        <ele>149.62231445312</ele>
        <time>2014-01-11T13:38:36Z</time>
      </trkpt>
      <trkpt lat="48.00051" lon="-4.25882">
        <ele>146.73840332031</ele>
        <time>2014-01-11T13:38:42Z</time>
      </trkpt>
      <trkpt lat="48.0005" lon="-4.25883">
        <ele>146.2578125</ele>
        <time>2014-01-11T13:38:43Z</time>
      </trkpt>
      <trkpt lat="48.00047" lon="-4.25896">
        <ele>147.69970703125</ele>
        <time>2014-01-11T13:38:50Z</time>
      </trkpt>
      <trkpt lat="48.00046" lon="-4.25904">
        <ele>149.1416015625</ele>
        <time>2014-01-11T13:38:54Z</time>
      </trkpt>
      <trkpt lat="48.00046" lon="-4.25905">
        <ele>149.62231445312</ele>
        <time>2014-01-11T13:38:55Z</time>
      </trkpt>
      <trkpt lat="48.00042" lon="-4.25917">
        <ele>149.62231445312</ele>
        <time>2014-01-11T13:39:00Z</time>
      </trkpt>
      <trkpt lat="48.00041" lon="-4.25922">
        <ele>149.62231445312</ele>
        <time>2014-01-11T13:39:02Z</time>
      </trkpt>
      <trkpt lat="48.00041" lon="-4.25927">
        <ele>150.10302734375</ele>
        <time>2014-01-11T13:39:04Z</time>
      </trkpt>
      <trkpt lat="48.0004" lon="-4.25937">
        <ele>148.66101074219</ele>
        <time>2014-01-11T13:39:10Z</time>
      </trkpt>
      <trkpt lat="48.0004" lon="-4.25939">
        <ele>148.66101074219</ele>
        <time>2014-01-11T13:39:12Z</time>
      </trkpt>
      <trkpt lat="48.00037" lon="-4.25948">
        <ele>147.69970703125</ele>
        <time>2014-01-11T13:39:17Z</time>
      </trkpt>
      <trkpt lat="48.00033" lon="-4.25954">
        <ele>149.1416015625</ele>
        <time>2014-01-11T13:39:21Z</time>
      </trkpt>
      <trkpt lat="48.00031" lon="-4.25961">
        <ele>147.69970703125</ele>
        <time>2014-01-11T13:39:26Z</time>
      </trkpt>
      <trkpt lat="48.00027" lon="-4.25963">
        <ele>145.29638671875</ele>
        <time>2014-01-11T13:39:29Z</time>
      </trkpt>
      <trkpt lat="48.00026" lon="-4.25968">
        <ele>145.77709960938</ele>
        <time>2014-01-11T13:39:32Z</time>
      </trkpt>
      <trkpt lat="48.00024" lon="-4.25974">
        <ele>143.37365722656</ele>
        <time>2014-01-11T13:39:36Z</time>
      </trkpt>
      <trkpt lat="48.00022" lon="-4.25988">
        <ele>140.97045898438</ele>
        <time>2014-01-11T13:39:44Z</time>
      </trkpt>
      <trkpt lat="48.0002" lon="-4.25995">
        <ele>140.00915527344</ele>
        <time>2014-01-11T13:39:48Z</time>
      </trkpt>
      <trkpt lat="48.00019" lon="-4.26006">
        <ele>140.97045898438</ele>
        <time>2014-01-11T13:39:53Z</time>
      </trkpt>
      <trkpt lat="48.00014" lon="-4.26016">
        <ele>140.48986816406</ele>
        <time>2014-01-11T13:39:58Z</time>
      </trkpt>
      <trkpt lat="48.00013" lon="-4.26022">
        <ele>141.93176269531</ele>
        <time>2014-01-11T13:40:00Z</time>
      </trkpt>
      <trkpt lat="48.00013" lon="-4.26027">
        <ele>140.48986816406</ele>
        <time>2014-01-11T13:40:03Z</time>
      </trkpt>
      <trkpt lat="48.00012" lon="-4.26036">
        <ele>141.45104980469</ele>
        <time>2014-01-11T13:40:06Z</time>
      </trkpt>
      <trkpt lat="48.00011" lon="-4.26041">
        <ele>141.93176269531</ele>
        <time>2014-01-11T13:40:10Z</time>
      </trkpt>
      <trkpt lat="48.00007" lon="-4.26051">
        <ele>141.93176269531</ele>
        <time>2014-01-11T13:40:15Z</time>
      </trkpt>
      <trkpt lat="48.00008" lon="-4.26059">
        <ele>140.48986816406</ele>
        <time>2014-01-11T13:40:19Z</time>
      </trkpt>
      <trkpt lat="48.00006" lon="-4.26063">
        <ele>140.48986816406</ele>
        <time>2014-01-11T13:40:21Z</time>
      </trkpt>
      <trkpt lat="48.00002" lon="-4.26074">
        <ele>142.89306640625</ele>
        <time>2014-01-11T13:40:28Z</time>
      </trkpt>
      <trkpt lat="48.00001" lon="-4.26082">
        <ele>143.37365722656</ele>
        <time>2014-01-11T13:40:32Z</time>
      </trkpt>
      <trkpt lat="47.99996" lon="-4.26091">
        <ele>141.93176269531</ele>
        <time>2014-01-11T13:40:37Z</time>
      </trkpt>
      <trkpt lat="47.99992" lon="-4.26097">
        <ele>141.45104980469</ele>
        <time>2014-01-11T13:40:41Z</time>
      </trkpt>
      <trkpt lat="47.99989" lon="-4.26106">
        <ele>141.93176269531</ele>
        <time>2014-01-11T13:40:46Z</time>
      </trkpt>
      <trkpt lat="47.99989" lon="-4.26107">
        <ele>141.45104980469</ele>
        <time>2014-01-11T13:40:47Z</time>
      </trkpt>
      <trkpt lat="47.99983" lon="-4.2612">
        <ele>141.45104980469</ele>
        <time>2014-01-11T13:40:52Z</time>
      </trkpt>
      <trkpt lat="47.99981" lon="-4.2613">
        <ele>142.89306640625</ele>
        <time>2014-01-11T13:40:58Z</time>
      </trkpt>
      <trkpt lat="47.99981" lon="-4.26139">
        <ele>143.85437011719</ele>
        <time>2014-01-11T13:41:03Z</time>
      </trkpt>
      <trkpt lat="47.99981" lon="-4.26141">
        <ele>143.85437011719</ele>
        <time>2014-01-11T13:41:04Z</time>
      </trkpt>
      <trkpt lat="47.99982" lon="-4.2615">
        <ele>145.29638671875</ele>
        <time>2014-01-11T13:41:10Z</time>
      </trkpt>
      <trkpt lat="47.99981" lon="-4.26159">
        <ele>145.29638671875</ele>
        <time>2014-01-11T13:41:15Z</time>
      </trkpt>
      <trkpt lat="47.99982" lon="-4.26162">
        <ele>145.29638671875</ele>
        <time>2014-01-11T13:41:17Z</time>
      </trkpt>
      <trkpt lat="47.99982" lon="-4.26164">
        <ele>144.81579589844</ele>
        <time>2014-01-11T13:41:19Z</time>
      </trkpt>
      <trkpt lat="47.9998" lon="-4.26176">
        <ele>145.29638671875</ele>
        <time>2014-01-11T13:41:25Z</time>
      </trkpt>
      <trkpt lat="47.99978" lon="-4.26183">
        <ele>144.81579589844</ele>
        <time>2014-01-11T13:41:29Z</time>
      </trkpt>
      <trkpt lat="47.99978" lon="-4.26188">
        <ele>144.33520507812</ele>
        <time>2014-01-11T13:41:31Z</time>
      </trkpt>
      <trkpt lat="47.99977" lon="-4.26198">
        <ele>143.85437011719</ele>
        <time>2014-01-11T13:41:35Z</time>
      </trkpt>
      <trkpt lat="47.99977" lon="-4.26201">
        <ele>144.81579589844</ele>
        <time>2014-01-11T13:41:37Z</time>
      </trkpt>
      <trkpt lat="47.99973" lon="-4.26211">
        <ele>142.89306640625</ele>
        <time>2014-01-11T13:41:42Z</time>
      </trkpt>
      <trkpt lat="47.99971" lon="-4.26222">
        <ele>142.89306640625</ele>
        <time>2014-01-11T13:41:47Z</time>
      </trkpt>
      <trkpt lat="47.99969" lon="-4.26227">
        <ele>142.89306640625</ele>
        <time>2014-01-11T13:41:50Z</time>
      </trkpt>
      <trkpt lat="47.99964" lon="-4.26234">
        <ele>141.93176269531</ele>
        <time>2014-01-11T13:41:55Z</time>
      </trkpt>
      <trkpt lat="47.9996" lon="-4.26242">
        <ele>141.93176269531</ele>
        <time>2014-01-11T13:41:59Z</time>
      </trkpt>
      <trkpt lat="47.99955" lon="-4.26247">
        <ele>141.93176269531</ele>
        <time>2014-01-11T13:42:03Z</time>
      </trkpt>
      <trkpt lat="47.99951" lon="-4.26253">
        <ele>141.93176269531</ele>
        <time>2014-01-11T13:42:07Z</time>
      </trkpt>
      <trkpt lat="47.99948" lon="-4.26262">
        <ele>142.41247558594</ele>
        <time>2014-01-11T13:42:11Z</time>
      </trkpt>
      <trkpt lat="47.99948" lon="-4.26264">
        <ele>143.37365722656</ele>
        <time>2014-01-11T13:42:12Z</time>
      </trkpt>
      <trkpt lat="47.99944" lon="-4.26274">
        <ele>143.85437011719</ele>
        <time>2014-01-11T13:42:17Z</time>
      </trkpt>
      <trkpt lat="47.99944" lon="-4.26278">
        <ele>145.29638671875</ele>
        <time>2014-01-11T13:42:20Z</time>
      </trkpt>
      <trkpt lat="47.99941" lon="-4.26287">
        <ele>144.81579589844</ele>
        <time>2014-01-11T13:42:25Z</time>
      </trkpt>
      <trkpt lat="47.99937" lon="-4.26293">
        <ele>142.41247558594</ele>
        <time>2014-01-11T13:42:29Z</time>
      </trkpt>
      <trkpt lat="47.99936" lon="-4.26301">
        <ele>142.41247558594</ele>
        <time>2014-01-11T13:42:33Z</time>
      </trkpt>
      <trkpt lat="47.99933" lon="-4.2631">
        <ele>141.45104980469</ele>
        <time>2014-01-11T13:42:38Z</time>
      </trkpt>
      <trkpt lat="47.99935" lon="-4.26317">
        <ele>140.00915527344</ele>
        <time>2014-01-11T13:42:43Z</time>
      </trkpt>
      <trkpt lat="47.99938" lon="-4.26318">
        <ele>139.52844238281</ele>
        <time>2014-01-11T13:42:45Z</time>
      </trkpt>
      <trkpt lat="47.99942" lon="-4.26319">
        <ele>137.60583496094</ele>
        <time>2014-01-11T13:42:48Z</time>
      </trkpt>
      <trkpt lat="47.99946" lon="-4.26321">
        <ele>136.64465332031</ele>
        <time>2014-01-11T13:42:52Z</time>
      </trkpt>
      <trkpt lat="47.99956" lon="-4.26323">
        <ele>133.76049804688</ele>
        <time>2014-01-11T13:43:00Z</time>
      </trkpt>
      <trkpt lat="47.99961" lon="-4.26323">
        <ele>133.76049804688</ele>
        <time>2014-01-11T13:43:04Z</time>
      </trkpt>
      <trkpt lat="47.99968" lon="-4.26323">
        <ele>133.27990722656</ele>
        <time>2014-01-11T13:43:09Z</time>
      </trkpt>
      <trkpt lat="47.99977" lon="-4.26325">
        <ele>135.20251464844</ele>
        <time>2014-01-11T13:43:15Z</time>
      </trkpt>
      <trkpt lat="47.99988" lon="-4.26326">
        <ele>137.12524414062</ele>
        <time>2014-01-11T13:43:23Z</time>
      </trkpt>
      <trkpt lat="47.99989" lon="-4.26327">
        <ele>137.12524414062</ele>
        <time>2014-01-11T13:43:24Z</time>
      </trkpt>
      <trkpt lat="47.99998" lon="-4.26328">
        <ele>139.0478515625</ele>
        <time>2014-01-11T13:43:32Z</time>
      </trkpt>
      <trkpt lat="48.00006" lon="-4.26328">
        <ele>140.48986816406</ele>
        <time>2014-01-11T13:43:38Z</time>
      </trkpt>
      <trkpt lat="48.00013" lon="-4.26325">
        <ele>141.45104980469</ele>
        <time>2014-01-11T13:43:44Z</time>
      </trkpt>
      <trkpt lat="48.00022" lon="-4.26323">
        <ele>142.41247558594</ele>
        <time>2014-01-11T13:43:51Z</time>
      </trkpt>
      <trkpt lat="48.0003" lon="-4.26325">
        <ele>142.89306640625</ele>
        <time>2014-01-11T13:43:58Z</time>
      </trkpt>
      <trkpt lat="48.00039" lon="-4.26329">
        <ele>144.33520507812</ele>
        <time>2014-01-11T13:44:05Z</time>
      </trkpt>
      <trkpt lat="48.00047" lon="-4.26334">
        <ele>144.81579589844</ele>
        <time>2014-01-11T13:44:11Z</time>
      </trkpt>
      <trkpt lat="48.00051" lon="-4.26338">
        <ele>145.77709960938</ele>
        <time>2014-01-11T13:44:16Z</time>
      </trkpt>
      <trkpt lat="48.00057" lon="-4.26342">
        <ele>146.73840332031</ele>
        <time>2014-01-11T13:44:21Z</time>
      </trkpt>
      <trkpt lat="48.00063" lon="-4.26346">
        <ele>147.21899414062</ele>
        <time>2014-01-11T13:44:27Z</time>
      </trkpt>
      <trkpt lat="48.00069" lon="-4.26349">
        <ele>147.21899414062</ele>
        <time>2014-01-11T13:44:31Z</time>
      </trkpt>
      <trkpt lat="48.00073" lon="-4.26353">
        <ele>147.69970703125</ele>
        <time>2014-01-11T13:44:35Z</time>
      </trkpt>
      <trkpt lat="48.00081" lon="-4.26357">
        <ele>147.69970703125</ele>
        <time>2014-01-11T13:44:42Z</time>
      </trkpt>
      <trkpt lat="48.00087" lon="-4.26363">
        <ele>148.66101074219</ele>
        <time>2014-01-11T13:44:48Z</time>
      </trkpt>
      <trkpt lat="48.00097" lon="-4.26368">
        <ele>147.69970703125</ele>
        <time>2014-01-11T13:44:55Z</time>
      </trkpt>
      <trkpt lat="48.00101" lon="-4.26374">
        <ele>145.77709960938</ele>
        <time>2014-01-11T13:44:59Z</time>
      </trkpt>
      <trkpt lat="48.00102" lon="-4.26378">
        <ele>145.29638671875</ele>
        <time>2014-01-11T13:45:01Z</time>
      </trkpt>
      <trkpt lat="48.00104" lon="-4.26383">
        <ele>145.77709960938</ele>
        <time>2014-01-11T13:45:05Z</time>
      </trkpt>
      <trkpt lat="48.00107" lon="-4.26385">
        <ele>146.73840332031</ele>
        <time>2014-01-11T13:45:08Z</time>
      </trkpt>
      <trkpt lat="48.00113" lon="-4.26375">
        <ele>147.69970703125</ele>
        <time>2014-01-11T13:45:15Z</time>
      </trkpt>
      <trkpt lat="48.00115" lon="-4.26372">
        <ele>148.18041992188</ele>
        <time>2014-01-11T13:45:17Z</time>
      </trkpt>
      <trkpt lat="48.00119" lon="-4.26363">
        <ele>149.62231445312</ele>
        <time>2014-01-11T13:45:22Z</time>
      </trkpt>
      <trkpt lat="48.00123" lon="-4.26356">
        <ele>150.58361816406</ele>
        <time>2014-01-11T13:45:27Z</time>
      </trkpt>
      <trkpt lat="48.00126" lon="-4.26345">
        <ele>150.58361816406</ele>
        <time>2014-01-11T13:45:33Z</time>
      </trkpt>
      <trkpt lat="48.00126" lon="-4.26344">
        <ele>150.58361816406</ele>
        <time>2014-01-11T13:45:34Z</time>
      </trkpt>
      <trkpt lat="48.00127" lon="-4.26337">
        <ele>149.62231445312</ele>
        <time>2014-01-11T13:45:38Z</time>
      </trkpt>
      <trkpt lat="48.0013" lon="-4.26323">
        <ele>148.18041992188</ele>
        <time>2014-01-11T13:45:45Z</time>
      </trkpt>
      <trkpt lat="48.00133" lon="-4.26312">
        <ele>148.18041992188</ele>
        <time>2014-01-11T13:45:51Z</time>
      </trkpt>
      <trkpt lat="48.00135" lon="-4.26302">
        <ele>147.69970703125</ele>
        <time>2014-01-11T13:45:56Z</time>
      </trkpt>
      <trkpt lat="48.0014" lon="-4.26284">
        <ele>145.77709960938</ele>
        <time>2014-01-11T13:46:06Z</time>
      </trkpt>
      <trkpt lat="48.00143" lon="-4.26271">
        <ele>145.29638671875</ele>
        <time>2014-01-11T13:46:13Z</time>
      </trkpt>
      <trkpt lat="48.00144" lon="-4.26262">
        <ele>144.81579589844</ele>
        <time>2014-01-11T13:46:18Z</time>
      </trkpt>
      <trkpt lat="48.00145" lon="-4.26254">
        <ele>144.81579589844</ele>
        <time>2014-01-11T13:46:22Z</time>
      </trkpt>
      <trkpt lat="48.00146" lon="-4.26244">
        <ele>143.85437011719</ele>
        <time>2014-01-11T13:46:28Z</time>
      </trkpt>
      <trkpt lat="48.00148" lon="-4.26236">
        <ele>143.85437011719</ele>
        <time>2014-01-11T13:46:32Z</time>
      </trkpt>
      <trkpt lat="48.00155" lon="-4.26231">
        <ele>145.77709960938</ele>
        <time>2014-01-11T13:46:38Z</time>
      </trkpt>
      <trkpt lat="48.00159" lon="-4.26231">
        <ele>146.2578125</ele>
        <time>2014-01-11T13:46:41Z</time>
      </trkpt>
      <trkpt lat="48.00165" lon="-4.26233">
        <ele>144.81579589844</ele>
        <time>2014-01-11T13:46:48Z</time>
      </trkpt>
      <trkpt lat="48.00172" lon="-4.26233">
        <ele>142.89306640625</ele>
        <time>2014-01-11T13:46:54Z</time>
      </trkpt>
      <trkpt lat="48.00175" lon="-4.26234">
        <ele>141.93176269531</ele>
        <time>2014-01-11T13:46:58Z</time>
      </trkpt>
      <trkpt lat="48.00183" lon="-4.26236">
        <ele>141.93176269531</ele>
        <time>2014-01-11T13:47:04Z</time>
      </trkpt>
      <trkpt lat="48.00189" lon="-4.26237">
        <ele>141.45104980469</ele>
        <time>2014-01-11T13:47:09Z</time>
      </trkpt>
      <trkpt lat="48.00197" lon="-4.26239">
        <ele>141.93176269531</ele>
        <time>2014-01-11T13:47:15Z</time>
      </trkpt>
      <trkpt lat="48.00203" lon="-4.2624">
        <ele>142.41247558594</ele>
        <time>2014-01-11T13:47:20Z</time>
      </trkpt>
      <trkpt lat="48.00211" lon="-4.26243">
        <ele>142.41247558594</ele>
        <time>2014-01-11T13:47:26Z</time>
      </trkpt>
      <trkpt lat="48.00213" lon="-4.26244">
        <ele>142.89306640625</ele>
        <time>2014-01-11T13:47:28Z</time>
      </trkpt>
      <trkpt lat="48.00222" lon="-4.2625">
        <ele>144.33520507812</ele>
        <time>2014-01-11T13:47:35Z</time>
      </trkpt>
      <trkpt lat="48.00228" lon="-4.2625">
        <ele>142.89306640625</ele>
        <time>2014-01-11T13:47:40Z</time>
      </trkpt>
      <trkpt lat="48.0023" lon="-4.26247">
        <ele>141.45104980469</ele>
        <time>2014-01-11T13:47:43Z</time>
      </trkpt>
      <trkpt lat="48.00235" lon="-4.26236">
        <ele>141.45104980469</ele>
        <time>2014-01-11T13:47:49Z</time>
      </trkpt>
      <trkpt lat="48.00237" lon="-4.26231">
        <ele>141.45104980469</ele>
        <time>2014-01-11T13:47:55Z</time>
      </trkpt>
      <trkpt lat="48.00241" lon="-4.26217">
        <ele>140.48986816406</ele>
        <time>2014-01-11T13:48:02Z</time>
      </trkpt>
      <trkpt lat="48.00244" lon="-4.26206">
        <ele>139.52844238281</ele>
        <time>2014-01-11T13:48:07Z</time>
      </trkpt>
      <trkpt lat="48.00246" lon="-4.26199">
        <ele>139.52844238281</ele>
        <time>2014-01-11T13:48:11Z</time>
      </trkpt>
      <trkpt lat="48.00251" lon="-4.2619">
        <ele>139.52844238281</ele>
        <time>2014-01-11T13:48:16Z</time>
      </trkpt>
      <trkpt lat="48.00253" lon="-4.26188">
        <ele>139.0478515625</ele>
        <time>2014-01-11T13:48:19Z</time>
      </trkpt>
      <trkpt lat="48.00258" lon="-4.2619">
        <ele>137.12524414062</ele>
        <time>2014-01-11T13:48:24Z</time>
      </trkpt>
      <trkpt lat="48.00263" lon="-4.26193">
        <ele>133.76049804688</ele>
        <time>2014-01-11T13:48:29Z</time>
      </trkpt>
      <trkpt lat="48.00268" lon="-4.26194">
        <ele>131.35729980469</ele>
        <time>2014-01-11T13:48:34Z</time>
      </trkpt>
      <trkpt lat="48.00273" lon="-4.26197">
        <ele>129.91528320312</ele>
        <time>2014-01-11T13:48:38Z</time>
      </trkpt>
      <trkpt lat="48.00279" lon="-4.26199">
        <ele>128.47338867188</ele>
        <time>2014-01-11T13:48:43Z</time>
      </trkpt>
      <trkpt lat="48.00283" lon="-4.262">
        <ele>127.03137207031</ele>
        <time>2014-01-11T13:48:47Z</time>
      </trkpt>
      <trkpt lat="48.0029" lon="-4.26199">
        <ele>125.58935546875</ele>
        <time>2014-01-11T13:48:52Z</time>
      </trkpt>
      <trkpt lat="48.00295" lon="-4.26199">
        <ele>123.18615722656</ele>
        <time>2014-01-11T13:48:56Z</time>
      </trkpt>
      <trkpt lat="48.00301" lon="-4.26201">
        <ele>122.70544433594</ele>
        <time>2014-01-11T13:49:01Z</time>
      </trkpt>
      <trkpt lat="48.00304" lon="-4.26202">
        <ele>123.18615722656</ele>
        <time>2014-01-11T13:49:04Z</time>
      </trkpt>
      <trkpt lat="48.00314" lon="-4.26202">
        <ele>123.18615722656</ele>
        <time>2014-01-11T13:49:10Z</time>
      </trkpt>
      <trkpt lat="48.00317" lon="-4.26203">
        <ele>123.18615722656</ele>
        <time>2014-01-11T13:49:15Z</time>
      </trkpt>
      <trkpt lat="48.00322" lon="-4.26205">
        <ele>122.70544433594</ele>
        <time>2014-01-11T13:49:19Z</time>
      </trkpt>
      <trkpt lat="48.0033" lon="-4.26206">
        <ele>121.744140625</ele>
        <time>2014-01-11T13:49:25Z</time>
      </trkpt>
      <trkpt lat="48.00338" lon="-4.26206">
        <ele>119.82141113281</ele>
        <time>2014-01-11T13:49:32Z</time>
      </trkpt>
      <trkpt lat="48.00339" lon="-4.26207">
        <ele>119.3408203125</ele>
        <time>2014-01-11T13:49:33Z</time>
      </trkpt>
      <trkpt lat="48.00346" lon="-4.26209">
        <ele>117.89880371094</ele>
        <time>2014-01-11T13:49:39Z</time>
      </trkpt>
      <trkpt lat="48.00351" lon="-4.2621">
        <ele>116.45678710938</ele>
        <time>2014-01-11T13:49:43Z</time>
      </trkpt>
      <trkpt lat="48.00359" lon="-4.26211">
        <ele>113.57299804688</ele>
        <time>2014-01-11T13:49:50Z</time>
      </trkpt>
      <trkpt lat="48.00361" lon="-4.26211">
        <ele>113.09228515625</ele>
        <time>2014-01-11T13:49:51Z</time>
      </trkpt>
      <trkpt lat="48.00369" lon="-4.26214">
        <ele>111.65026855469</ele>
        <time>2014-01-11T13:49:58Z</time>
      </trkpt>
      <trkpt lat="48.00376" lon="-4.26215">
        <ele>110.68884277344</ele>
        <time>2014-01-11T13:50:03Z</time>
      </trkpt>
      <trkpt lat="48.00382" lon="-4.26216">
        <ele>110.20825195312</ele>
        <time>2014-01-11T13:50:08Z</time>
      </trkpt>
      <trkpt lat="48.00388" lon="-4.26216">
        <ele>109.24694824219</ele>
        <time>2014-01-11T13:50:12Z</time>
      </trkpt>
      <trkpt lat="48.00395" lon="-4.26215">
        <ele>108.28564453125</ele>
        <time>2014-01-11T13:50:17Z</time>
      </trkpt>
      <trkpt lat="48.00402" lon="-4.26217">
        <ele>108.28564453125</ele>
        <time>2014-01-11T13:50:22Z</time>
      </trkpt>
      <trkpt lat="48.00406" lon="-4.26217">
        <ele>107.80505371094</ele>
        <time>2014-01-11T13:50:25Z</time>
      </trkpt>
      <trkpt lat="48.0041" lon="-4.26216">
        <ele>107.32434082031</ele>
        <time>2014-01-11T13:50:28Z</time>
      </trkpt>
      <trkpt lat="48.00417" lon="-4.2622">
        <ele>107.80505371094</ele>
        <time>2014-01-11T13:50:34Z</time>
      </trkpt>
      <trkpt lat="48.00423" lon="-4.26222">
        <ele>108.76623535156</ele>
        <time>2014-01-11T13:50:39Z</time>
      </trkpt>
      <trkpt lat="48.00424" lon="-4.26223">
        <ele>109.24694824219</ele>
        <time>2014-01-11T13:50:40Z</time>
      </trkpt>
      <trkpt lat="48.0043" lon="-4.26226">
        <ele>108.76623535156</ele>
        <time>2014-01-11T13:50:45Z</time>
      </trkpt>
      <trkpt lat="48.00437" lon="-4.26231">
        <ele>108.76623535156</ele>
        <time>2014-01-11T13:50:51Z</time>
      </trkpt>
      <trkpt lat="48.00443" lon="-4.26236">
        <ele>108.28564453125</ele>
        <time>2014-01-11T13:50:56Z</time>
      </trkpt>
      <trkpt lat="48.00453" lon="-4.26243">
        <ele>108.28564453125</ele>
        <time>2014-01-11T13:51:04Z</time>
      </trkpt>
      <trkpt lat="48.00459" lon="-4.2625">
        <ele>107.80505371094</ele>
        <time>2014-01-11T13:51:11Z</time>
      </trkpt>
      <trkpt lat="48.00464" lon="-4.26252">
        <ele>106.84362792969</ele>
        <time>2014-01-11T13:51:15Z</time>
      </trkpt>
      <trkpt lat="48.00469" lon="-4.26258">
        <ele>105.88244628906</ele>
        <time>2014-01-11T13:51:21Z</time>
      </trkpt>
      <trkpt lat="48.00471" lon="-4.2626">
        <ele>105.40173339844</ele>
        <time>2014-01-11T13:51:23Z</time>
      </trkpt>
      <trkpt lat="48.00472" lon="-4.26262">
        <ele>103.95971679688</ele>
        <time>2014-01-11T13:51:29Z</time>
      </trkpt>
      <trkpt lat="48.00472" lon="-4.2626">
        <ele>102.99829101562</ele>
        <time>2014-01-11T13:51:38Z</time>
      </trkpt>
      <trkpt lat="48.00473" lon="-4.26259">
        <ele>101.55639648438</ele>
        <time>2014-01-11T13:51:53Z</time>
      </trkpt>
      <trkpt lat="48.00476" lon="-4.26264">
        <ele>100.59509277344</ele>
        <time>2014-01-11T13:51:58Z</time>
      </trkpt>
      <trkpt lat="48.00475" lon="-4.2627">
        <ele>102.51770019531</ele>
        <time>2014-01-11T13:52:02Z</time>
      </trkpt>
      <trkpt lat="48.00474" lon="-4.26273">
        <ele>102.51770019531</ele>
        <time>2014-01-11T13:52:04Z</time>
      </trkpt>
      <trkpt lat="48.00469" lon="-4.26283">
        <ele>103.47900390625</ele>
        <time>2014-01-11T13:52:11Z</time>
      </trkpt>
      <trkpt lat="48.00468" lon="-4.26284">
        <ele>102.99829101562</ele>
        <time>2014-01-11T13:52:12Z</time>
      </trkpt>
      <trkpt lat="48.00462" lon="-4.26295">
        <ele>104.92102050781</ele>
        <time>2014-01-11T13:52:20Z</time>
      </trkpt>
      <trkpt lat="48.00454" lon="-4.26305">
        <ele>106.36303710938</ele>
        <time>2014-01-11T13:52:28Z</time>
      </trkpt>
      <trkpt lat="48.00448" lon="-4.26314">
        <ele>108.76623535156</ele>
        <time>2014-01-11T13:52:35Z</time>
      </trkpt>
      <trkpt lat="48.00443" lon="-4.26326">
        <ele>110.68884277344</ele>
        <time>2014-01-11T13:52:42Z</time>
      </trkpt>
      <trkpt lat="48.00439" lon="-4.26337">
        <ele>112.13098144531</ele>
        <time>2014-01-11T13:52:49Z</time>
      </trkpt>
      <trkpt lat="48.00435" lon="-4.26348">
        <ele>112.13098144531</ele>
        <time>2014-01-11T13:52:55Z</time>
      </trkpt>
      <trkpt lat="48.00431" lon="-4.26364">
        <ele>112.61157226562</ele>
        <time>2014-01-11T13:53:04Z</time>
      </trkpt>
      <trkpt lat="48.00426" lon="-4.26378">
        <ele>114.05358886719</ele>
        <time>2014-01-11T13:53:12Z</time>
      </trkpt>
      <trkpt lat="48.00423" lon="-4.26389">
        <ele>115.97619628906</ele>
        <time>2014-01-11T13:53:18Z</time>
      </trkpt>
      <trkpt lat="48.00418" lon="-4.26402">
        <ele>118.37939453125</ele>
        <time>2014-01-11T13:53:26Z</time>
      </trkpt>
      <trkpt lat="48.00417" lon="-4.26406">
        <ele>118.37939453125</ele>
        <time>2014-01-11T13:53:28Z</time>
      </trkpt>
      <trkpt lat="48.00413" lon="-4.26417">
        <ele>119.82141113281</ele>
        <time>2014-01-11T13:53:35Z</time>
      </trkpt>
      <trkpt lat="48.0041" lon="-4.26428">
        <ele>120.78283691406</ele>
        <time>2014-01-11T13:53:41Z</time>
      </trkpt>
      <trkpt lat="48.0041" lon="-4.26429">
        <ele>120.78283691406</ele>
        <time>2014-01-11T13:53:42Z</time>
      </trkpt>
      <trkpt lat="48.00409" lon="-4.26434">
        <ele>120.78283691406</ele>
        <time>2014-01-11T13:53:45Z</time>
      </trkpt>
      <trkpt lat="48.00407" lon="-4.26441">
        <ele>120.30212402344</ele>
        <time>2014-01-11T13:53:49Z</time>
      </trkpt>
      <trkpt lat="48.00406" lon="-4.26445">
        <ele>120.30212402344</ele>
        <time>2014-01-11T13:53:51Z</time>
      </trkpt>
      <trkpt lat="48.00403" lon="-4.26453">
        <ele>120.78283691406</ele>
        <time>2014-01-11T13:53:56Z</time>
      </trkpt>
      <trkpt lat="48.00402" lon="-4.26463">
        <ele>119.3408203125</ele>
        <time>2014-01-11T13:54:01Z</time>
      </trkpt>
      <trkpt lat="48.00399" lon="-4.26473">
        <ele>117.41821289062</ele>
        <time>2014-01-11T13:54:07Z</time>
      </trkpt>
      <trkpt lat="48.00397" lon="-4.26482">
        <ele>118.86010742188</ele>
        <time>2014-01-11T13:54:12Z</time>
      </trkpt>
      <trkpt lat="48.00394" lon="-4.26489">
        <ele>119.3408203125</ele>
        <time>2014-01-11T13:54:16Z</time>
      </trkpt>
      <trkpt lat="48.0039" lon="-4.26502">
        <ele>119.3408203125</ele>
        <time>2014-01-11T13:54:24Z</time>
      </trkpt>
      <trkpt lat="48.00388" lon="-4.26511">
        <ele>122.22473144531</ele>
        <time>2014-01-11T13:54:29Z</time>
      </trkpt>
      <trkpt lat="48.00388" lon="-4.26516">
        <ele>123.66674804688</ele>
        <time>2014-01-11T13:54:32Z</time>
      </trkpt>
      <trkpt lat="48.00386" lon="-4.26524">
        <ele>124.62805175781</ele>
        <time>2014-01-11T13:54:36Z</time>
      </trkpt>
      <trkpt lat="48.00384" lon="-4.26539">
        <ele>122.70544433594</ele>
        <time>2014-01-11T13:54:44Z</time>
      </trkpt>
      <trkpt lat="48.00385" lon="-4.26551">
        <ele>123.18615722656</ele>
        <time>2014-01-11T13:54:51Z</time>
      </trkpt>
      <trkpt lat="48.00384" lon="-4.26557">
        <ele>120.30212402344</ele>
        <time>2014-01-11T13:54:55Z</time>
      </trkpt>
      <trkpt lat="48.00384" lon="-4.2656">
        <ele>119.3408203125</ele>
        <time>2014-01-11T13:54:57Z</time>
      </trkpt>
      <trkpt lat="48.00386" lon="-4.2657">
        <ele>121.26354980469</ele>
        <time>2014-01-11T13:55:02Z</time>
      </trkpt>
      <trkpt lat="48.00384" lon="-4.2658">
        <ele>122.22473144531</ele>
        <time>2014-01-11T13:55:07Z</time>
      </trkpt>
      <trkpt lat="48.00382" lon="-4.26589">
        <ele>122.70544433594</ele>
        <time>2014-01-11T13:55:12Z</time>
      </trkpt>
      <trkpt lat="48.00382" lon="-4.26603">
        <ele>124.62805175781</ele>
        <time>2014-01-11T13:55:20Z</time>
      </trkpt>
      <trkpt lat="48.00384" lon="-4.26617">
        <ele>125.10876464844</ele>
        <time>2014-01-11T13:55:26Z</time>
      </trkpt>
      <trkpt lat="48.00382" lon="-4.26631">
        <ele>125.10876464844</ele>
        <time>2014-01-11T13:55:32Z</time>
      </trkpt>
      <trkpt lat="48.00381" lon="-4.26644">
        <ele>126.06994628906</ele>
        <time>2014-01-11T13:55:38Z</time>
      </trkpt>
      <trkpt lat="48.00381" lon="-4.26646">
        <ele>127.03137207031</ele>
        <time>2014-01-11T13:55:39Z</time>
      </trkpt>
      <trkpt lat="48.00382" lon="-4.26655">
        <ele>126.06994628906</ele>
        <time>2014-01-11T13:55:44Z</time>
      </trkpt>
      <trkpt lat="48.00382" lon="-4.26659">
        <ele>126.55065917969</ele>
        <time>2014-01-11T13:55:46Z</time>
      </trkpt>
      <trkpt lat="48.00382" lon="-4.26671">
        <ele>127.03137207031</ele>
        <time>2014-01-11T13:55:52Z</time>
      </trkpt>
      <trkpt lat="48.00382" lon="-4.26684">
        <ele>126.06994628906</ele>
        <time>2014-01-11T13:55:58Z</time>
      </trkpt>
      <trkpt lat="48.00382" lon="-4.26688">
        <ele>126.55065917969</ele>
        <time>2014-01-11T13:56:00Z</time>
      </trkpt>
      <trkpt lat="48.00385" lon="-4.26699">
        <ele>128.9541015625</ele>
        <time>2014-01-11T13:56:06Z</time>
      </trkpt>
      <trkpt lat="48.00388" lon="-4.26711">
        <ele>132.31860351562</ele>
        <time>2014-01-11T13:56:13Z</time>
      </trkpt>
      <trkpt lat="48.0039" lon="-4.26715">
        <ele>134.72192382812</ele>
        <time>2014-01-11T13:56:15Z</time>
      </trkpt>
      <trkpt lat="48.0039" lon="-4.26727">
        <ele>136.64465332031</ele>
        <time>2014-01-11T13:56:21Z</time>
      </trkpt>
      <trkpt lat="48.00388" lon="-4.26732">
        <ele>130.39599609375</ele>
        <time>2014-01-11T13:56:24Z</time>
      </trkpt>
      <trkpt lat="48.00384" lon="-4.26739">
        <ele>127.51196289062</ele>
        <time>2014-01-11T13:56:28Z</time>
      </trkpt>
      <trkpt lat="48.0038" lon="-4.26743">
        <ele>121.26354980469</ele>
        <time>2014-01-11T13:56:33Z</time>
      </trkpt>
      <trkpt lat="48.00373" lon="-4.26743">
        <ele>119.82141113281</ele>
        <time>2014-01-11T13:56:39Z</time>
      </trkpt>
      <trkpt lat="48.00377" lon="-4.26747">
        <ele>99.153076171875</ele>
        <time>2014-01-11T13:56:54Z</time>
      </trkpt>
      <trkpt lat="48.00379" lon="-4.2675">
        <ele>102.99829101562</ele>
        <time>2014-01-11T13:56:57Z</time>
      </trkpt>
      <trkpt lat="48.0038" lon="-4.26762">
        <ele>112.13098144531</ele>
        <time>2014-01-11T13:57:04Z</time>
      </trkpt>
      <trkpt lat="48.00385" lon="-4.26777">
        <ele>126.55065917969</ele>
        <time>2014-01-11T13:57:12Z</time>
      </trkpt>
      <trkpt lat="48.00389" lon="-4.26793">
        <ele>138.08654785156</ele>
        <time>2014-01-11T13:57:19Z</time>
      </trkpt>
      <trkpt lat="48.00384" lon="-4.26805">
        <ele>134.72192382812</ele>
        <time>2014-01-11T13:57:26Z</time>
      </trkpt>
      <trkpt lat="48.00384" lon="-4.26807">
        <ele>134.2412109375</ele>
        <time>2014-01-11T13:57:27Z</time>
      </trkpt>
      <trkpt lat="48.00383" lon="-4.26813">
        <ele>133.27990722656</ele>
        <time>2014-01-11T13:57:33Z</time>
      </trkpt>
      <trkpt lat="48.00381" lon="-4.26823">
        <ele>133.76049804688</ele>
        <time>2014-01-11T13:57:39Z</time>
      </trkpt>
      <trkpt lat="48.00383" lon="-4.26834">
        <ele>130.87670898438</ele>
        <time>2014-01-11T13:57:45Z</time>
      </trkpt>
      <trkpt lat="48.00384" lon="-4.26845">
        <ele>130.39599609375</ele>
        <time>2014-01-11T13:57:51Z</time>
      </trkpt>
      <trkpt lat="48.00379" lon="-4.26861">
        <ele>129.91528320312</ele>
        <time>2014-01-11T13:57:56Z</time>
      </trkpt>
      <trkpt lat="48.00381" lon="-4.26874">
        <ele>131.35729980469</ele>
        <time>2014-01-11T13:58:04Z</time>
      </trkpt>
      <trkpt lat="48.00382" lon="-4.26878">
        <ele>130.39599609375</ele>
        <time>2014-01-11T13:58:06Z</time>
      </trkpt>
      <trkpt lat="48.00381" lon="-4.26894">
        <ele>131.35729980469</ele>
        <time>2014-01-11T13:58:14Z</time>
      </trkpt>
      <trkpt lat="48.00381" lon="-4.26895">
        <ele>131.837890625</ele>
        <time>2014-01-11T13:58:15Z</time>
      </trkpt>
      <trkpt lat="48.00379" lon="-4.26903">
        <ele>132.31860351562</ele>
        <time>2014-01-11T13:58:19Z</time>
      </trkpt>
      <trkpt lat="48.00382" lon="-4.26911">
        <ele>132.79931640625</ele>
        <time>2014-01-11T13:58:24Z</time>
      </trkpt>
      <trkpt lat="48.0038" lon="-4.26921">
        <ele>133.27990722656</ele>
        <time>2014-01-11T13:58:29Z</time>
      </trkpt>
      <trkpt lat="48.00379" lon="-4.26926">
        <ele>133.27990722656</ele>
        <time>2014-01-11T13:58:32Z</time>
      </trkpt>
      <trkpt lat="48.00381" lon="-4.26933">
        <ele>135.68310546875</ele>
        <time>2014-01-11T13:58:36Z</time>
      </trkpt>
      <trkpt lat="48.00381" lon="-4.26941">
        <ele>137.60583496094</ele>
        <time>2014-01-11T13:58:41Z</time>
      </trkpt>
      <trkpt lat="48.0038" lon="-4.26953">
        <ele>142.41247558594</ele>
        <time>2014-01-11T13:58:48Z</time>
      </trkpt>
      <trkpt lat="48.00377" lon="-4.26964">
        <ele>141.45104980469</ele>
        <time>2014-01-11T13:58:54Z</time>
      </trkpt>
      <trkpt lat="48.00374" lon="-4.2697">
        <ele>140.97045898438</ele>
        <time>2014-01-11T13:58:58Z</time>
      </trkpt>
      <trkpt lat="48.00372" lon="-4.26973">
        <ele>140.97045898438</ele>
        <time>2014-01-11T13:59:00Z</time>
      </trkpt>
      <trkpt lat="48.0037" lon="-4.26982">
        <ele>139.52844238281</ele>
        <time>2014-01-11T13:59:06Z</time>
      </trkpt>
      <trkpt lat="48.00369" lon="-4.26986">
        <ele>139.0478515625</ele>
        <time>2014-01-11T13:59:08Z</time>
      </trkpt>
      <trkpt lat="48.00368" lon="-4.2699">
        <ele>140.00915527344</ele>
        <time>2014-01-11T13:59:10Z</time>
      </trkpt>
      <trkpt lat="48.00365" lon="-4.26997">
        <ele>140.97045898438</ele>
        <time>2014-01-11T13:59:15Z</time>
      </trkpt>
      <trkpt lat="48.00358" lon="-4.27009">
        <ele>141.93176269531</ele>
        <time>2014-01-11T13:59:23Z</time>
      </trkpt>
      <trkpt lat="48.00356" lon="-4.27019">
        <ele>143.85437011719</ele>
        <time>2014-01-11T13:59:29Z</time>
      </trkpt>
      <trkpt lat="48.0035" lon="-4.27019">
        <ele>142.41247558594</ele>
        <time>2014-01-11T13:59:35Z</time>
      </trkpt>
      <trkpt lat="48.00349" lon="-4.27029">
        <ele>141.45104980469</ele>
        <time>2014-01-11T13:59:39Z</time>
      </trkpt>
      <trkpt lat="48.00348" lon="-4.27032">
        <ele>142.89306640625</ele>
        <time>2014-01-11T13:59:41Z</time>
      </trkpt>
      <trkpt lat="48.00343" lon="-4.27046">
        <ele>141.93176269531</ele>
        <time>2014-01-11T13:59:49Z</time>
      </trkpt>
      <trkpt lat="48.00339" lon="-4.2705">
        <ele>142.41247558594</ele>
        <time>2014-01-11T13:59:52Z</time>
      </trkpt>
      <trkpt lat="48.00336" lon="-4.27056">
        <ele>145.29638671875</ele>
        <time>2014-01-11T13:59:57Z</time>
      </trkpt>
      <trkpt lat="48.00332" lon="-4.2706">
        <ele>146.73840332031</ele>
        <time>2014-01-11T14:00:01Z</time>
      </trkpt>
      <trkpt lat="48.00325" lon="-4.27068">
        <ele>149.1416015625</ele>
        <time>2014-01-11T14:00:08Z</time>
      </trkpt>
      <trkpt lat="48.00319" lon="-4.27077">
        <ele>149.1416015625</ele>
        <time>2014-01-11T14:00:15Z</time>
      </trkpt>
      <trkpt lat="48.00317" lon="-4.27087">
        <ele>148.18041992188</ele>
        <time>2014-01-11T14:00:21Z</time>
      </trkpt>
      <trkpt lat="48.00318" lon="-4.27091">
        <ele>145.77709960938</ele>
        <time>2014-01-11T14:00:27Z</time>
      </trkpt>
      <trkpt lat="48.00318" lon="-4.27099">
        <ele>143.85437011719</ele>
        <time>2014-01-11T14:00:34Z</time>
      </trkpt>
      <trkpt lat="48.00318" lon="-4.27107">
        <ele>142.41247558594</ele>
        <time>2014-01-11T14:00:38Z</time>
      </trkpt>
      <trkpt lat="48.00316" lon="-4.27116">
        <ele>143.85437011719</ele>
        <time>2014-01-11T14:00:43Z</time>
      </trkpt>
      <trkpt lat="48.00316" lon="-4.2713">
        <ele>144.33520507812</ele>
        <time>2014-01-11T14:00:50Z</time>
      </trkpt>
      <trkpt lat="48.00317" lon="-4.27138">
        <ele>141.93176269531</ele>
        <time>2014-01-11T14:00:54Z</time>
      </trkpt>
      <trkpt lat="48.00318" lon="-4.2715">
        <ele>143.37365722656</ele>
        <time>2014-01-11T14:01:01Z</time>
      </trkpt>
      <trkpt lat="48.00316" lon="-4.27166">
        <ele>145.29638671875</ele>
        <time>2014-01-11T14:01:09Z</time>
      </trkpt>
      <trkpt lat="48.00314" lon="-4.27185">
        <ele>143.37365722656</ele>
        <time>2014-01-11T14:01:16Z</time>
      </trkpt>
      <trkpt lat="48.00315" lon="-4.27203">
        <ele>141.45104980469</ele>
        <time>2014-01-11T14:01:25Z</time>
      </trkpt>
      <trkpt lat="48.00314" lon="-4.27217">
        <ele>143.37365722656</ele>
        <time>2014-01-11T14:01:33Z</time>
      </trkpt>
      <trkpt lat="48.00314" lon="-4.27231">
        <ele>144.81579589844</ele>
        <time>2014-01-11T14:01:41Z</time>
      </trkpt>
      <trkpt lat="48.00312" lon="-4.27246">
        <ele>145.77709960938</ele>
        <time>2014-01-11T14:01:48Z</time>
      </trkpt>
      <trkpt lat="48.0031" lon="-4.27261">
        <ele>146.2578125</ele>
        <time>2014-01-11T14:01:56Z</time>
      </trkpt>
      <trkpt lat="48.0031" lon="-4.27276">
        <ele>144.33520507812</ele>
        <time>2014-01-11T14:02:04Z</time>
      </trkpt>
      <trkpt lat="48.0031" lon="-4.27289">
        <ele>145.77709960938</ele>
        <time>2014-01-11T14:02:11Z</time>
      </trkpt>
      <trkpt lat="48.00309" lon="-4.27302">
        <ele>147.21899414062</ele>
        <time>2014-01-11T14:02:18Z</time>
      </trkpt>
      <trkpt lat="48.00309" lon="-4.27318">
        <ele>146.2578125</ele>
        <time>2014-01-11T14:02:26Z</time>
      </trkpt>
      <trkpt lat="48.00309" lon="-4.27325">
        <ele>145.77709960938</ele>
        <time>2014-01-11T14:02:30Z</time>
      </trkpt>
      <trkpt lat="48.00308" lon="-4.27338">
        <ele>144.81579589844</ele>
        <time>2014-01-11T14:02:36Z</time>
      </trkpt>
      <trkpt lat="48.00308" lon="-4.2734">
        <ele>144.33520507812</ele>
        <time>2014-01-11T14:02:37Z</time>
      </trkpt>
      <trkpt lat="48.00311" lon="-4.27346">
        <ele>144.33520507812</ele>
        <time>2014-01-11T14:02:41Z</time>
      </trkpt>
      <trkpt lat="48.00309" lon="-4.27355">
        <ele>144.81579589844</ele>
        <time>2014-01-11T14:02:46Z</time>
      </trkpt>
      <trkpt lat="48.00307" lon="-4.27361">
        <ele>145.29638671875</ele>
        <time>2014-01-11T14:02:49Z</time>
      </trkpt>
      <trkpt lat="48.00303" lon="-4.27366">
        <ele>145.77709960938</ele>
        <time>2014-01-11T14:02:53Z</time>
      </trkpt>
      <trkpt lat="48.00301" lon="-4.27372">
        <ele>146.2578125</ele>
        <time>2014-01-11T14:02:57Z</time>
      </trkpt>
      <trkpt lat="48.00292" lon="-4.27379">
        <ele>145.77709960938</ele>
        <time>2014-01-11T14:03:05Z</time>
      </trkpt>
      <trkpt lat="48.00284" lon="-4.27385">
        <ele>145.29638671875</ele>
        <time>2014-01-11T14:03:12Z</time>
      </trkpt>
      <trkpt lat="48.00275" lon="-4.27392">
        <ele>143.85437011719</ele>
        <time>2014-01-11T14:03:20Z</time>
      </trkpt>
      <trkpt lat="48.00267" lon="-4.27398">
        <ele>142.89306640625</ele>
        <time>2014-01-11T14:03:27Z</time>
      </trkpt>
      <trkpt lat="48.00264" lon="-4.274">
        <ele>142.41247558594</ele>
        <time>2014-01-11T14:03:29Z</time>
      </trkpt>
      <trkpt lat="48.00257" lon="-4.27406">
        <ele>141.45104980469</ele>
        <time>2014-01-11T14:03:35Z</time>
      </trkpt>
      <trkpt lat="48.00253" lon="-4.27408">
        <ele>141.45104980469</ele>
        <time>2014-01-11T14:03:39Z</time>
      </trkpt>
      <trkpt lat="48.00245" lon="-4.27411">
        <ele>142.89306640625</ele>
        <time>2014-01-11T14:03:46Z</time>
      </trkpt>
      <trkpt lat="48.00242" lon="-4.27412">
        <ele>142.89306640625</ele>
        <time>2014-01-11T14:03:48Z</time>
      </trkpt>
      <trkpt lat="48.00238" lon="-4.27416">
        <ele>142.89306640625</ele>
        <time>2014-01-11T14:03:52Z</time>
      </trkpt>
      <trkpt lat="48.0023" lon="-4.27421">
        <ele>140.97045898438</ele>
        <time>2014-01-11T14:03:58Z</time>
      </trkpt>
      <trkpt lat="48.00221" lon="-4.2743">
        <ele>139.52844238281</ele>
        <time>2014-01-11T14:04:06Z</time>
      </trkpt>
      <trkpt lat="48.00215" lon="-4.27438">
        <ele>139.52844238281</ele>
        <time>2014-01-11T14:04:11Z</time>
      </trkpt>
      <trkpt lat="48.00208" lon="-4.27448">
        <ele>139.0478515625</ele>
        <time>2014-01-11T14:04:18Z</time>
      </trkpt>
      <trkpt lat="48.00206" lon="-4.2745">
        <ele>139.52844238281</ele>
        <time>2014-01-11T14:04:20Z</time>
      </trkpt>
      <trkpt lat="48.00199" lon="-4.27457">
        <ele>139.0478515625</ele>
        <time>2014-01-11T14:04:26Z</time>
      </trkpt>
      <trkpt lat="48.00198" lon="-4.27457">
        <ele>139.0478515625</ele>
        <time>2014-01-11T14:04:27Z</time>
      </trkpt>
      <trkpt lat="48.00191" lon="-4.27461">
        <ele>139.0478515625</ele>
        <time>2014-01-11T14:04:32Z</time>
      </trkpt>
      <trkpt lat="48.00186" lon="-4.27465">
        <ele>140.00915527344</ele>
        <time>2014-01-11T14:04:36Z</time>
      </trkpt>
      <trkpt lat="48.00176" lon="-4.27473">
        <ele>142.89306640625</ele>
        <time>2014-01-11T14:04:45Z</time>
      </trkpt>
      <trkpt lat="48.00167" lon="-4.2748">
        <ele>144.33520507812</ele>
        <time>2014-01-11T14:04:52Z</time>
      </trkpt>
      <trkpt lat="48.00166" lon="-4.27487">
        <ele>143.85437011719</ele>
        <time>2014-01-11T14:04:56Z</time>
      </trkpt>
      <trkpt lat="48.00168" lon="-4.27492">
        <ele>142.89306640625</ele>
        <time>2014-01-11T14:04:58Z</time>
      </trkpt>
      <trkpt lat="48.00172" lon="-4.27496">
        <ele>142.89306640625</ele>
        <time>2014-01-11T14:05:03Z</time>
      </trkpt>
      <trkpt lat="48.00174" lon="-4.27505">
        <ele>139.52844238281</ele>
        <time>2014-01-11T14:05:09Z</time>
      </trkpt>
      <trkpt lat="48.00168" lon="-4.27513">
        <ele>139.0478515625</ele>
        <time>2014-01-11T14:05:15Z</time>
      </trkpt>
      <trkpt lat="48.00162" lon="-4.27524">
        <ele>139.0478515625</ele>
        <time>2014-01-11T14:05:21Z</time>
      </trkpt>
      <trkpt lat="48.00161" lon="-4.27526">
        <ele>139.0478515625</ele>
        <time>2014-01-11T14:05:23Z</time>
      </trkpt>
      <trkpt lat="48.00154" lon="-4.27534">
        <ele>139.52844238281</ele>
        <time>2014-01-11T14:05:28Z</time>
      </trkpt>
      <trkpt lat="48.00149" lon="-4.27543">
        <ele>139.0478515625</ele>
        <time>2014-01-11T14:05:34Z</time>
      </trkpt>
      <trkpt lat="48.00145" lon="-4.27547">
        <ele>140.00915527344</ele>
        <time>2014-01-11T14:05:38Z</time>
      </trkpt>
      <trkpt lat="48.00143" lon="-4.27552">
        <ele>139.52844238281</ele>
        <time>2014-01-11T14:05:41Z</time>
      </trkpt>
      <trkpt lat="48.00138" lon="-4.2756">
        <ele>140.00915527344</ele>
        <time>2014-01-11T14:05:46Z</time>
      </trkpt>
      <trkpt lat="48.00131" lon="-4.27571">
        <ele>138.56726074219</ele>
        <time>2014-01-11T14:05:54Z</time>
      </trkpt>
      <trkpt lat="48.00124" lon="-4.27578">
        <ele>139.0478515625</ele>
        <time>2014-01-11T14:06:00Z</time>
      </trkpt>
      <trkpt lat="48.00116" lon="-4.27584">
        <ele>137.12524414062</ele>
        <time>2014-01-11T14:06:07Z</time>
      </trkpt>
      <trkpt lat="48.00112" lon="-4.27587">
        <ele>137.12524414062</ele>
        <time>2014-01-11T14:06:10Z</time>
      </trkpt>
      <trkpt lat="48.00102" lon="-4.27595">
        <ele>135.20251464844</ele>
        <time>2014-01-11T14:06:19Z</time>
      </trkpt>
      <trkpt lat="48.00097" lon="-4.27602">
        <ele>134.72192382812</ele>
        <time>2014-01-11T14:06:24Z</time>
      </trkpt>
      <trkpt lat="48.00093" lon="-4.27605">
        <ele>134.72192382812</ele>
        <time>2014-01-11T14:06:27Z</time>
      </trkpt>
      <trkpt lat="48.00085" lon="-4.27612">
        <ele>135.20251464844</ele>
        <time>2014-01-11T14:06:34Z</time>
      </trkpt>
      <trkpt lat="48.00083" lon="-4.27614">
        <ele>134.72192382812</ele>
        <time>2014-01-11T14:06:36Z</time>
      </trkpt>
      <trkpt lat="48.00076" lon="-4.27619">
        <ele>134.2412109375</ele>
        <time>2014-01-11T14:06:42Z</time>
      </trkpt>
      <trkpt lat="48.00068" lon="-4.27623">
        <ele>134.72192382812</ele>
        <time>2014-01-11T14:06:49Z</time>
      </trkpt>
      <trkpt lat="48.00064" lon="-4.27625">
        <ele>135.20251464844</ele>
        <time>2014-01-11T14:06:52Z</time>
      </trkpt>
      <trkpt lat="48.00066" lon="-4.27634">
        <ele>132.79931640625</ele>
        <time>2014-01-11T14:06:58Z</time>
      </trkpt>
      <trkpt lat="48.00069" lon="-4.27643">
        <ele>131.35729980469</ele>
        <time>2014-01-11T14:07:04Z</time>
      </trkpt>
      <trkpt lat="48.00074" lon="-4.27655">
        <ele>128.9541015625</ele>
        <time>2014-01-11T14:07:12Z</time>
      </trkpt>
      <trkpt lat="48.00079" lon="-4.27666">
        <ele>126.55065917969</ele>
        <time>2014-01-11T14:07:19Z</time>
      </trkpt>
      <trkpt lat="48.00081" lon="-4.27676">
        <ele>124.14733886719</ele>
        <time>2014-01-11T14:07:24Z</time>
      </trkpt>
      <trkpt lat="48.00082" lon="-4.2768">
        <ele>124.62805175781</ele>
        <time>2014-01-11T14:07:27Z</time>
      </trkpt>
      <trkpt lat="48.00086" lon="-4.27686">
        <ele>125.10876464844</ele>
        <time>2014-01-11T14:07:31Z</time>
      </trkpt>
      <trkpt lat="48.00089" lon="-4.27696">
        <ele>123.18615722656</ele>
        <time>2014-01-11T14:07:37Z</time>
      </trkpt>
      <trkpt lat="48.00093" lon="-4.277">
        <ele>124.62805175781</ele>
        <time>2014-01-11T14:07:40Z</time>
      </trkpt>
      <trkpt lat="48.00097" lon="-4.27712">
        <ele>124.62805175781</ele>
        <time>2014-01-11T14:07:48Z</time>
      </trkpt>
      <trkpt lat="48.00105" lon="-4.27722">
        <ele>127.99255371094</ele>
        <time>2014-01-11T14:07:56Z</time>
      </trkpt>
      <trkpt lat="48.00108" lon="-4.2773">
        <ele>129.43469238281</ele>
        <time>2014-01-11T14:08:01Z</time>
      </trkpt>
      <trkpt lat="48.00109" lon="-4.27733">
        <ele>128.9541015625</ele>
        <time>2014-01-11T14:08:03Z</time>
      </trkpt>
      <trkpt lat="48.00112" lon="-4.27739">
        <ele>126.55065917969</ele>
        <time>2014-01-11T14:08:07Z</time>
      </trkpt>
      <trkpt lat="48.00115" lon="-4.2775">
        <ele>124.62805175781</ele>
        <time>2014-01-11T14:08:13Z</time>
      </trkpt>
      <trkpt lat="48.0012" lon="-4.27761">
        <ele>125.10876464844</ele>
        <time>2014-01-11T14:08:20Z</time>
      </trkpt>
      <trkpt lat="48.00123" lon="-4.27772">
        <ele>125.58935546875</ele>
        <time>2014-01-11T14:08:25Z</time>
      </trkpt>
      <trkpt lat="48.00126" lon="-4.27781">
        <ele>125.58935546875</ele>
        <time>2014-01-11T14:08:30Z</time>
      </trkpt>
      <trkpt lat="48.00127" lon="-4.27783">
        <ele>126.06994628906</ele>
        <time>2014-01-11T14:08:31Z</time>
      </trkpt>
      <trkpt lat="48.00134" lon="-4.27794">
        <ele>125.10876464844</ele>
        <time>2014-01-11T14:08:39Z</time>
      </trkpt>
      <trkpt lat="48.00143" lon="-4.27804">
        <ele>126.06994628906</ele>
        <time>2014-01-11T14:08:46Z</time>
      </trkpt>
      <trkpt lat="48.00149" lon="-4.27813">
        <ele>127.51196289062</ele>
        <time>2014-01-11T14:08:52Z</time>
      </trkpt>
      <trkpt lat="48.00151" lon="-4.27819">
        <ele>128.47338867188</ele>
        <time>2014-01-11T14:08:55Z</time>
      </trkpt>
      <trkpt lat="48.00151" lon="-4.27831">
        <ele>128.9541015625</ele>
        <time>2014-01-11T14:09:00Z</time>
      </trkpt>
      <trkpt lat="48.00152" lon="-4.27835">
        <ele>128.47338867188</ele>
        <time>2014-01-11T14:09:02Z</time>
      </trkpt>
      <trkpt lat="48.00154" lon="-4.27851">
        <ele>127.51196289062</ele>
        <time>2014-01-11T14:09:09Z</time>
      </trkpt>
      <trkpt lat="48.00156" lon="-4.27863">
        <ele>127.51196289062</ele>
        <time>2014-01-11T14:09:16Z</time>
      </trkpt>
      <trkpt lat="48.00157" lon="-4.27873">
        <ele>127.99255371094</ele>
        <time>2014-01-11T14:09:21Z</time>
      </trkpt>
      <trkpt lat="48.00158" lon="-4.27882">
        <ele>129.91528320312</ele>
        <time>2014-01-11T14:09:26Z</time>
      </trkpt>
      <trkpt lat="48.00158" lon="-4.27895">
        <ele>131.35729980469</ele>
        <time>2014-01-11T14:09:33Z</time>
      </trkpt>
      <trkpt lat="48.00158" lon="-4.27906">
        <ele>131.35729980469</ele>
        <time>2014-01-11T14:09:38Z</time>
      </trkpt>
      <trkpt lat="48.00158" lon="-4.27917">
        <ele>131.837890625</ele>
        <time>2014-01-11T14:09:44Z</time>
      </trkpt>
      <trkpt lat="48.00157" lon="-4.27928">
        <ele>132.31860351562</ele>
        <time>2014-01-11T14:09:50Z</time>
      </trkpt>
      <trkpt lat="48.00158" lon="-4.2794">
        <ele>131.837890625</ele>
        <time>2014-01-11T14:09:56Z</time>
      </trkpt>
      <trkpt lat="48.00159" lon="-4.27952">
        <ele>131.35729980469</ele>
        <time>2014-01-11T14:10:03Z</time>
      </trkpt>
      <trkpt lat="48.00158" lon="-4.27967">
        <ele>132.31860351562</ele>
        <time>2014-01-11T14:10:11Z</time>
      </trkpt>
      <trkpt lat="48.00158" lon="-4.27973">
        <ele>133.76049804688</ele>
        <time>2014-01-11T14:10:14Z</time>
      </trkpt>
      <trkpt lat="48.00157" lon="-4.27988">
        <ele>137.12524414062</ele>
        <time>2014-01-11T14:10:22Z</time>
      </trkpt>
      <trkpt lat="48.00157" lon="-4.28">
        <ele>139.52844238281</ele>
        <time>2014-01-11T14:10:29Z</time>
      </trkpt>
      <trkpt lat="48.00157" lon="-4.28011">
        <ele>140.00915527344</ele>
        <time>2014-01-11T14:10:35Z</time>
      </trkpt>
      <trkpt lat="48.00157" lon="-4.28024">
        <ele>140.97045898438</ele>
        <time>2014-01-11T14:10:41Z</time>
      </trkpt>
      <trkpt lat="48.00158" lon="-4.28036">
        <ele>141.45104980469</ele>
        <time>2014-01-11T14:10:47Z</time>
      </trkpt>
      <trkpt lat="48.0016" lon="-4.2805">
        <ele>140.97045898438</ele>
        <time>2014-01-11T14:10:55Z</time>
      </trkpt>
      <trkpt lat="48.00161" lon="-4.28052">
        <ele>140.48986816406</ele>
        <time>2014-01-11T14:10:56Z</time>
      </trkpt>
      <trkpt lat="48.00163" lon="-4.2806">
        <ele>139.0478515625</ele>
        <time>2014-01-11T14:11:01Z</time>
      </trkpt>
      <trkpt lat="48.00166" lon="-4.2807">
        <ele>136.64465332031</ele>
        <time>2014-01-11T14:11:06Z</time>
      </trkpt>
      <trkpt lat="48.00168" lon="-4.28074">
        <ele>135.68310546875</ele>
        <time>2014-01-11T14:11:08Z</time>
      </trkpt>
      <trkpt lat="48.00173" lon="-4.2808">
        <ele>133.27990722656</ele>
        <time>2014-01-11T14:11:13Z</time>
      </trkpt>
      <trkpt lat="48.00175" lon="-4.28089">
        <ele>131.35729980469</ele>
        <time>2014-01-11T14:11:19Z</time>
      </trkpt>
      <trkpt lat="48.00176" lon="-4.28089">
        <ele>131.35729980469</ele>
        <time>2014-01-11T14:11:20Z</time>
      </trkpt>
      <trkpt lat="48.0018" lon="-4.28102">
        <ele>128.47338867188</ele>
        <time>2014-01-11T14:11:27Z</time>
      </trkpt>
      <trkpt lat="48.00184" lon="-4.2811">
        <ele>125.10876464844</ele>
        <time>2014-01-11T14:11:32Z</time>
      </trkpt>
      <trkpt lat="48.0019" lon="-4.28125">
        <ele>123.18615722656</ele>
        <time>2014-01-11T14:11:41Z</time>
      </trkpt>
      <trkpt lat="48.00193" lon="-4.28129">
        <ele>122.22473144531</ele>
        <time>2014-01-11T14:11:45Z</time>
      </trkpt>
      <trkpt lat="48.00197" lon="-4.28143">
        <ele>124.62805175781</ele>
        <time>2014-01-11T14:11:52Z</time>
      </trkpt>
      <trkpt lat="48.00199" lon="-4.28158">
        <ele>123.66674804688</ele>
        <time>2014-01-11T14:11:59Z</time>
      </trkpt>
      <trkpt lat="48.002" lon="-4.28166">
        <ele>122.22473144531</ele>
        <time>2014-01-11T14:12:04Z</time>
      </trkpt>
      <trkpt lat="48.00203" lon="-4.28174">
        <ele>122.70544433594</ele>
        <time>2014-01-11T14:12:08Z</time>
      </trkpt>
      <trkpt lat="48.00204" lon="-4.28176">
        <ele>122.22473144531</ele>
        <time>2014-01-11T14:12:09Z</time>
      </trkpt>
      <trkpt lat="48.00209" lon="-4.28187">
        <ele>122.22473144531</ele>
        <time>2014-01-11T14:12:16Z</time>
      </trkpt>
      <trkpt lat="48.0021" lon="-4.28189">
        <ele>123.18615722656</ele>
        <time>2014-01-11T14:12:17Z</time>
      </trkpt>
      <trkpt lat="48.00212" lon="-4.28199">
        <ele>124.62805175781</ele>
        <time>2014-01-11T14:12:21Z</time>
      </trkpt>
      <trkpt lat="48.00213" lon="-4.282">
        <ele>124.14733886719</ele>
        <time>2014-01-11T14:12:22Z</time>
      </trkpt>
      <trkpt lat="48.00215" lon="-4.2821">
        <ele>123.18615722656</ele>
        <time>2014-01-11T14:12:28Z</time>
      </trkpt>
      <trkpt lat="48.00217" lon="-4.28215">
        <ele>121.26354980469</ele>
        <time>2014-01-11T14:12:31Z</time>
      </trkpt>
      <trkpt lat="48.00217" lon="-4.28218">
        <ele>121.26354980469</ele>
        <time>2014-01-11T14:12:33Z</time>
      </trkpt>
      <trkpt lat="48.00218" lon="-4.28227">
        <ele>120.30212402344</ele>
        <time>2014-01-11T14:12:37Z</time>
      </trkpt>
      <trkpt lat="48.00219" lon="-4.28243">
        <ele>119.3408203125</ele>
        <time>2014-01-11T14:12:43Z</time>
      </trkpt>
      <trkpt lat="48.00219" lon="-4.28253">
        <ele>118.37939453125</ele>
        <time>2014-01-11T14:12:48Z</time>
      </trkpt>
      <trkpt lat="48.00221" lon="-4.28262">
        <ele>118.86010742188</ele>
        <time>2014-01-11T14:12:53Z</time>
      </trkpt>
      <trkpt lat="48.00222" lon="-4.28268">
        <ele>120.78283691406</ele>
        <time>2014-01-11T14:12:57Z</time>
      </trkpt>
      <trkpt lat="48.00222" lon="-4.28283">
        <ele>124.62805175781</ele>
        <time>2014-01-11T14:13:04Z</time>
      </trkpt>
      <trkpt lat="48.00223" lon="-4.28285">
        <ele>124.62805175781</ele>
        <time>2014-01-11T14:13:05Z</time>
      </trkpt>
      <trkpt lat="48.00223" lon="-4.28294">
        <ele>125.10876464844</ele>
        <time>2014-01-11T14:13:10Z</time>
      </trkpt>
      <trkpt lat="48.00224" lon="-4.28306">
        <ele>123.66674804688</ele>
        <time>2014-01-11T14:13:17Z</time>
      </trkpt>
      <trkpt lat="48.00224" lon="-4.28308">
        <ele>123.18615722656</ele>
        <time>2014-01-11T14:13:18Z</time>
      </trkpt>
      <trkpt lat="48.00224" lon="-4.28316">
        <ele>123.18615722656</ele>
        <time>2014-01-11T14:13:23Z</time>
      </trkpt>
      <trkpt lat="48.00224" lon="-4.28321">
        <ele>124.14733886719</ele>
        <time>2014-01-11T14:13:26Z</time>
      </trkpt>
      <trkpt lat="48.00225" lon="-4.28328">
        <ele>124.62805175781</ele>
        <time>2014-01-11T14:13:29Z</time>
      </trkpt>
      <trkpt lat="48.00225" lon="-4.2834">
        <ele>121.744140625</ele>
        <time>2014-01-11T14:13:35Z</time>
      </trkpt>
      <trkpt lat="48.00229" lon="-4.28352">
        <ele>120.78283691406</ele>
        <time>2014-01-11T14:13:41Z</time>
      </trkpt>
      <trkpt lat="48.00231" lon="-4.28355">
        <ele>119.82141113281</ele>
        <time>2014-01-11T14:13:43Z</time>
      </trkpt>
      <trkpt lat="48.00231" lon="-4.28369">
        <ele>118.37939453125</ele>
        <time>2014-01-11T14:13:50Z</time>
      </trkpt>
      <trkpt lat="48.00231" lon="-4.28382">
        <ele>116.9375</ele>
        <time>2014-01-11T14:13:56Z</time>
      </trkpt>
      <trkpt lat="48.0023" lon="-4.28391">
        <ele>118.37939453125</ele>
        <time>2014-01-11T14:14:01Z</time>
      </trkpt>
      <trkpt lat="48.00228" lon="-4.28402">
        <ele>120.78283691406</ele>
        <time>2014-01-11T14:14:06Z</time>
      </trkpt>
      <trkpt lat="48.00228" lon="-4.28414">
        <ele>121.744140625</ele>
        <time>2014-01-11T14:14:12Z</time>
      </trkpt>
      <trkpt lat="48.00227" lon="-4.28417">
        <ele>121.744140625</ele>
        <time>2014-01-11T14:14:14Z</time>
      </trkpt>
      <trkpt lat="48.00226" lon="-4.28424">
        <ele>121.26354980469</ele>
        <time>2014-01-11T14:14:17Z</time>
      </trkpt>
      <trkpt lat="48.00222" lon="-4.28434">
        <ele>120.30212402344</ele>
        <time>2014-01-11T14:14:23Z</time>
      </trkpt>
      <trkpt lat="48.00221" lon="-4.28437">
        <ele>120.30212402344</ele>
        <time>2014-01-11T14:14:27Z</time>
      </trkpt>
      <trkpt lat="48.00217" lon="-4.28445">
        <ele>122.70544433594</ele>
        <time>2014-01-11T14:14:32Z</time>
      </trkpt>
      <trkpt lat="48.00216" lon="-4.28451">
        <ele>123.66674804688</ele>
        <time>2014-01-11T14:14:35Z</time>
      </trkpt>
      <trkpt lat="48.00216" lon="-4.2846">
        <ele>122.70544433594</ele>
        <time>2014-01-11T14:14:41Z</time>
      </trkpt>
      <trkpt lat="48.00214" lon="-4.28472">
        <ele>121.744140625</ele>
        <time>2014-01-11T14:14:47Z</time>
      </trkpt>
      <trkpt lat="48.00211" lon="-4.28487">
        <ele>121.744140625</ele>
        <time>2014-01-11T14:14:55Z</time>
      </trkpt>
      <trkpt lat="48.00211" lon="-4.28489">
        <ele>121.744140625</ele>
        <time>2014-01-11T14:14:56Z</time>
      </trkpt>
      <trkpt lat="48.00212" lon="-4.28502">
        <ele>122.70544433594</ele>
        <time>2014-01-11T14:15:02Z</time>
      </trkpt>
      <trkpt lat="48.00212" lon="-4.28507">
        <ele>123.18615722656</ele>
        <time>2014-01-11T14:15:04Z</time>
      </trkpt>
      <trkpt lat="48.00213" lon="-4.28522">
        <ele>122.70544433594</ele>
        <time>2014-01-11T14:15:11Z</time>
      </trkpt>
      <trkpt lat="48.00212" lon="-4.28529">
        <ele>121.744140625</ele>
        <time>2014-01-11T14:15:16Z</time>
      </trkpt>
      <trkpt lat="48.00211" lon="-4.28532">
        <ele>121.744140625</ele>
        <time>2014-01-11T14:15:18Z</time>
      </trkpt>
      <trkpt lat="48.00211" lon="-4.28534">
        <ele>121.26354980469</ele>
        <time>2014-01-11T14:15:20Z</time>
      </trkpt>
      <trkpt lat="48.00211" lon="-4.28545">
        <ele>120.78283691406</ele>
        <time>2014-01-11T14:15:26Z</time>
      </trkpt>
      <trkpt lat="48.00211" lon="-4.2855">
        <ele>120.78283691406</ele>
        <time>2014-01-11T14:15:28Z</time>
      </trkpt>
      <trkpt lat="48.00213" lon="-4.28566">
        <ele>116.9375</ele>
        <time>2014-01-11T14:15:36Z</time>
      </trkpt>
      <trkpt lat="48.00214" lon="-4.28578">
        <ele>115.97619628906</ele>
        <time>2014-01-11T14:15:41Z</time>
      </trkpt>
      <trkpt lat="48.00214" lon="-4.28595">
        <ele>116.45678710938</ele>
        <time>2014-01-11T14:15:49Z</time>
      </trkpt>
      <trkpt lat="48.00214" lon="-4.28598">
        <ele>116.9375</ele>
        <time>2014-01-11T14:15:50Z</time>
      </trkpt>
      <trkpt lat="48.00215" lon="-4.28607">
        <ele>117.41821289062</ele>
        <time>2014-01-11T14:15:54Z</time>
      </trkpt>
      <trkpt lat="48.00214" lon="-4.28623">
        <ele>117.89880371094</ele>
        <time>2014-01-11T14:16:01Z</time>
      </trkpt>
      <trkpt lat="48.00215" lon="-4.28631">
        <ele>117.89880371094</ele>
        <time>2014-01-11T14:16:05Z</time>
      </trkpt>
      <trkpt lat="48.00216" lon="-4.28638">
        <ele>118.37939453125</ele>
        <time>2014-01-11T14:16:08Z</time>
      </trkpt>
      <trkpt lat="48.00219" lon="-4.28656">
        <ele>117.89880371094</ele>
        <time>2014-01-11T14:16:18Z</time>
      </trkpt>
      <trkpt lat="48.0022" lon="-4.28667">
        <ele>116.9375</ele>
        <time>2014-01-11T14:16:23Z</time>
      </trkpt>
      <trkpt lat="48.00225" lon="-4.28676">
        <ele>116.45678710938</ele>
        <time>2014-01-11T14:16:28Z</time>
      </trkpt>
      <trkpt lat="48.00226" lon="-4.28681">
        <ele>115.97619628906</ele>
        <time>2014-01-11T14:16:30Z</time>
      </trkpt>
      <trkpt lat="48.00227" lon="-4.28692">
        <ele>115.49560546875</ele>
        <time>2014-01-11T14:16:34Z</time>
      </trkpt>
      <trkpt lat="48.00227" lon="-4.287">
        <ele>115.01489257812</ele>
        <time>2014-01-11T14:16:38Z</time>
      </trkpt>
      <trkpt lat="48.00229" lon="-4.28706">
        <ele>116.45678710938</ele>
        <time>2014-01-11T14:16:42Z</time>
      </trkpt>
      <trkpt lat="48.0023" lon="-4.28711">
        <ele>117.89880371094</ele>
        <time>2014-01-11T14:16:45Z</time>
      </trkpt>
      <trkpt lat="48.00229" lon="-4.28723">
        <ele>118.37939453125</ele>
        <time>2014-01-11T14:16:50Z</time>
      </trkpt>
      <trkpt lat="48.00229" lon="-4.28736">
        <ele>120.30212402344</ele>
        <time>2014-01-11T14:16:56Z</time>
      </trkpt>
      <trkpt lat="48.00228" lon="-4.28742">
        <ele>122.22473144531</ele>
        <time>2014-01-11T14:17:00Z</time>
      </trkpt>
      <trkpt lat="48.00228" lon="-4.28747">
        <ele>123.18615722656</ele>
        <time>2014-01-11T14:17:03Z</time>
      </trkpt>
      <trkpt lat="48.00228" lon="-4.28758">
        <ele>123.18615722656</ele>
        <time>2014-01-11T14:17:08Z</time>
      </trkpt>
      <trkpt lat="48.00227" lon="-4.28767">
        <ele>122.70544433594</ele>
        <time>2014-01-11T14:17:12Z</time>
      </trkpt>
      <trkpt lat="48.00227" lon="-4.28769">
        <ele>122.22473144531</ele>
        <time>2014-01-11T14:17:13Z</time>
      </trkpt>
      <trkpt lat="48.00227" lon="-4.28773">
        <ele>121.744140625</ele>
        <time>2014-01-11T14:17:20Z</time>
      </trkpt>
      <trkpt lat="48.00227" lon="-4.28778">
        <ele>122.22473144531</ele>
        <time>2014-01-11T14:17:26Z</time>
      </trkpt>
      <trkpt lat="48.00231" lon="-4.28779">
        <ele>123.18615722656</ele>
        <time>2014-01-11T14:17:31Z</time>
      </trkpt>
      <trkpt lat="48.0023" lon="-4.28777">
        <ele>123.18615722656</ele>
        <time>2014-01-11T14:17:36Z</time>
      </trkpt>
      <trkpt lat="48.00229" lon="-4.28776">
        <ele>123.18615722656</ele>
        <time>2014-01-11T14:17:37Z</time>
      </trkpt>
      <trkpt lat="48.00227" lon="-4.28776">
        <ele>124.14733886719</ele>
        <time>2014-01-11T14:17:45Z</time>
      </trkpt>
      <trkpt lat="48.00221" lon="-4.28777">
        <ele>124.14733886719</ele>
        <time>2014-01-11T14:17:51Z</time>
      </trkpt>
      <trkpt lat="48.00213" lon="-4.28777">
        <ele>124.14733886719</ele>
        <time>2014-01-11T14:17:57Z</time>
      </trkpt>
      <trkpt lat="48.00207" lon="-4.28776">
        <ele>124.62805175781</ele>
        <time>2014-01-11T14:18:02Z</time>
      </trkpt>
      <trkpt lat="48.00204" lon="-4.28776">
        <ele>125.10876464844</ele>
        <time>2014-01-11T14:18:04Z</time>
      </trkpt>
      <trkpt lat="48.00194" lon="-4.28773">
        <ele>125.58935546875</ele>
        <time>2014-01-11T14:18:12Z</time>
      </trkpt>
      <trkpt lat="48.00183" lon="-4.28772">
        <ele>124.62805175781</ele>
        <time>2014-01-11T14:18:20Z</time>
      </trkpt>
      <trkpt lat="48.00175" lon="-4.2877">
        <ele>125.10876464844</ele>
        <time>2014-01-11T14:18:26Z</time>
      </trkpt>
      <trkpt lat="48.00165" lon="-4.28768">
        <ele>124.62805175781</ele>
        <time>2014-01-11T14:18:33Z</time>
      </trkpt>
      <trkpt lat="48.00162" lon="-4.28767">
        <ele>124.62805175781</ele>
        <time>2014-01-11T14:18:35Z</time>
      </trkpt>
      <trkpt lat="48.00155" lon="-4.28765">
        <ele>123.66674804688</ele>
        <time>2014-01-11T14:18:41Z</time>
      </trkpt>
      <trkpt lat="48.00146" lon="-4.28764">
        <ele>123.66674804688</ele>
        <time>2014-01-11T14:18:48Z</time>
      </trkpt>
      <trkpt lat="48.00142" lon="-4.28764">
        <ele>123.18615722656</ele>
        <time>2014-01-11T14:18:51Z</time>
      </trkpt>
      <trkpt lat="48.00132" lon="-4.28763">
        <ele>122.70544433594</ele>
        <time>2014-01-11T14:18:59Z</time>
      </trkpt>
      <trkpt lat="48.00128" lon="-4.28764">
        <ele>123.18615722656</ele>
        <time>2014-01-11T14:19:02Z</time>
      </trkpt>
      <trkpt lat="48.00116" lon="-4.28761">
        <ele>125.58935546875</ele>
        <time>2014-01-11T14:19:11Z</time>
      </trkpt>
      <trkpt lat="48.00107" lon="-4.28759">
        <ele>125.10876464844</ele>
        <time>2014-01-11T14:19:18Z</time>
      </trkpt>
      <trkpt lat="48.00101" lon="-4.2876">
        <ele>125.10876464844</ele>
        <time>2014-01-11T14:19:22Z</time>
      </trkpt>
      <trkpt lat="48.00092" lon="-4.2876">
        <ele>124.62805175781</ele>
        <time>2014-01-11T14:19:29Z</time>
      </trkpt>
      <trkpt lat="48.00091" lon="-4.2876">
        <ele>124.14733886719</ele>
        <time>2014-01-11T14:19:30Z</time>
      </trkpt>
      <trkpt lat="48.00079" lon="-4.28755">
        <ele>125.10876464844</ele>
        <time>2014-01-11T14:19:39Z</time>
      </trkpt>
      <trkpt lat="48.00068" lon="-4.28751">
        <ele>126.55065917969</ele>
        <time>2014-01-11T14:19:47Z</time>
      </trkpt>
      <trkpt lat="48.00062" lon="-4.28751">
        <ele>125.10876464844</ele>
        <time>2014-01-11T14:19:51Z</time>
      </trkpt>
      <trkpt lat="48.00054" lon="-4.28746">
        <ele>126.55065917969</ele>
        <time>2014-01-11T14:19:58Z</time>
      </trkpt>
      <trkpt lat="48.00045" lon="-4.28743">
        <ele>127.99255371094</ele>
        <time>2014-01-11T14:20:04Z</time>
      </trkpt>
      <trkpt lat="48.00041" lon="-4.28743">
        <ele>126.55065917969</ele>
        <time>2014-01-11T14:20:07Z</time>
      </trkpt>
      <trkpt lat="48.00035" lon="-4.28741">
        <ele>126.06994628906</ele>
        <time>2014-01-11T14:20:11Z</time>
      </trkpt>
      <trkpt lat="48.00026" lon="-4.28737">
        <ele>127.03137207031</ele>
        <time>2014-01-11T14:20:18Z</time>
      </trkpt>
      <trkpt lat="48.00024" lon="-4.28737">
        <ele>127.51196289062</ele>
        <time>2014-01-11T14:20:19Z</time>
      </trkpt>
      <trkpt lat="48.00018" lon="-4.28739">
        <ele>127.99255371094</ele>
        <time>2014-01-11T14:20:24Z</time>
      </trkpt>
      <trkpt lat="48.00012" lon="-4.2874">
        <ele>127.51196289062</ele>
        <time>2014-01-11T14:20:29Z</time>
      </trkpt>
      <trkpt lat="48.00008" lon="-4.28739">
        <ele>127.03137207031</ele>
        <time>2014-01-11T14:20:33Z</time>
      </trkpt>
      <trkpt lat="47.99999" lon="-4.28738">
        <ele>125.58935546875</ele>
        <time>2014-01-11T14:20:40Z</time>
      </trkpt>
      <trkpt lat="47.99997" lon="-4.28738">
        <ele>125.10876464844</ele>
        <time>2014-01-11T14:20:46Z</time>
      </trkpt>
      <trkpt lat="48.00001" lon="-4.2874">
        <ele>126.06994628906</ele>
        <time>2014-01-11T14:20:50Z</time>
      </trkpt>
      <trkpt lat="48.00008" lon="-4.28743">
        <ele>126.55065917969</ele>
        <time>2014-01-11T14:20:56Z</time>
      </trkpt>
      <trkpt lat="48.00013" lon="-4.28744">
        <ele>128.9541015625</ele>
        <time>2014-01-11T14:21:02Z</time>
      </trkpt>
      <trkpt lat="48.00024" lon="-4.28746">
        <ele>131.35729980469</ele>
        <time>2014-01-11T14:21:11Z</time>
      </trkpt>
      <trkpt lat="48.00026" lon="-4.28746">
        <ele>132.31860351562</ele>
        <time>2014-01-11T14:21:13Z</time>
      </trkpt>
      <trkpt lat="48.00031" lon="-4.28746">
        <ele>133.76049804688</ele>
        <time>2014-01-11T14:21:17Z</time>
      </trkpt>
      <trkpt lat="48.00045" lon="-4.28747">
        <ele>135.68310546875</ele>
        <time>2014-01-11T14:21:27Z</time>
      </trkpt>
      <trkpt lat="48.00048" lon="-4.28748">
        <ele>136.64465332031</ele>
        <time>2014-01-11T14:21:32Z</time>
      </trkpt>
      <trkpt lat="48.00051" lon="-4.28749">
        <ele>136.64465332031</ele>
        <time>2014-01-11T14:21:34Z</time>
      </trkpt>
      <trkpt lat="48.00059" lon="-4.2875">
        <ele>134.72192382812</ele>
        <time>2014-01-11T14:21:41Z</time>
      </trkpt>
      <trkpt lat="48.00064" lon="-4.28748">
        <ele>134.2412109375</ele>
        <time>2014-01-11T14:21:45Z</time>
      </trkpt>
      <trkpt lat="48.00071" lon="-4.28747">
        <ele>133.76049804688</ele>
        <time>2014-01-11T14:21:51Z</time>
      </trkpt>
      <trkpt lat="48.00068" lon="-4.28748">
        <ele>133.76049804688</ele>
        <time>2014-01-11T14:21:55Z</time>
      </trkpt>
      <trkpt lat="48.00061" lon="-4.2875">
        <ele>133.27990722656</ele>
        <time>2014-01-11T14:22:01Z</time>
      </trkpt>
      <trkpt lat="48.00059" lon="-4.28758">
        <ele>132.31860351562</ele>
        <time>2014-01-11T14:22:07Z</time>
      </trkpt>
      <trkpt lat="48.00058" lon="-4.28772">
        <ele>132.31860351562</ele>
        <time>2014-01-11T14:22:14Z</time>
      </trkpt>
      <trkpt lat="48.00057" lon="-4.28773">
        <ele>131.837890625</ele>
        <time>2014-01-11T14:22:15Z</time>
      </trkpt>
      <trkpt lat="48.00054" lon="-4.28781">
        <ele>131.35729980469</ele>
        <time>2014-01-11T14:22:20Z</time>
      </trkpt>
      <trkpt lat="48.0005" lon="-4.28788">
        <ele>130.87670898438</ele>
        <time>2014-01-11T14:22:25Z</time>
      </trkpt>
      <trkpt lat="48.00042" lon="-4.28791">
        <ele>129.91528320312</ele>
        <time>2014-01-11T14:22:32Z</time>
      </trkpt>
      <trkpt lat="48.00037" lon="-4.28794">
        <ele>129.43469238281</ele>
        <time>2014-01-11T14:22:36Z</time>
      </trkpt>
      <trkpt lat="48.00033" lon="-4.28797">
        <ele>129.91528320312</ele>
        <time>2014-01-11T14:22:40Z</time>
      </trkpt>
      <trkpt lat="48.00026" lon="-4.28799">
        <ele>130.39599609375</ele>
        <time>2014-01-11T14:22:45Z</time>
      </trkpt>
      <trkpt lat="48.0002" lon="-4.28802">
        <ele>129.43469238281</ele>
        <time>2014-01-11T14:22:50Z</time>
      </trkpt>
      <trkpt lat="48.00018" lon="-4.28804">
        <ele>130.39599609375</ele>
        <time>2014-01-11T14:22:52Z</time>
      </trkpt>
      <trkpt lat="48.00008" lon="-4.28811">
        <ele>131.837890625</ele>
        <time>2014-01-11T14:23:00Z</time>
      </trkpt>
      <trkpt lat="48.00003" lon="-4.28814">
        <ele>132.31860351562</ele>
        <time>2014-01-11T14:23:04Z</time>
      </trkpt>
      <trkpt lat="47.99997" lon="-4.2882">
        <ele>131.837890625</ele>
        <time>2014-01-11T14:23:10Z</time>
      </trkpt>
      <trkpt lat="47.99992" lon="-4.2882">
        <ele>129.91528320312</ele>
        <time>2014-01-11T14:23:15Z</time>
      </trkpt>
      <trkpt lat="47.99988" lon="-4.28823">
        <ele>129.43469238281</ele>
        <time>2014-01-11T14:23:19Z</time>
      </trkpt>
      <trkpt lat="47.99979" lon="-4.28827">
        <ele>127.99255371094</ele>
        <time>2014-01-11T14:23:27Z</time>
      </trkpt>
      <trkpt lat="47.99974" lon="-4.28831">
        <ele>129.43469238281</ele>
        <time>2014-01-11T14:23:30Z</time>
      </trkpt>
      <trkpt lat="47.99969" lon="-4.28833">
        <ele>127.99255371094</ele>
        <time>2014-01-11T14:23:34Z</time>
      </trkpt>
      <trkpt lat="47.99956" lon="-4.28844">
        <ele>127.03137207031</ele>
        <time>2014-01-11T14:23:43Z</time>
      </trkpt>
      <trkpt lat="47.99952" lon="-4.28847">
        <ele>127.51196289062</ele>
        <time>2014-01-11T14:23:46Z</time>
      </trkpt>
      <trkpt lat="47.99949" lon="-4.28847">
        <ele>127.03137207031</ele>
        <time>2014-01-11T14:23:48Z</time>
      </trkpt>
      <trkpt lat="47.99937" lon="-4.28855">
        <ele>125.58935546875</ele>
        <time>2014-01-11T14:23:57Z</time>
      </trkpt>
      <trkpt lat="47.99931" lon="-4.28858">
        <ele>125.58935546875</ele>
        <time>2014-01-11T14:24:02Z</time>
      </trkpt>
      <trkpt lat="47.99924" lon="-4.28862">
        <ele>125.10876464844</ele>
        <time>2014-01-11T14:24:08Z</time>
      </trkpt>
      <trkpt lat="47.9992" lon="-4.28863">
        <ele>125.10876464844</ele>
        <time>2014-01-11T14:24:11Z</time>
      </trkpt>
      <trkpt lat="47.99913" lon="-4.2887">
        <ele>125.58935546875</ele>
        <time>2014-01-11T14:24:17Z</time>
      </trkpt>
      <trkpt lat="47.99909" lon="-4.28871">
        <ele>125.58935546875</ele>
        <time>2014-01-11T14:24:20Z</time>
      </trkpt>
      <trkpt lat="47.99905" lon="-4.28875">
        <ele>125.10876464844</ele>
        <time>2014-01-11T14:24:24Z</time>
      </trkpt>
      <trkpt lat="47.99899" lon="-4.28879">
        <ele>124.62805175781</ele>
        <time>2014-01-11T14:24:29Z</time>
      </trkpt>
      <trkpt lat="47.99897" lon="-4.28879">
        <ele>124.14733886719</ele>
        <time>2014-01-11T14:24:30Z</time>
      </trkpt>
      <trkpt lat="47.99892" lon="-4.2888">
        <ele>123.18615722656</ele>
        <time>2014-01-11T14:24:34Z</time>
      </trkpt>
      <trkpt lat="47.99885" lon="-4.28881">
        <ele>121.744140625</ele>
        <time>2014-01-11T14:24:39Z</time>
      </trkpt>
      <trkpt lat="47.99879" lon="-4.28886">
        <ele>119.82141113281</ele>
        <time>2014-01-11T14:24:44Z</time>
      </trkpt>
      <trkpt lat="47.99873" lon="-4.28889">
        <ele>118.86010742188</ele>
        <time>2014-01-11T14:24:49Z</time>
      </trkpt>
      <trkpt lat="47.99868" lon="-4.28892">
        <ele>118.37939453125</ele>
        <time>2014-01-11T14:24:54Z</time>
      </trkpt>
      <trkpt lat="47.99862" lon="-4.28895">
        <ele>118.86010742188</ele>
        <time>2014-01-11T14:24:58Z</time>
      </trkpt>
      <trkpt lat="47.99855" lon="-4.289">
        <ele>118.37939453125</ele>
        <time>2014-01-11T14:25:04Z</time>
      </trkpt>
      <trkpt lat="47.99851" lon="-4.28902">
        <ele>118.37939453125</ele>
        <time>2014-01-11T14:25:07Z</time>
      </trkpt>
      <trkpt lat="47.99843" lon="-4.28908">
        <ele>117.41821289062</ele>
        <time>2014-01-11T14:25:13Z</time>
      </trkpt>
      <trkpt lat="47.99839" lon="-4.28908">
        <ele>117.89880371094</ele>
        <time>2014-01-11T14:25:16Z</time>
      </trkpt>
      <trkpt lat="47.9983" lon="-4.28907">
        <ele>117.89880371094</ele>
        <time>2014-01-11T14:25:23Z</time>
      </trkpt>
      <trkpt lat="47.99827" lon="-4.28907">
        <ele>118.86010742188</ele>
        <time>2014-01-11T14:25:25Z</time>
      </trkpt>
      <trkpt lat="47.99817" lon="-4.28908">
        <ele>120.30212402344</ele>
        <time>2014-01-11T14:25:33Z</time>
      </trkpt>
      <trkpt lat="47.9981" lon="-4.2891">
        <ele>120.30212402344</ele>
        <time>2014-01-11T14:25:38Z</time>
      </trkpt>
      <trkpt lat="47.99801" lon="-4.2891">
        <ele>118.86010742188</ele>
        <time>2014-01-11T14:25:45Z</time>
      </trkpt>
      <trkpt lat="47.99793" lon="-4.28913">
        <ele>117.89880371094</ele>
        <time>2014-01-11T14:25:52Z</time>
      </trkpt>
      <trkpt lat="47.99789" lon="-4.28912">
        <ele>117.41821289062</ele>
        <time>2014-01-11T14:25:56Z</time>
      </trkpt>
      <trkpt lat="47.99786" lon="-4.28911">
        <ele>118.86010742188</ele>
        <time>2014-01-11T14:26:03Z</time>
      </trkpt>
      <trkpt lat="47.99784" lon="-4.2891">
        <ele>119.82141113281</ele>
        <time>2014-01-11T14:26:12Z</time>
      </trkpt>
      <trkpt lat="47.99783" lon="-4.28909">
        <ele>120.78283691406</ele>
        <time>2014-01-11T14:26:19Z</time>
      </trkpt>
      <trkpt lat="47.99781" lon="-4.2891">
        <ele>120.78283691406</ele>
        <time>2014-01-11T14:26:21Z</time>
      </trkpt>
      <trkpt lat="47.99774" lon="-4.28916">
        <ele>120.30212402344</ele>
        <time>2014-01-11T14:26:26Z</time>
      </trkpt>
      <trkpt lat="47.99768" lon="-4.28919">
        <ele>119.82141113281</ele>
        <time>2014-01-11T14:26:31Z</time>
      </trkpt>
      <trkpt lat="47.99763" lon="-4.28919">
        <ele>119.3408203125</ele>
        <time>2014-01-11T14:26:36Z</time>
      </trkpt>
      <trkpt lat="47.99758" lon="-4.2892">
        <ele>118.86010742188</ele>
        <time>2014-01-11T14:26:40Z</time>
      </trkpt>
      <trkpt lat="47.99754" lon="-4.28922">
        <ele>118.86010742188</ele>
        <time>2014-01-11T14:26:45Z</time>
      </trkpt>
      <trkpt lat="47.99749" lon="-4.28922">
        <ele>118.86010742188</ele>
        <time>2014-01-11T14:26:49Z</time>
      </trkpt>
      <trkpt lat="47.99743" lon="-4.28923">
        <ele>117.41821289062</ele>
        <time>2014-01-11T14:26:54Z</time>
      </trkpt>
      <trkpt lat="47.99737" lon="-4.28924">
        <ele>115.97619628906</ele>
        <time>2014-01-11T14:26:58Z</time>
      </trkpt>
      <trkpt lat="47.99729" lon="-4.28926">
        <ele>115.49560546875</ele>
        <time>2014-01-11T14:27:04Z</time>
      </trkpt>
      <trkpt lat="47.99721" lon="-4.28931">
        <ele>114.05358886719</ele>
        <time>2014-01-11T14:27:11Z</time>
      </trkpt>
      <trkpt lat="47.99714" lon="-4.28933">
        <ele>114.05358886719</ele>
        <time>2014-01-11T14:27:16Z</time>
      </trkpt>
      <trkpt lat="47.99712" lon="-4.28932">
        <ele>115.01489257812</ele>
        <time>2014-01-11T14:27:18Z</time>
      </trkpt>
      <trkpt lat="47.99706" lon="-4.28933">
        <ele>115.49560546875</ele>
        <time>2014-01-11T14:27:23Z</time>
      </trkpt>
      <trkpt lat="47.99694" lon="-4.28935">
        <ele>115.49560546875</ele>
        <time>2014-01-11T14:27:31Z</time>
      </trkpt>
      <trkpt lat="47.99693" lon="-4.28935">
        <ele>115.49560546875</ele>
        <time>2014-01-11T14:27:32Z</time>
      </trkpt>
      <trkpt lat="47.99684" lon="-4.28939">
        <ele>117.41821289062</ele>
        <time>2014-01-11T14:27:38Z</time>
      </trkpt>
      <trkpt lat="47.99682" lon="-4.28939">
        <ele>117.89880371094</ele>
        <time>2014-01-11T14:27:39Z</time>
      </trkpt>
      <trkpt lat="47.9967" lon="-4.28941">
        <ele>119.82141113281</ele>
        <time>2014-01-11T14:27:48Z</time>
      </trkpt>
      <trkpt lat="47.99663" lon="-4.28944">
        <ele>120.78283691406</ele>
        <time>2014-01-11T14:27:54Z</time>
      </trkpt>
      <trkpt lat="47.99658" lon="-4.28946">
        <ele>121.744140625</ele>
        <time>2014-01-11T14:27:57Z</time>
      </trkpt>
      <trkpt lat="47.99651" lon="-4.28949">
        <ele>121.744140625</ele>
        <time>2014-01-11T14:28:04Z</time>
      </trkpt>
      <trkpt lat="47.99645" lon="-4.2895">
        <ele>120.30212402344</ele>
        <time>2014-01-11T14:28:09Z</time>
      </trkpt>
      <trkpt lat="47.99639" lon="-4.28952">
        <ele>120.30212402344</ele>
        <time>2014-01-11T14:28:13Z</time>
      </trkpt>
      <trkpt lat="47.99633" lon="-4.28955">
        <ele>118.86010742188</ele>
        <time>2014-01-11T14:28:17Z</time>
      </trkpt>
      <trkpt lat="47.99626" lon="-4.28956">
        <ele>118.37939453125</ele>
        <time>2014-01-11T14:28:22Z</time>
      </trkpt>
      <trkpt lat="47.99617" lon="-4.28957">
        <ele>117.89880371094</ele>
        <time>2014-01-11T14:28:28Z</time>
      </trkpt>
      <trkpt lat="47.99615" lon="-4.28958">
        <ele>117.89880371094</ele>
        <time>2014-01-11T14:28:30Z</time>
      </trkpt>
      <trkpt lat="47.99606" lon="-4.28959">
        <ele>116.9375</ele>
        <time>2014-01-11T14:28:37Z</time>
      </trkpt>
      <trkpt lat="47.99601" lon="-4.28958">
        <ele>118.37939453125</ele>
        <time>2014-01-11T14:28:40Z</time>
      </trkpt>
      <trkpt lat="47.9959" lon="-4.28959">
        <ele>120.30212402344</ele>
        <time>2014-01-11T14:28:49Z</time>
      </trkpt>
      <trkpt lat="47.99583" lon="-4.28963">
        <ele>119.82141113281</ele>
        <time>2014-01-11T14:28:54Z</time>
      </trkpt>
      <trkpt lat="47.99577" lon="-4.28964">
        <ele>119.3408203125</ele>
        <time>2014-01-11T14:28:59Z</time>
      </trkpt>
      <trkpt lat="47.99574" lon="-4.28964">
        <ele>119.82141113281</ele>
        <time>2014-01-11T14:29:01Z</time>
      </trkpt>
      <trkpt lat="47.99567" lon="-4.28967">
        <ele>120.78283691406</ele>
        <time>2014-01-11T14:29:06Z</time>
      </trkpt>
      <trkpt lat="47.99563" lon="-4.28966">
        <ele>118.37939453125</ele>
        <time>2014-01-11T14:29:10Z</time>
      </trkpt>
      <trkpt lat="47.99555" lon="-4.28968">
        <ele>115.01489257812</ele>
        <time>2014-01-11T14:29:16Z</time>
      </trkpt>
      <trkpt lat="47.99551" lon="-4.28968">
        <ele>114.05358886719</ele>
        <time>2014-01-11T14:29:19Z</time>
      </trkpt>
      <trkpt lat="47.9954" lon="-4.28973">
        <ele>113.09228515625</ele>
        <time>2014-01-11T14:29:27Z</time>
      </trkpt>
      <trkpt lat="47.99538" lon="-4.28973">
        <ele>113.09228515625</ele>
        <time>2014-01-11T14:29:28Z</time>
      </trkpt>
      <trkpt lat="47.99533" lon="-4.2897">
        <ele>112.61157226562</ele>
        <time>2014-01-11T14:29:32Z</time>
      </trkpt>
      <trkpt lat="47.99524" lon="-4.28971">
        <ele>111.16955566406</ele>
        <time>2014-01-11T14:29:39Z</time>
      </trkpt>
      <trkpt lat="47.99519" lon="-4.28975">
        <ele>111.16955566406</ele>
        <time>2014-01-11T14:29:43Z</time>
      </trkpt>
      <trkpt lat="47.99511" lon="-4.28979">
        <ele>111.16955566406</ele>
        <time>2014-01-11T14:29:48Z</time>
      </trkpt>
      <trkpt lat="47.99504" lon="-4.28982">
        <ele>114.05358886719</ele>
        <time>2014-01-11T14:29:54Z</time>
      </trkpt>
      <trkpt lat="47.99503" lon="-4.28982">
        <ele>112.61157226562</ele>
        <time>2014-01-11T14:29:56Z</time>
      </trkpt>
      <trkpt lat="47.99496" lon="-4.28985">
        <ele>112.13098144531</ele>
        <time>2014-01-11T14:30:02Z</time>
      </trkpt>
      <trkpt lat="47.99493" lon="-4.28985">
        <ele>112.61157226562</ele>
        <time>2014-01-11T14:30:04Z</time>
      </trkpt>
      <trkpt lat="47.99486" lon="-4.28986">
        <ele>112.61157226562</ele>
        <time>2014-01-11T14:30:09Z</time>
      </trkpt>
      <trkpt lat="47.99482" lon="-4.28987">
        <ele>113.09228515625</ele>
        <time>2014-01-11T14:30:13Z</time>
      </trkpt>
      <trkpt lat="47.99474" lon="-4.28987">
        <ele>113.57299804688</ele>
        <time>2014-01-11T14:30:19Z</time>
      </trkpt>
      <trkpt lat="47.99472" lon="-4.28987">
        <ele>114.05358886719</ele>
        <time>2014-01-11T14:30:21Z</time>
      </trkpt>
      <trkpt lat="47.99468" lon="-4.28989">
        <ele>115.49560546875</ele>
        <time>2014-01-11T14:30:23Z</time>
      </trkpt>
      <trkpt lat="47.9946" lon="-4.28991">
        <ele>116.9375</ele>
        <time>2014-01-11T14:30:29Z</time>
      </trkpt>
      <trkpt lat="47.99453" lon="-4.28994">
        <ele>116.9375</ele>
        <time>2014-01-11T14:30:34Z</time>
      </trkpt>
      <trkpt lat="47.99446" lon="-4.28996">
        <ele>117.41821289062</ele>
        <time>2014-01-11T14:30:39Z</time>
      </trkpt>
      <trkpt lat="47.9944" lon="-4.28997">
        <ele>118.86010742188</ele>
        <time>2014-01-11T14:30:44Z</time>
      </trkpt>
      <trkpt lat="47.99433" lon="-4.29001">
        <ele>117.89880371094</ele>
        <time>2014-01-11T14:30:49Z</time>
      </trkpt>
      <trkpt lat="47.99429" lon="-4.29">
        <ele>115.97619628906</ele>
        <time>2014-01-11T14:30:52Z</time>
      </trkpt>
      <trkpt lat="47.99427" lon="-4.29">
        <ele>115.01489257812</ele>
        <time>2014-01-11T14:30:54Z</time>
      </trkpt>
      <trkpt lat="47.9942" lon="-4.29003">
        <ele>111.65026855469</ele>
        <time>2014-01-11T14:31:00Z</time>
      </trkpt>
      <trkpt lat="47.99415" lon="-4.29005">
        <ele>110.68884277344</ele>
        <time>2014-01-11T14:31:04Z</time>
      </trkpt>
      <trkpt lat="47.99405" lon="-4.29009">
        <ele>111.65026855469</ele>
        <time>2014-01-11T14:31:10Z</time>
      </trkpt>
      <trkpt lat="47.99398" lon="-4.29012">
        <ele>109.72766113281</ele>
        <time>2014-01-11T14:31:16Z</time>
      </trkpt>
      <trkpt lat="47.99395" lon="-4.29014">
        <ele>106.84362792969</ele>
        <time>2014-01-11T14:31:19Z</time>
      </trkpt>
      <trkpt lat="47.99389" lon="-4.29016">
        <ele>104.92102050781</ele>
        <time>2014-01-11T14:31:23Z</time>
      </trkpt>
      <trkpt lat="47.99382" lon="-4.2902">
        <ele>104.92102050781</ele>
        <time>2014-01-11T14:31:29Z</time>
      </trkpt>
      <trkpt lat="47.99376" lon="-4.29023">
        <ele>104.92102050781</ele>
        <time>2014-01-11T14:31:34Z</time>
      </trkpt>
      <trkpt lat="47.99367" lon="-4.29027">
        <ele>104.92102050781</ele>
        <time>2014-01-11T14:31:39Z</time>
      </trkpt>
      <trkpt lat="47.99363" lon="-4.29032">
        <ele>105.40173339844</ele>
        <time>2014-01-11T14:31:43Z</time>
      </trkpt>
      <trkpt lat="47.99361" lon="-4.29033">
        <ele>105.40173339844</ele>
        <time>2014-01-11T14:31:45Z</time>
      </trkpt>
      <trkpt lat="47.99355" lon="-4.29037">
        <ele>106.84362792969</ele>
        <time>2014-01-11T14:31:51Z</time>
      </trkpt>
      <trkpt lat="47.99349" lon="-4.29042">
        <ele>105.88244628906</ele>
        <time>2014-01-11T14:31:56Z</time>
      </trkpt>
      <trkpt lat="47.99345" lon="-4.29045">
        <ele>104.92102050781</ele>
        <time>2014-01-11T14:32:00Z</time>
      </trkpt>
      <trkpt lat="47.9934" lon="-4.29047">
        <ele>102.51770019531</ele>
        <time>2014-01-11T14:32:04Z</time>
      </trkpt>
      <trkpt lat="47.99331" lon="-4.29057">
        <ele>102.99829101562</ele>
        <time>2014-01-11T14:32:12Z</time>
      </trkpt>
      <trkpt lat="47.99329" lon="-4.29072">
        <ele>102.51770019531</ele>
        <time>2014-01-11T14:32:20Z</time>
      </trkpt>
      <trkpt lat="47.99328" lon="-4.29089">
        <ele>101.55639648438</ele>
        <time>2014-01-11T14:32:29Z</time>
      </trkpt>
      <trkpt lat="47.99327" lon="-4.29094">
        <ele>102.037109375</ele>
        <time>2014-01-11T14:32:32Z</time>
      </trkpt>
      <trkpt lat="47.99322" lon="-4.291">
        <ele>102.99829101562</ele>
        <time>2014-01-11T14:32:37Z</time>
      </trkpt>
      <trkpt lat="47.99313" lon="-4.29102">
        <ele>103.95971679688</ele>
        <time>2014-01-11T14:32:43Z</time>
      </trkpt>
      <trkpt lat="47.99308" lon="-4.291">
        <ele>104.92102050781</ele>
        <time>2014-01-11T14:32:47Z</time>
      </trkpt>
      <trkpt lat="47.99304" lon="-4.29099">
        <ele>103.47900390625</ele>
        <time>2014-01-11T14:32:51Z</time>
      </trkpt>
      <trkpt lat="47.99301" lon="-4.29098">
        <ele>101.55639648438</ele>
        <time>2014-01-11T14:32:54Z</time>
      </trkpt>
      <trkpt lat="47.99296" lon="-4.29097">
        <ele>98.19189453125</ele>
        <time>2014-01-11T14:33:00Z</time>
      </trkpt>
      <trkpt lat="47.99291" lon="-4.29095">
        <ele>98.19189453125</ele>
        <time>2014-01-11T14:33:05Z</time>
      </trkpt>
      <trkpt lat="47.99282" lon="-4.29092">
        <ele>96.749877929688</ele>
        <time>2014-01-11T14:33:12Z</time>
      </trkpt>
      <trkpt lat="47.99279" lon="-4.29091">
        <ele>96.269287109375</ele>
        <time>2014-01-11T14:33:14Z</time>
      </trkpt>
      <trkpt lat="47.99268" lon="-4.2909">
        <ele>96.749877929688</ele>
        <time>2014-01-11T14:33:21Z</time>
      </trkpt>
      <trkpt lat="47.99261" lon="-4.29088">
        <ele>97.711181640625</ele>
        <time>2014-01-11T14:33:25Z</time>
      </trkpt>
      <trkpt lat="47.99256" lon="-4.2909">
        <ele>97.23046875</ele>
        <time>2014-01-11T14:33:29Z</time>
      </trkpt>
      <trkpt lat="47.99251" lon="-4.2909">
        <ele>95.788452148438</ele>
        <time>2014-01-11T14:33:33Z</time>
      </trkpt>
      <trkpt lat="47.99245" lon="-4.29088">
        <ele>97.23046875</ele>
        <time>2014-01-11T14:33:37Z</time>
      </trkpt>
      <trkpt lat="47.99235" lon="-4.29086">
        <ele>99.153076171875</ele>
        <time>2014-01-11T14:33:44Z</time>
      </trkpt>
      <trkpt lat="47.9923" lon="-4.29087">
        <ele>99.153076171875</ele>
        <time>2014-01-11T14:33:47Z</time>
      </trkpt>
      <trkpt lat="47.99221" lon="-4.29085">
        <ele>98.19189453125</ele>
        <time>2014-01-11T14:33:53Z</time>
      </trkpt>
      <trkpt lat="47.99212" lon="-4.29084">
        <ele>97.23046875</ele>
        <time>2014-01-11T14:34:00Z</time>
      </trkpt>
      <trkpt lat="47.99202" lon="-4.29084">
        <ele>96.749877929688</ele>
        <time>2014-01-11T14:34:07Z</time>
      </trkpt>
      <trkpt lat="47.992" lon="-4.29086">
        <ele>96.269287109375</ele>
        <time>2014-01-11T14:34:09Z</time>
      </trkpt>
      <trkpt lat="47.99195" lon="-4.29086">
        <ele>95.788452148438</ele>
        <time>2014-01-11T14:34:13Z</time>
      </trkpt>
      <trkpt lat="47.99193" lon="-4.29086">
        <ele>95.788452148438</ele>
        <time>2014-01-11T14:34:15Z</time>
      </trkpt>
      <trkpt lat="47.99189" lon="-4.29086">
        <ele>96.269287109375</ele>
        <time>2014-01-11T14:34:23Z</time>
      </trkpt>
      <trkpt lat="47.99186" lon="-4.29085">
        <ele>96.749877929688</ele>
        <time>2014-01-11T14:34:31Z</time>
      </trkpt>
      <trkpt lat="47.99173" lon="-4.29085">
        <ele>94.8271484375</ele>
        <time>2014-01-11T14:34:41Z</time>
      </trkpt>
      <trkpt lat="47.99172" lon="-4.29084">
        <ele>94.346557617188</ele>
        <time>2014-01-11T14:34:42Z</time>
      </trkpt>
      <trkpt lat="47.99166" lon="-4.29083">
        <ele>95.307739257812</ele>
        <time>2014-01-11T14:34:47Z</time>
      </trkpt>
      <trkpt lat="47.9916" lon="-4.29085">
        <ele>95.307739257812</ele>
        <time>2014-01-11T14:34:53Z</time>
      </trkpt>
      <trkpt lat="47.99159" lon="-4.29085">
        <ele>95.307739257812</ele>
        <time>2014-01-11T14:34:54Z</time>
      </trkpt>
      <trkpt lat="47.99152" lon="-4.29079">
        <ele>94.8271484375</ele>
        <time>2014-01-11T14:34:59Z</time>
      </trkpt>
      <trkpt lat="47.99146" lon="-4.2908">
        <ele>93.385131835938</ele>
        <time>2014-01-11T14:35:03Z</time>
      </trkpt>
      <trkpt lat="47.99144" lon="-4.29079">
        <ele>92.904541015625</ele>
        <time>2014-01-11T14:35:05Z</time>
      </trkpt>
      <trkpt lat="47.99142" lon="-4.29074">
        <ele>92.904541015625</ele>
        <time>2014-01-11T14:35:07Z</time>
      </trkpt>
      <trkpt lat="47.99134" lon="-4.29067">
        <ele>92.904541015625</ele>
        <time>2014-01-11T14:35:13Z</time>
      </trkpt>
      <trkpt lat="47.99128" lon="-4.29062">
        <ele>91.462524414062</ele>
        <time>2014-01-11T14:35:17Z</time>
      </trkpt>
      <trkpt lat="47.99125" lon="-4.29061">
        <ele>90.020629882812</ele>
        <time>2014-01-11T14:35:20Z</time>
      </trkpt>
      <trkpt lat="47.9912" lon="-4.29058">
        <ele>87.136596679688</ele>
        <time>2014-01-11T14:35:24Z</time>
      </trkpt>
      <trkpt lat="47.99115" lon="-4.29052">
        <ele>86.17529296875</ele>
        <time>2014-01-11T14:35:29Z</time>
      </trkpt>
      <trkpt lat="47.99112" lon="-4.2905">
        <ele>85.213989257812</ele>
        <time>2014-01-11T14:35:31Z</time>
      </trkpt>
      <trkpt lat="47.99101" lon="-4.29042">
        <ele>83.291381835938</ele>
        <time>2014-01-11T14:35:40Z</time>
      </trkpt>
      <trkpt lat="47.99092" lon="-4.29035">
        <ele>83.77197265625</ele>
        <time>2014-01-11T14:35:46Z</time>
      </trkpt>
      <trkpt lat="47.99087" lon="-4.29029">
        <ele>82.810791015625</ele>
        <time>2014-01-11T14:35:51Z</time>
      </trkpt>
      <trkpt lat="47.99086" lon="-4.29028">
        <ele>82.810791015625</ele>
        <time>2014-01-11T14:35:52Z</time>
      </trkpt>
      <trkpt lat="47.9908" lon="-4.29022">
        <ele>83.77197265625</ele>
        <time>2014-01-11T14:35:57Z</time>
      </trkpt>
      <trkpt lat="47.99071" lon="-4.29014">
        <ele>83.77197265625</ele>
        <time>2014-01-11T14:36:05Z</time>
      </trkpt>
      <trkpt lat="47.99067" lon="-4.29009">
        <ele>83.77197265625</ele>
        <time>2014-01-11T14:36:09Z</time>
      </trkpt>
      <trkpt lat="47.99062" lon="-4.29004">
        <ele>83.77197265625</ele>
        <time>2014-01-11T14:36:14Z</time>
      </trkpt>
      <trkpt lat="47.99055" lon="-4.28998">
        <ele>83.291381835938</ele>
        <time>2014-01-11T14:36:19Z</time>
      </trkpt>
      <trkpt lat="47.99045" lon="-4.28991">
        <ele>81.368774414062</ele>
        <time>2014-01-11T14:36:27Z</time>
      </trkpt>
      <trkpt lat="47.99034" lon="-4.28982">
        <ele>79.446044921875</ele>
        <time>2014-01-11T14:36:37Z</time>
      </trkpt>
      <trkpt lat="47.99028" lon="-4.28976">
        <ele>77.5234375</ele>
        <time>2014-01-11T14:36:44Z</time>
      </trkpt>
      <trkpt lat="47.9902" lon="-4.2897">
        <ele>76.081420898438</ele>
        <time>2014-01-11T14:36:51Z</time>
      </trkpt>
      <trkpt lat="47.99011" lon="-4.28959">
        <ele>76.562133789062</ele>
        <time>2014-01-11T14:36:59Z</time>
      </trkpt>
      <trkpt lat="47.99003" lon="-4.28953">
        <ele>75.120239257812</ele>
        <time>2014-01-11T14:37:06Z</time>
      </trkpt>
      <trkpt lat="47.98999" lon="-4.28949">
        <ele>74.639526367188</ele>
        <time>2014-01-11T14:37:10Z</time>
      </trkpt>
      <trkpt lat="47.98989" lon="-4.28939">
        <ele>75.600830078125</ele>
        <time>2014-01-11T14:37:19Z</time>
      </trkpt>
      <trkpt lat="47.98983" lon="-4.28934">
        <ele>74.639526367188</ele>
        <time>2014-01-11T14:37:25Z</time>
      </trkpt>
      <trkpt lat="47.98977" lon="-4.28926">
        <ele>74.158813476562</ele>
        <time>2014-01-11T14:37:31Z</time>
      </trkpt>
      <trkpt lat="47.98971" lon="-4.2892">
        <ele>73.67822265625</ele>
        <time>2014-01-11T14:37:36Z</time>
      </trkpt>
      <trkpt lat="47.98967" lon="-4.28915">
        <ele>73.197631835938</ele>
        <time>2014-01-11T14:37:40Z</time>
      </trkpt>
      <trkpt lat="47.98956" lon="-4.28897">
        <ele>78.965454101562</ele>
        <time>2014-01-11T14:37:49Z</time>
      </trkpt>
      <trkpt lat="47.9895" lon="-4.28888">
        <ele>81.368774414062</ele>
        <time>2014-01-11T14:37:54Z</time>
      </trkpt>
      <trkpt lat="47.98949" lon="-4.28887">
        <ele>81.368774414062</ele>
        <time>2014-01-11T14:37:55Z</time>
      </trkpt>
      <trkpt lat="47.98942" lon="-4.28878">
        <ele>80.88818359375</ele>
        <time>2014-01-11T14:38:02Z</time>
      </trkpt>
      <trkpt lat="47.98939" lon="-4.28872">
        <ele>81.849365234375</ele>
        <time>2014-01-11T14:38:05Z</time>
      </trkpt>
      <trkpt lat="47.98934" lon="-4.28861">
        <ele>84.252685546875</ele>
        <time>2014-01-11T14:38:11Z</time>
      </trkpt>
      <trkpt lat="47.98928" lon="-4.28853">
        <ele>82.810791015625</ele>
        <time>2014-01-11T14:38:17Z</time>
      </trkpt>
      <trkpt lat="47.98922" lon="-4.28843">
        <ele>81.368774414062</ele>
        <time>2014-01-11T14:38:23Z</time>
      </trkpt>
      <trkpt lat="47.98918" lon="-4.28832">
        <ele>82.330078125</ele>
        <time>2014-01-11T14:38:29Z</time>
      </trkpt>
      <trkpt lat="47.98914" lon="-4.28827">
        <ele>81.849365234375</ele>
        <time>2014-01-11T14:38:32Z</time>
      </trkpt>
      <trkpt lat="47.98912" lon="-4.28824">
        <ele>80.88818359375</ele>
        <time>2014-01-11T14:38:34Z</time>
      </trkpt>
      <trkpt lat="47.98906" lon="-4.28817">
        <ele>76.081420898438</ele>
        <time>2014-01-11T14:38:40Z</time>
      </trkpt>
      <trkpt lat="47.98902" lon="-4.28812">
        <ele>74.639526367188</ele>
        <time>2014-01-11T14:38:44Z</time>
      </trkpt>
      <trkpt lat="47.98898" lon="-4.28801">
        <ele>74.639526367188</ele>
        <time>2014-01-11T14:38:50Z</time>
      </trkpt>
      <trkpt lat="47.9889" lon="-4.28787">
        <ele>74.158813476562</ele>
        <time>2014-01-11T14:38:59Z</time>
      </trkpt>
      <trkpt lat="47.98883" lon="-4.28777">
        <ele>74.158813476562</ele>
        <time>2014-01-11T14:39:06Z</time>
      </trkpt>
      <trkpt lat="47.98878" lon="-4.28767">
        <ele>77.042846679688</ele>
        <time>2014-01-11T14:39:11Z</time>
      </trkpt>
      <trkpt lat="47.98877" lon="-4.28765">
        <ele>77.042846679688</ele>
        <time>2014-01-11T14:39:12Z</time>
      </trkpt>
      <trkpt lat="47.98867" lon="-4.28749">
        <ele>80.407470703125</ele>
        <time>2014-01-11T14:39:21Z</time>
      </trkpt>
      <trkpt lat="47.98862" lon="-4.2874">
        <ele>80.407470703125</ele>
        <time>2014-01-11T14:39:26Z</time>
      </trkpt>
      <trkpt lat="47.98861" lon="-4.28736">
        <ele>79.926635742188</ele>
        <time>2014-01-11T14:39:29Z</time>
      </trkpt>
      <trkpt lat="47.98855" lon="-4.28727">
        <ele>79.926635742188</ele>
        <time>2014-01-11T14:39:35Z</time>
      </trkpt>
      <trkpt lat="47.98852" lon="-4.28722">
        <ele>77.5234375</ele>
        <time>2014-01-11T14:39:39Z</time>
      </trkpt>
      <trkpt lat="47.9885" lon="-4.28719">
        <ele>76.562133789062</ele>
        <time>2014-01-11T14:39:42Z</time>
      </trkpt>
      <trkpt lat="47.98844" lon="-4.28706">
        <ele>76.562133789062</ele>
        <time>2014-01-11T14:39:49Z</time>
      </trkpt>
      <trkpt lat="47.98841" lon="-4.28703">
        <ele>75.120239257812</ele>
        <time>2014-01-11T14:39:52Z</time>
      </trkpt>
      <trkpt lat="47.98837" lon="-4.28696">
        <ele>73.67822265625</ele>
        <time>2014-01-11T14:39:57Z</time>
      </trkpt>
      <trkpt lat="47.98833" lon="-4.28687">
        <ele>74.158813476562</ele>
        <time>2014-01-11T14:40:04Z</time>
      </trkpt>
      <trkpt lat="47.98829" lon="-4.2868">
        <ele>75.600830078125</ele>
        <time>2014-01-11T14:40:07Z</time>
      </trkpt>
      <trkpt lat="47.98819" lon="-4.28661">
        <ele>79.446044921875</ele>
        <time>2014-01-11T14:40:16Z</time>
      </trkpt>
      <trkpt lat="47.98815" lon="-4.28656">
        <ele>78.965454101562</ele>
        <time>2014-01-11T14:40:21Z</time>
      </trkpt>
      <trkpt lat="47.98813" lon="-4.28653">
        <ele>78.965454101562</ele>
        <time>2014-01-11T14:40:23Z</time>
      </trkpt>
      <trkpt lat="47.98809" lon="-4.28645">
        <ele>75.120239257812</ele>
        <time>2014-01-11T14:40:30Z</time>
      </trkpt>
      <trkpt lat="47.98804" lon="-4.28637">
        <ele>76.562133789062</ele>
        <time>2014-01-11T14:40:35Z</time>
      </trkpt>
      <trkpt lat="47.98801" lon="-4.28631">
        <ele>78.004028320312</ele>
        <time>2014-01-11T14:40:38Z</time>
      </trkpt>
      <trkpt lat="47.98792" lon="-4.28616">
        <ele>81.368774414062</ele>
        <time>2014-01-11T14:40:45Z</time>
      </trkpt>
      <trkpt lat="47.98785" lon="-4.28602">
        <ele>84.7333984375</ele>
        <time>2014-01-11T14:40:53Z</time>
      </trkpt>
      <trkpt lat="47.98779" lon="-4.28594">
        <ele>84.7333984375</ele>
        <time>2014-01-11T14:40:59Z</time>
      </trkpt>
      <trkpt lat="47.98773" lon="-4.28582">
        <ele>87.136596679688</ele>
        <time>2014-01-11T14:41:06Z</time>
      </trkpt>
      <trkpt lat="47.98766" lon="-4.28572">
        <ele>89.059326171875</ele>
        <time>2014-01-11T14:41:12Z</time>
      </trkpt>
      <trkpt lat="47.98761" lon="-4.28562">
        <ele>88.578735351562</ele>
        <time>2014-01-11T14:41:18Z</time>
      </trkpt>
      <trkpt lat="47.98756" lon="-4.28554">
        <ele>85.213989257812</ele>
        <time>2014-01-11T14:41:25Z</time>
      </trkpt>
      <trkpt lat="47.98752" lon="-4.28549">
        <ele>83.77197265625</ele>
        <time>2014-01-11T14:41:29Z</time>
      </trkpt>
      <trkpt lat="47.98747" lon="-4.28539">
        <ele>86.656005859375</ele>
        <time>2014-01-11T14:41:36Z</time>
      </trkpt>
      <trkpt lat="47.98745" lon="-4.28533">
        <ele>87.136596679688</ele>
        <time>2014-01-11T14:41:39Z</time>
      </trkpt>
      <trkpt lat="47.98739" lon="-4.28522">
        <ele>89.539916992188</ele>
        <time>2014-01-11T14:41:45Z</time>
      </trkpt>
      <trkpt lat="47.98734" lon="-4.28513">
        <ele>86.656005859375</ele>
        <time>2014-01-11T14:41:51Z</time>
      </trkpt>
      <trkpt lat="47.98728" lon="-4.285">
        <ele>83.77197265625</ele>
        <time>2014-01-11T14:41:58Z</time>
      </trkpt>
      <trkpt lat="47.98721" lon="-4.28487">
        <ele>83.291381835938</ele>
        <time>2014-01-11T14:42:06Z</time>
      </trkpt>
      <trkpt lat="47.98719" lon="-4.28479">
        <ele>83.77197265625</ele>
        <time>2014-01-11T14:42:10Z</time>
      </trkpt>
      <trkpt lat="47.9872" lon="-4.28466">
        <ele>82.330078125</ele>
        <time>2014-01-11T14:42:17Z</time>
      </trkpt>
      <trkpt lat="47.98723" lon="-4.28457">
        <ele>78.484741210938</ele>
        <time>2014-01-11T14:42:22Z</time>
      </trkpt>
      <trkpt lat="47.98724" lon="-4.28449">
        <ele>77.042846679688</ele>
        <time>2014-01-11T14:42:28Z</time>
      </trkpt>
      <trkpt lat="47.98722" lon="-4.28438">
        <ele>78.004028320312</ele>
        <time>2014-01-11T14:42:34Z</time>
      </trkpt>
      <trkpt lat="47.98723" lon="-4.28436">
        <ele>78.484741210938</ele>
        <time>2014-01-11T14:42:35Z</time>
      </trkpt>
      <trkpt lat="47.98726" lon="-4.28424">
        <ele>79.446044921875</ele>
        <time>2014-01-11T14:42:41Z</time>
      </trkpt>
      <trkpt lat="47.9873" lon="-4.28414">
        <ele>80.88818359375</ele>
        <time>2014-01-11T14:42:47Z</time>
      </trkpt>
      <trkpt lat="47.98734" lon="-4.28401">
        <ele>80.88818359375</ele>
        <time>2014-01-11T14:42:54Z</time>
      </trkpt>
      <trkpt lat="47.9874" lon="-4.28384">
        <ele>81.368774414062</ele>
        <time>2014-01-11T14:43:04Z</time>
      </trkpt>
      <trkpt lat="47.98746" lon="-4.28364">
        <ele>81.849365234375</ele>
        <time>2014-01-11T14:43:15Z</time>
      </trkpt>
      <trkpt lat="47.98751" lon="-4.28345">
        <ele>82.810791015625</ele>
        <time>2014-01-11T14:43:26Z</time>
      </trkpt>
      <trkpt lat="47.98757" lon="-4.28328">
        <ele>82.330078125</ele>
        <time>2014-01-11T14:43:36Z</time>
      </trkpt>
      <trkpt lat="47.98763" lon="-4.28311">
        <ele>82.810791015625</ele>
        <time>2014-01-11T14:43:46Z</time>
      </trkpt>
      <trkpt lat="47.98769" lon="-4.28294">
        <ele>83.77197265625</ele>
        <time>2014-01-11T14:43:56Z</time>
      </trkpt>
      <trkpt lat="47.98775" lon="-4.28283">
        <ele>83.77197265625</ele>
        <time>2014-01-11T14:44:02Z</time>
      </trkpt>
      <trkpt lat="47.98781" lon="-4.28272">
        <ele>85.213989257812</ele>
        <time>2014-01-11T14:44:09Z</time>
      </trkpt>
      <trkpt lat="47.98783" lon="-4.28265">
        <ele>85.694580078125</ele>
        <time>2014-01-11T14:44:13Z</time>
      </trkpt>
      <trkpt lat="47.98782" lon="-4.28252">
        <ele>87.136596679688</ele>
        <time>2014-01-11T14:44:20Z</time>
      </trkpt>
      <trkpt lat="47.98782" lon="-4.2825">
        <ele>87.6171875</ele>
        <time>2014-01-11T14:44:21Z</time>
      </trkpt>
      <trkpt lat="47.98775" lon="-4.28239">
        <ele>90.020629882812</ele>
        <time>2014-01-11T14:44:28Z</time>
      </trkpt>
      <trkpt lat="47.98771" lon="-4.28233">
        <ele>90.020629882812</ele>
        <time>2014-01-11T14:44:33Z</time>
      </trkpt>
      <trkpt lat="47.98766" lon="-4.28227">
        <ele>90.020629882812</ele>
        <time>2014-01-11T14:44:39Z</time>
      </trkpt>
      <trkpt lat="47.98762" lon="-4.28226">
        <ele>90.501342773438</ele>
        <time>2014-01-11T14:44:43Z</time>
      </trkpt>
      <trkpt lat="47.98758" lon="-4.28223">
        <ele>92.423950195312</ele>
        <time>2014-01-11T14:44:46Z</time>
      </trkpt>
      <trkpt lat="47.98751" lon="-4.28217">
        <ele>94.8271484375</ele>
        <time>2014-01-11T14:44:52Z</time>
      </trkpt>
      <trkpt lat="47.9875" lon="-4.28215">
        <ele>94.8271484375</ele>
        <time>2014-01-11T14:44:54Z</time>
      </trkpt>
      <trkpt lat="47.98742" lon="-4.28207">
        <ele>93.385131835938</ele>
        <time>2014-01-11T14:45:00Z</time>
      </trkpt>
      <trkpt lat="47.98736" lon="-4.28202">
        <ele>92.904541015625</ele>
        <time>2014-01-11T14:45:04Z</time>
      </trkpt>
      <trkpt lat="47.98732" lon="-4.28194">
        <ele>89.539916992188</ele>
        <time>2014-01-11T14:45:09Z</time>
      </trkpt>
      <trkpt lat="47.98731" lon="-4.28193">
        <ele>89.059326171875</ele>
        <time>2014-01-11T14:45:10Z</time>
      </trkpt>
      <trkpt lat="47.98729" lon="-4.28189">
        <ele>88.578735351562</ele>
        <time>2014-01-11T14:45:12Z</time>
      </trkpt>
      <trkpt lat="47.98721" lon="-4.28178">
        <ele>85.213989257812</ele>
        <time>2014-01-11T14:45:19Z</time>
      </trkpt>
      <trkpt lat="47.98719" lon="-4.28176">
        <ele>84.252685546875</ele>
        <time>2014-01-11T14:45:21Z</time>
      </trkpt>
      <trkpt lat="47.98716" lon="-4.28174">
        <ele>83.291381835938</ele>
        <time>2014-01-11T14:45:23Z</time>
      </trkpt>
      <trkpt lat="47.98711" lon="-4.28165">
        <ele>80.88818359375</ele>
        <time>2014-01-11T14:45:29Z</time>
      </trkpt>
      <trkpt lat="47.98702" lon="-4.28156">
        <ele>79.926635742188</ele>
        <time>2014-01-11T14:45:36Z</time>
      </trkpt>
      <trkpt lat="47.98696" lon="-4.28149">
        <ele>79.446044921875</ele>
        <time>2014-01-11T14:45:41Z</time>
      </trkpt>
      <trkpt lat="47.98689" lon="-4.28139">
        <ele>79.926635742188</ele>
        <time>2014-01-11T14:45:47Z</time>
      </trkpt>
      <trkpt lat="47.98685" lon="-4.28136">
        <ele>80.407470703125</ele>
        <time>2014-01-11T14:45:50Z</time>
      </trkpt>
      <trkpt lat="47.98682" lon="-4.28131">
        <ele>80.407470703125</ele>
        <time>2014-01-11T14:45:55Z</time>
      </trkpt>
      <trkpt lat="47.98681" lon="-4.28124">
        <ele>82.330078125</ele>
        <time>2014-01-11T14:45:58Z</time>
      </trkpt>
      <trkpt lat="47.9868" lon="-4.28117">
        <ele>83.291381835938</ele>
        <time>2014-01-11T14:46:02Z</time>
      </trkpt>
      <trkpt lat="47.98678" lon="-4.2811">
        <ele>83.291381835938</ele>
        <time>2014-01-11T14:46:08Z</time>
      </trkpt>
      <trkpt lat="47.98678" lon="-4.28105">
        <ele>81.849365234375</ele>
        <time>2014-01-11T14:46:12Z</time>
      </trkpt>
      <trkpt lat="47.98678" lon="-4.28092">
        <ele>80.88818359375</ele>
        <time>2014-01-11T14:46:18Z</time>
      </trkpt>
      <trkpt lat="47.98677" lon="-4.28081">
        <ele>79.926635742188</ele>
        <time>2014-01-11T14:46:23Z</time>
      </trkpt>
      <trkpt lat="47.98676" lon="-4.28074">
        <ele>81.849365234375</ele>
        <time>2014-01-11T14:46:26Z</time>
      </trkpt>
      <trkpt lat="47.98673" lon="-4.28061">
        <ele>84.7333984375</ele>
        <time>2014-01-11T14:46:32Z</time>
      </trkpt>
      <trkpt lat="47.98672" lon="-4.28057">
        <ele>85.694580078125</ele>
        <time>2014-01-11T14:46:34Z</time>
      </trkpt>
      <trkpt lat="47.98664" lon="-4.28043">
        <ele>88.578735351562</ele>
        <time>2014-01-11T14:46:42Z</time>
      </trkpt>
      <trkpt lat="47.98652" lon="-4.28032">
        <ele>85.694580078125</ele>
        <time>2014-01-11T14:46:51Z</time>
      </trkpt>
      <trkpt lat="47.98643" lon="-4.28023">
        <ele>83.77197265625</ele>
        <time>2014-01-11T14:46:59Z</time>
      </trkpt>
      <trkpt lat="47.98631" lon="-4.28013">
        <ele>82.330078125</ele>
        <time>2014-01-11T14:47:08Z</time>
      </trkpt>
      <trkpt lat="47.98625" lon="-4.28008">
        <ele>82.810791015625</ele>
        <time>2014-01-11T14:47:12Z</time>
      </trkpt>
      <trkpt lat="47.98619" lon="-4.28004">
        <ele>83.291381835938</ele>
        <time>2014-01-11T14:47:16Z</time>
      </trkpt>
      <trkpt lat="47.98617" lon="-4.28003">
        <ele>83.291381835938</ele>
        <time>2014-01-11T14:47:17Z</time>
      </trkpt>
      <trkpt lat="47.98611" lon="-4.27999">
        <ele>82.810791015625</ele>
        <time>2014-01-11T14:47:21Z</time>
      </trkpt>
      <trkpt lat="47.98604" lon="-4.27993">
        <ele>84.7333984375</ele>
        <time>2014-01-11T14:47:27Z</time>
      </trkpt>
      <trkpt lat="47.98597" lon="-4.27989">
        <ele>84.7333984375</ele>
        <time>2014-01-11T14:47:33Z</time>
      </trkpt>
      <trkpt lat="47.9859" lon="-4.27986">
        <ele>82.810791015625</ele>
        <time>2014-01-11T14:47:39Z</time>
      </trkpt>
      <trkpt lat="47.98586" lon="-4.27985">
        <ele>82.810791015625</ele>
        <time>2014-01-11T14:47:42Z</time>
      </trkpt>
      <trkpt lat="47.98579" lon="-4.27981">
        <ele>81.849365234375</ele>
        <time>2014-01-11T14:47:47Z</time>
      </trkpt>
      <trkpt lat="47.98574" lon="-4.27978">
        <ele>80.88818359375</ele>
        <time>2014-01-11T14:47:51Z</time>
      </trkpt>
      <trkpt lat="47.98568" lon="-4.27973">
        <ele>82.330078125</ele>
        <time>2014-01-11T14:47:56Z</time>
      </trkpt>
      <trkpt lat="47.9856" lon="-4.27971">
        <ele>81.368774414062</ele>
        <time>2014-01-11T14:48:02Z</time>
      </trkpt>
      <trkpt lat="47.98556" lon="-4.27969">
        <ele>80.88818359375</ele>
        <time>2014-01-11T14:48:06Z</time>
      </trkpt>
      <trkpt lat="47.98549" lon="-4.27965">
        <ele>79.926635742188</ele>
        <time>2014-01-11T14:48:11Z</time>
      </trkpt>
      <trkpt lat="47.98547" lon="-4.27964">
        <ele>79.446044921875</ele>
        <time>2014-01-11T14:48:12Z</time>
      </trkpt>
      <trkpt lat="47.9854" lon="-4.27957">
        <ele>81.368774414062</ele>
        <time>2014-01-11T14:48:18Z</time>
      </trkpt>
      <trkpt lat="47.98533" lon="-4.27954">
        <ele>81.849365234375</ele>
        <time>2014-01-11T14:48:23Z</time>
      </trkpt>
      <trkpt lat="47.98524" lon="-4.27945">
        <ele>83.291381835938</ele>
        <time>2014-01-11T14:48:30Z</time>
      </trkpt>
      <trkpt lat="47.98519" lon="-4.27941">
        <ele>82.810791015625</ele>
        <time>2014-01-11T14:48:35Z</time>
      </trkpt>
      <trkpt lat="47.98514" lon="-4.27936">
        <ele>83.291381835938</ele>
        <time>2014-01-11T14:48:39Z</time>
      </trkpt>
      <trkpt lat="47.98508" lon="-4.27931">
        <ele>83.77197265625</ele>
        <time>2014-01-11T14:48:44Z</time>
      </trkpt>
      <trkpt lat="47.98507" lon="-4.2793">
        <ele>83.291381835938</ele>
        <time>2014-01-11T14:48:45Z</time>
      </trkpt>
      <trkpt lat="47.98501" lon="-4.27927">
        <ele>83.291381835938</ele>
        <time>2014-01-11T14:48:51Z</time>
      </trkpt>
      <trkpt lat="47.985" lon="-4.27927">
        <ele>82.810791015625</ele>
        <time>2014-01-11T14:48:52Z</time>
      </trkpt>
      <trkpt lat="47.98497" lon="-4.27929">
        <ele>80.407470703125</ele>
        <time>2014-01-11T14:48:58Z</time>
      </trkpt>
      <trkpt lat="47.98494" lon="-4.27923">
        <ele>79.446044921875</ele>
        <time>2014-01-11T14:49:04Z</time>
      </trkpt>
      <trkpt lat="47.98489" lon="-4.27909">
        <ele>79.446044921875</ele>
        <time>2014-01-11T14:49:11Z</time>
      </trkpt>
      <trkpt lat="47.98484" lon="-4.27896">
        <ele>78.004028320312</ele>
        <time>2014-01-11T14:49:19Z</time>
      </trkpt>
      <trkpt lat="47.98478" lon="-4.27884">
        <ele>77.042846679688</ele>
        <time>2014-01-11T14:49:27Z</time>
      </trkpt>
      <trkpt lat="47.98476" lon="-4.2788">
        <ele>76.562133789062</ele>
        <time>2014-01-11T14:49:30Z</time>
      </trkpt>
      <trkpt lat="47.98473" lon="-4.27872">
        <ele>77.042846679688</ele>
        <time>2014-01-11T14:49:35Z</time>
      </trkpt>
      <trkpt lat="47.98465" lon="-4.27861">
        <ele>78.004028320312</ele>
        <time>2014-01-11T14:49:42Z</time>
      </trkpt>
      <trkpt lat="47.98461" lon="-4.27854">
        <ele>78.004028320312</ele>
        <time>2014-01-11T14:49:46Z</time>
      </trkpt>
      <trkpt lat="47.98457" lon="-4.2785">
        <ele>77.042846679688</ele>
        <time>2014-01-11T14:49:50Z</time>
      </trkpt>
      <trkpt lat="47.98452" lon="-4.27846">
        <ele>76.562133789062</ele>
        <time>2014-01-11T14:49:55Z</time>
      </trkpt>
      <trkpt lat="47.98447" lon="-4.2784">
        <ele>75.120239257812</ele>
        <time>2014-01-11T14:50:00Z</time>
      </trkpt>
      <trkpt lat="47.98441" lon="-4.27834">
        <ele>75.600830078125</ele>
        <time>2014-01-11T14:50:06Z</time>
      </trkpt>
      <trkpt lat="47.9844" lon="-4.27831">
        <ele>74.158813476562</ele>
        <time>2014-01-11T14:50:08Z</time>
      </trkpt>
      <trkpt lat="47.98437" lon="-4.27828">
        <ele>73.67822265625</ele>
        <time>2014-01-11T14:50:10Z</time>
      </trkpt>
      <trkpt lat="47.98431" lon="-4.27819">
        <ele>72.716918945312</ele>
        <time>2014-01-11T14:50:17Z</time>
      </trkpt>
      <trkpt lat="47.98428" lon="-4.27816">
        <ele>72.236206054688</ele>
        <time>2014-01-11T14:50:19Z</time>
      </trkpt>
      <trkpt lat="47.98425" lon="-4.2781">
        <ele>72.716918945312</ele>
        <time>2014-01-11T14:50:23Z</time>
      </trkpt>
      <trkpt lat="47.98418" lon="-4.27801">
        <ele>72.236206054688</ele>
        <time>2014-01-11T14:50:29Z</time>
      </trkpt>
      <trkpt lat="47.98417" lon="-4.278">
        <ele>72.236206054688</ele>
        <time>2014-01-11T14:50:30Z</time>
      </trkpt>
      <trkpt lat="47.98413" lon="-4.27792">
        <ele>69.832885742188</ele>
        <time>2014-01-11T14:50:36Z</time>
      </trkpt>
      <trkpt lat="47.98411" lon="-4.27788">
        <ele>69.352294921875</ele>
        <time>2014-01-11T14:50:39Z</time>
      </trkpt>
      <trkpt lat="47.98406" lon="-4.2778">
        <ele>68.87158203125</ele>
        <time>2014-01-11T14:50:44Z</time>
      </trkpt>
      <trkpt lat="47.984" lon="-4.2777">
        <ele>69.352294921875</ele>
        <time>2014-01-11T14:50:52Z</time>
      </trkpt>
      <trkpt lat="47.98399" lon="-4.27769">
        <ele>68.87158203125</ele>
        <time>2014-01-11T14:50:53Z</time>
      </trkpt>
      <trkpt lat="47.98396" lon="-4.27762">
        <ele>68.390869140625</ele>
        <time>2014-01-11T14:50:58Z</time>
      </trkpt>
      <trkpt lat="47.98391" lon="-4.27756">
        <ele>67.910278320312</ele>
        <time>2014-01-11T14:51:03Z</time>
      </trkpt>
      <trkpt lat="47.98388" lon="-4.27754">
        <ele>66.46826171875</ele>
        <time>2014-01-11T14:51:06Z</time>
      </trkpt>
      <trkpt lat="47.98383" lon="-4.27745">
        <ele>66.948974609375</ele>
        <time>2014-01-11T14:51:13Z</time>
      </trkpt>
      <trkpt lat="47.98378" lon="-4.27736">
        <ele>66.46826171875</ele>
        <time>2014-01-11T14:51:19Z</time>
      </trkpt>
      <trkpt lat="47.98377" lon="-4.27734">
        <ele>66.46826171875</ele>
        <time>2014-01-11T14:51:20Z</time>
      </trkpt>
      <trkpt lat="47.98372" lon="-4.27726">
        <ele>66.46826171875</ele>
        <time>2014-01-11T14:51:27Z</time>
      </trkpt>
      <trkpt lat="47.98371" lon="-4.27722">
        <ele>65.987670898438</ele>
        <time>2014-01-11T14:51:32Z</time>
      </trkpt>
      <trkpt lat="47.98368" lon="-4.27718">
        <ele>65.987670898438</ele>
        <time>2014-01-11T14:51:35Z</time>
      </trkpt>
      <trkpt lat="47.98356" lon="-4.27705">
        <ele>65.987670898438</ele>
        <time>2014-01-11T14:51:46Z</time>
      </trkpt>
      <trkpt lat="47.9835" lon="-4.27693">
        <ele>66.948974609375</ele>
        <time>2014-01-11T14:51:53Z</time>
      </trkpt>
      <trkpt lat="47.98347" lon="-4.27675">
        <ele>68.87158203125</ele>
        <time>2014-01-11T14:52:02Z</time>
      </trkpt>
      <trkpt lat="47.98348" lon="-4.27662">
        <ele>70.794189453125</ele>
        <time>2014-01-11T14:52:08Z</time>
      </trkpt>
      <trkpt lat="47.98348" lon="-4.27661">
        <ele>70.794189453125</ele>
        <time>2014-01-11T14:52:09Z</time>
      </trkpt>
      <trkpt lat="47.9835" lon="-4.27651">
        <ele>70.794189453125</ele>
        <time>2014-01-11T14:52:15Z</time>
      </trkpt>
      <trkpt lat="47.98351" lon="-4.27643">
        <ele>71.755493164062</ele>
        <time>2014-01-11T14:52:20Z</time>
      </trkpt>
      <trkpt lat="47.98353" lon="-4.27636">
        <ele>74.158813476562</ele>
        <time>2014-01-11T14:52:25Z</time>
      </trkpt>
      <trkpt lat="47.98356" lon="-4.27626">
        <ele>77.5234375</ele>
        <time>2014-01-11T14:52:31Z</time>
      </trkpt>
      <trkpt lat="47.98357" lon="-4.2762">
        <ele>78.965454101562</ele>
        <time>2014-01-11T14:52:35Z</time>
      </trkpt>
      <trkpt lat="47.98356" lon="-4.27613">
        <ele>79.926635742188</ele>
        <time>2014-01-11T14:52:39Z</time>
      </trkpt>
      <trkpt lat="47.98356" lon="-4.27607">
        <ele>80.88818359375</ele>
        <time>2014-01-11T14:52:42Z</time>
      </trkpt>
      <trkpt lat="47.98352" lon="-4.27598">
        <ele>82.330078125</ele>
        <time>2014-01-11T14:52:48Z</time>
      </trkpt>
      <trkpt lat="47.98348" lon="-4.2759">
        <ele>77.5234375</ele>
        <time>2014-01-11T14:52:54Z</time>
      </trkpt>
      <trkpt lat="47.98347" lon="-4.27589">
        <ele>77.042846679688</ele>
        <time>2014-01-11T14:52:56Z</time>
      </trkpt>
      <trkpt lat="47.98345" lon="-4.27585">
        <ele>75.600830078125</ele>
        <time>2014-01-11T14:53:00Z</time>
      </trkpt>
      <trkpt lat="47.98338" lon="-4.27576">
        <ele>72.236206054688</ele>
        <time>2014-01-11T14:53:06Z</time>
      </trkpt>
      <trkpt lat="47.98334" lon="-4.27576">
        <ele>73.197631835938</ele>
        <time>2014-01-11T14:53:09Z</time>
      </trkpt>
      <trkpt lat="47.9833" lon="-4.2757">
        <ele>73.67822265625</ele>
        <time>2014-01-11T14:53:13Z</time>
      </trkpt>
      <trkpt lat="47.98327" lon="-4.27564">
        <ele>73.67822265625</ele>
        <time>2014-01-11T14:53:17Z</time>
      </trkpt>
      <trkpt lat="47.98326" lon="-4.27562">
        <ele>74.158813476562</ele>
        <time>2014-01-11T14:53:18Z</time>
      </trkpt>
      <trkpt lat="47.98318" lon="-4.27551">
        <ele>76.562133789062</ele>
        <time>2014-01-11T14:53:24Z</time>
      </trkpt>
      <trkpt lat="47.98313" lon="-4.27543">
        <ele>78.484741210938</ele>
        <time>2014-01-11T14:53:29Z</time>
      </trkpt>
      <trkpt lat="47.98305" lon="-4.27529">
        <ele>82.810791015625</ele>
        <time>2014-01-11T14:53:36Z</time>
      </trkpt>
      <trkpt lat="47.983" lon="-4.27521">
        <ele>84.252685546875</ele>
        <time>2014-01-11T14:53:42Z</time>
      </trkpt>
      <trkpt lat="47.98293" lon="-4.27512">
        <ele>86.17529296875</ele>
        <time>2014-01-11T14:53:49Z</time>
      </trkpt>
      <trkpt lat="47.9829" lon="-4.27504">
        <ele>86.656005859375</ele>
        <time>2014-01-11T14:53:55Z</time>
      </trkpt>
      <trkpt lat="47.98289" lon="-4.27502">
        <ele>86.17529296875</ele>
        <time>2014-01-11T14:53:57Z</time>
      </trkpt>
      <trkpt lat="47.98293" lon="-4.27493">
        <ele>82.810791015625</ele>
        <time>2014-01-11T14:54:03Z</time>
      </trkpt>
      <trkpt lat="47.98295" lon="-4.27491">
        <ele>81.849365234375</ele>
        <time>2014-01-11T14:54:05Z</time>
      </trkpt>
      <trkpt lat="47.98299" lon="-4.27484">
        <ele>82.330078125</ele>
        <time>2014-01-11T14:54:12Z</time>
      </trkpt>
      <trkpt lat="47.98301" lon="-4.27477">
        <ele>82.810791015625</ele>
        <time>2014-01-11T14:54:16Z</time>
      </trkpt>
      <trkpt lat="47.98303" lon="-4.27468">
        <ele>78.484741210938</ele>
        <time>2014-01-11T14:54:22Z</time>
      </trkpt>
      <trkpt lat="47.98301" lon="-4.27456">
        <ele>78.484741210938</ele>
        <time>2014-01-11T14:54:29Z</time>
      </trkpt>
      <trkpt lat="47.98301" lon="-4.27454">
        <ele>78.004028320312</ele>
        <time>2014-01-11T14:54:30Z</time>
      </trkpt>
      <trkpt lat="47.98301" lon="-4.27445">
        <ele>82.810791015625</ele>
        <time>2014-01-11T14:54:35Z</time>
      </trkpt>
      <trkpt lat="47.98295" lon="-4.27433">
        <ele>86.17529296875</ele>
        <time>2014-01-11T14:54:40Z</time>
      </trkpt>
      <trkpt lat="47.98293" lon="-4.27429">
        <ele>88.098022460938</ele>
        <time>2014-01-11T14:54:42Z</time>
      </trkpt>
      <trkpt lat="47.98288" lon="-4.27419">
        <ele>90.501342773438</ele>
        <time>2014-01-11T14:54:47Z</time>
      </trkpt>
      <trkpt lat="47.98283" lon="-4.27411">
        <ele>91.943237304688</ele>
        <time>2014-01-11T14:54:53Z</time>
      </trkpt>
      <trkpt lat="47.98282" lon="-4.27409">
        <ele>91.943237304688</ele>
        <time>2014-01-11T14:54:54Z</time>
      </trkpt>
      <trkpt lat="47.98277" lon="-4.27395">
        <ele>91.943237304688</ele>
        <time>2014-01-11T14:55:01Z</time>
      </trkpt>
      <trkpt lat="47.98272" lon="-4.27387">
        <ele>90.501342773438</ele>
        <time>2014-01-11T14:55:06Z</time>
      </trkpt>
      <trkpt lat="47.98271" lon="-4.27385">
        <ele>90.020629882812</ele>
        <time>2014-01-11T14:55:08Z</time>
      </trkpt>
      <trkpt lat="47.98262" lon="-4.27371">
        <ele>90.501342773438</ele>
        <time>2014-01-11T14:55:17Z</time>
      </trkpt>
      <trkpt lat="47.98255" lon="-4.27361">
        <ele>90.501342773438</ele>
        <time>2014-01-11T14:55:24Z</time>
      </trkpt>
      <trkpt lat="47.98254" lon="-4.27358">
        <ele>90.98193359375</ele>
        <time>2014-01-11T14:55:26Z</time>
      </trkpt>
      <trkpt lat="47.98248" lon="-4.27349">
        <ele>91.943237304688</ele>
        <time>2014-01-11T14:55:32Z</time>
      </trkpt>
      <trkpt lat="47.98244" lon="-4.27342">
        <ele>93.385131835938</ele>
        <time>2014-01-11T14:55:36Z</time>
      </trkpt>
      <trkpt lat="47.98239" lon="-4.27334">
        <ele>93.385131835938</ele>
        <time>2014-01-11T14:55:42Z</time>
      </trkpt>
      <trkpt lat="47.98237" lon="-4.27333">
        <ele>92.423950195312</ele>
        <time>2014-01-11T14:55:47Z</time>
      </trkpt>
      <trkpt lat="47.98236" lon="-4.27335">
        <ele>92.904541015625</ele>
        <time>2014-01-11T14:55:49Z</time>
      </trkpt>
      <trkpt lat="47.98232" lon="-4.27334">
        <ele>92.904541015625</ele>
        <time>2014-01-11T14:55:53Z</time>
      </trkpt>
      <trkpt lat="47.98223" lon="-4.27318">
        <ele>92.423950195312</ele>
        <time>2014-01-11T14:56:04Z</time>
      </trkpt>
      <trkpt lat="47.98219" lon="-4.27305">
        <ele>92.423950195312</ele>
        <time>2014-01-11T14:56:12Z</time>
      </trkpt>
      <trkpt lat="47.98213" lon="-4.27285">
        <ele>92.904541015625</ele>
        <time>2014-01-11T14:56:23Z</time>
      </trkpt>
      <trkpt lat="47.98211" lon="-4.27271">
        <ele>94.8271484375</ele>
        <time>2014-01-11T14:56:30Z</time>
      </trkpt>
      <trkpt lat="47.98211" lon="-4.27259">
        <ele>96.269287109375</ele>
        <time>2014-01-11T14:56:36Z</time>
      </trkpt>
      <trkpt lat="47.98211" lon="-4.27247">
        <ele>96.749877929688</ele>
        <time>2014-01-11T14:56:43Z</time>
      </trkpt>
      <trkpt lat="47.98211" lon="-4.27228">
        <ele>97.711181640625</ele>
        <time>2014-01-11T14:56:52Z</time>
      </trkpt>
      <trkpt lat="47.98211" lon="-4.27214">
        <ele>99.6337890625</ele>
        <time>2014-01-11T14:57:00Z</time>
      </trkpt>
      <trkpt lat="47.98212" lon="-4.27202">
        <ele>99.6337890625</ele>
        <time>2014-01-11T14:57:06Z</time>
      </trkpt>
      <trkpt lat="47.98214" lon="-4.27194">
        <ele>98.672485351562</ele>
        <time>2014-01-11T14:57:10Z</time>
      </trkpt>
      <trkpt lat="47.98216" lon="-4.27182">
        <ele>98.672485351562</ele>
        <time>2014-01-11T14:57:16Z</time>
      </trkpt>
      <trkpt lat="47.98216" lon="-4.27171">
        <ele>100.59509277344</ele>
        <time>2014-01-11T14:57:21Z</time>
      </trkpt>
      <trkpt lat="47.98218" lon="-4.2716">
        <ele>100.59509277344</ele>
        <time>2014-01-11T14:57:27Z</time>
      </trkpt>
      <trkpt lat="47.98219" lon="-4.27147">
        <ele>100.59509277344</ele>
        <time>2014-01-11T14:57:33Z</time>
      </trkpt>
      <trkpt lat="47.98219" lon="-4.27143">
        <ele>100.59509277344</ele>
        <time>2014-01-11T14:57:35Z</time>
      </trkpt>
      <trkpt lat="47.98222" lon="-4.27132">
        <ele>102.99829101562</ele>
        <time>2014-01-11T14:57:41Z</time>
      </trkpt>
      <trkpt lat="47.98225" lon="-4.2712">
        <ele>104.4404296875</ele>
        <time>2014-01-11T14:57:48Z</time>
      </trkpt>
      <trkpt lat="47.98227" lon="-4.27116">
        <ele>105.88244628906</ele>
        <time>2014-01-11T14:57:52Z</time>
      </trkpt>
      <trkpt lat="47.98227" lon="-4.27109">
        <ele>106.36303710938</ele>
        <time>2014-01-11T14:57:56Z</time>
      </trkpt>
      <trkpt lat="47.98228" lon="-4.27102">
        <ele>105.88244628906</ele>
        <time>2014-01-11T14:58:02Z</time>
      </trkpt>
      <trkpt lat="47.98232" lon="-4.271">
        <ele>105.40173339844</ele>
        <time>2014-01-11T14:58:06Z</time>
      </trkpt>
      <trkpt lat="47.98239" lon="-4.27096">
        <ele>106.36303710938</ele>
        <time>2014-01-11T14:58:13Z</time>
      </trkpt>
      <trkpt lat="47.9824" lon="-4.27096">
        <ele>106.84362792969</ele>
        <time>2014-01-11T14:58:14Z</time>
      </trkpt>
      <trkpt lat="47.98247" lon="-4.27098">
        <ele>108.28564453125</ele>
        <time>2014-01-11T14:58:21Z</time>
      </trkpt>
      <trkpt lat="47.98258" lon="-4.27097">
        <ele>107.32434082031</ele>
        <time>2014-01-11T14:58:29Z</time>
      </trkpt>
      <trkpt lat="47.98265" lon="-4.27089">
        <ele>104.92102050781</ele>
        <time>2014-01-11T14:58:36Z</time>
      </trkpt>
      <trkpt lat="47.9827" lon="-4.27083">
        <ele>102.99829101562</ele>
        <time>2014-01-11T14:58:42Z</time>
      </trkpt>
      <trkpt lat="47.98281" lon="-4.27083">
        <ele>104.4404296875</ele>
        <time>2014-01-11T14:58:50Z</time>
      </trkpt>
      <trkpt lat="47.98285" lon="-4.27068">
        <ele>102.037109375</ele>
        <time>2014-01-11T14:58:59Z</time>
      </trkpt>
    </trkseg>
  </trk>
</gpx>